Wetterdaten: Sonntag, 30.04.2017
Datum Zeit Temp. A. Pool Temp. Feuchte A. Luftdruck Regen Wind Richtung Richtung Sonnenschein ET UV Solar Taupunkt Windchill Windben Empfang
30.04.2017 00:00 2,7 C 9,4 C 95 % 1017,6 hPa 0,0 l/m 1,9 km/h (1 Bft) SO 124 0 min 0,000 mm 0,0 UV-I 0 W/m 2,0 C 2,7 C 3,2 km/h (1 Bft) 92,00 %
30.04.2017 00:02 2,6 C 9,4 C 95 % 1017,6 hPa 0,0 l/m 1,6 km/h (1 Bft) SO 124 0 min 0,000 mm 0,0 UV-I 0 W/m 1,9 C 2,6 C 1,6 km/h (1 Bft) 9,09 %
30.04.2017 00:04 2,6 C 9,4 C 95 % 1017,6 hPa 0,0 l/m 1,6 km/h (1 Bft) SO 124 0 min 0,000 mm 0,0 UV-I 0 W/m 1,9 C 2,6 C 1,6 km/h (1 Bft) 94,29 %
30.04.2017 00:06 2,6 C 9,4 C 95 % 1017,6 hPa 0,0 l/m 1,9 km/h (1 Bft) SO 124 0 min 0,000 mm 0,0 UV-I 0 W/m 1,9 C 2,6 C 3,2 km/h (1 Bft) 94,00 %
30.04.2017 00:08 2,6 C 9,4 C 95 % 1017,6 hPa 0,0 l/m 1,3 km/h (1 Bft) SO 124 0 min 0,000 mm 0,0 UV-I 0 W/m 1,9 C 2,6 C 3,2 km/h (1 Bft) 94,00 %
30.04.2017 00:10 2,6 C 9,4 C 95 % 1017,6 hPa 0,0 l/m 0,0 km/h (0 Bft) SO 124 0 min 0,000 mm 0,0 UV-I 0 W/m 1,9 C 2,6 C 0,0 km/h (0 Bft) 96,00 %
30.04.2017 00:12 2,4 C 9,4 C 95 % 1017,6 hPa 0,0 l/m 0,3 km/h (0 Bft) SO 124 0 min 0,000 mm 0,0 UV-I 0 W/m 1,7 C 2,4 C 1,6 km/h (1 Bft) 95,83 %
30.04.2017 00:14 2,4 C 9,4 C 94 % 1017,6 hPa 0,0 l/m 2,4 km/h (1 Bft) SO 124 0 min 0,000 mm 0,0 UV-I 0 W/m 1,5 C 2,4 C 3,2 km/h (1 Bft) 96,72 %
30.04.2017 00:16 2,4 C 9,4 C 95 % 1017,7 hPa 0,0 l/m 3,2 km/h (1 Bft) SO 124 0 min 0,000 mm 0,0 UV-I 0 W/m 1,7 C 2,4 C 3,2 km/h (1 Bft) 96,00 %
30.04.2017 00:18 2,3 C 9,4 C 95 % 1017,7 hPa 0,0 l/m 2,4 km/h (1 Bft) SO 124 0 min 0,000 mm 0,0 UV-I 0 W/m 1,6 C 2,3 C 3,2 km/h (1 Bft) 95,74 %
30.04.2017 00:20 2,3 C 9,4 C 95 % 1017,7 hPa 0,0 l/m 1,8 km/h (1 Bft) SO 124 0 min 0,000 mm 0,0 UV-I 0 W/m 1,6 C 2,3 C 3,2 km/h (1 Bft) 98,00 %
30.04.2017 00:22 2,2 C 9,4 C 95 % 1017,7 hPa 0,0 l/m 1,6 km/h (1 Bft) SO 124 0 min 0,000 mm 0,0 UV-I 0 W/m 1,5 C 2,2 C 3,2 km/h (1 Bft) 92,68 %
30.04.2017 00:24 2,3 C 9,4 C 95 % 1017,7 hPa 0,0 l/m 0,0 km/h (0 Bft) SO 124 0 min 0,000 mm 0,0 UV-I 0 W/m 1,6 C 2,3 C 1,6 km/h (1 Bft) 96,23 %
30.04.2017 00:26 2,4 C 9,4 C 95 % 1017,7 hPa 0,0 l/m 0,0 km/h (0 Bft) SO 124 0 min 0,000 mm 0,0 UV-I 0 W/m 1,7 C 2,4 C 0,0 km/h (0 Bft) 100,00 %
30.04.2017 00:28 2,5 C 9,4 C 96 % 1017,6 hPa 0,0 l/m 0,5 km/h (0 Bft) SO 124 0 min 0,000 mm 0,0 UV-I 0 W/m 1,9 C 2,5 C 1,6 km/h (1 Bft) 100,00 %
30.04.2017 00:30 2,5 C 9,4 C 95 % 1017,6 hPa 0,0 l/m 0,0 km/h (0 Bft) SO 124 0 min 0,000 mm 0,0 UV-I 0 W/m 1,8 C 2,5 C 0,0 km/h (0 Bft) 100,00 %
30.04.2017 00:32 2,4 C 9,4 C 95 % 1017,6 hPa 0,0 l/m 0,0 km/h (0 Bft) SO 124 0 min 0,000 mm 0,0 UV-I 0 W/m 1,7 C 2,4 C 0,0 km/h (0 Bft) 98,00 %
30.04.2017 00:34 2,3 C 9,4 C 95 % 1017,6 hPa 0,0 l/m 0,0 km/h (0 Bft) SO 124 0 min 0,000 mm 0,0 UV-I 0 W/m 1,6 C 2,3 C 0,0 km/h (0 Bft) 97,87 %
30.04.2017 00:36 2,3 C 9,4 C 95 % 1017,7 hPa 0,0 l/m 1,0 km/h (0 Bft) SO 124 0 min 0,000 mm 0,0 UV-I 0 W/m 1,6 C 2,3 C 3,2 km/h (1 Bft) 98,11 %
30.04.2017 00:38 2,2 C 9,4 C 95 % 1017,7 hPa 0,0 l/m 1,5 km/h (1 Bft) SO 124 0 min 0,000 mm 0,0 UV-I 0 W/m 1,5 C 2,2 C 3,2 km/h (1 Bft) 97,37 %
30.04.2017 00:40 2,2 C 9,4 C 95 % 1017,7 hPa 0,0 l/m 1,6 km/h (1 Bft) SO 124 0 min 0,000 mm 0,0 UV-I 0 W/m 1,5 C 2,2 C 3,2 km/h (1 Bft) 98,00 %
30.04.2017 00:42 2,2 C 9,4 C 95 % 1017,7 hPa 0,0 l/m 2,8 km/h (1 Bft) SO 124 0 min 0,000 mm 0,0 UV-I 0 W/m 1,5 C 2,2 C 3,2 km/h (1 Bft) 100,00 %
30.04.2017 00:44 2,2 C 9,4 C 95 % 1017,7 hPa 0,0 l/m 3,3 km/h (1 Bft) SO 124 0 min 0,000 mm 0,0 UV-I 0 W/m 1,5 C 2,2 C 4,8 km/h (1 Bft) 98,00 %
30.04.2017 00:46 2,1 C 9,4 C 95 % 1017,7 hPa 0,0 l/m 1,9 km/h (1 Bft) SO 124 0 min 0,000 mm 0,0 UV-I 0 W/m 1,4 C 2,1 C 3,2 km/h (1 Bft) 100,00 %
30.04.2017 00:48 2,1 C 9,4 C 95 % 1017,7 hPa 0,0 l/m 0,1 km/h (0 Bft) SO 124 0 min 0,000 mm 0,0 UV-I 0 W/m 1,4 C 2,1 C 1,6 km/h (1 Bft) 98,39 %
30.04.2017 00:50 2,0 C 9,4 C 95 % 1017,7 hPa 0,0 l/m 0,0 km/h (0 Bft) SO 124 0 min 0,000 mm 0,0 UV-I 0 W/m 1,3 C 2,0 C 0,0 km/h (0 Bft) 100,00 %
30.04.2017 00:52 2,0 C 9,4 C 95 % 1017,7 hPa 0,0 l/m 0,0 km/h (0 Bft) SO 124 0 min 0,000 mm 0,0 UV-I 0 W/m 1,3 C 2,0 C 0,0 km/h (0 Bft) 100,00 %
30.04.2017 00:54 2,1 C 9,4 C 95 % 1017,7 hPa 0,0 l/m 0,0 km/h (0 Bft) SO 124 0 min 0,000 mm 0,0 UV-I 0 W/m 1,4 C 2,1 C 0,0 km/h (0 Bft) 100,00 %
30.04.2017 00:56 2,2 C 9,4 C 96 % 1017,7 hPa 0,0 l/m 0,0 km/h (0 Bft) SO 124 0 min 0,000 mm 0,0 UV-I 0 W/m 1,6 C 2,2 C 0,0 km/h (0 Bft) 100,00 %
30.04.2017 00:58 2,2 C 9,4 C 96 % 1017,7 hPa 0,0 l/m 1,6 km/h (1 Bft) SO 124 0 min 0,000 mm 0,0 UV-I 0 W/m 1,6 C 2,2 C 3,2 km/h (1 Bft) 100,00 %
30.04.2017 01:00 2,2 C 9,4 C 96 % 1017,7 hPa 0,0 l/m 0,9 km/h (0 Bft) SO 124 0 min 0,000 mm 0,0 UV-I 0 W/m 1,6 C 2,2 C 3,2 km/h (1 Bft) 97,87 %
30.04.2017 01:01 2,2 C 9,4 C 95 % 1017,7 hPa 0,0 l/m 0,0 km/h (0 Bft) SO 124 0 min 0,000 mm 0,0 UV-I 0 W/m 1,5 C 2,2 C 1,6 km/h (1 Bft) 96,00 %
30.04.2017 01:04 2,0 C 9,4 C 95 % 1017,7 hPa 0,0 l/m 0,0 km/h (0 Bft) SO 124 0 min 0,000 mm 0,0 UV-I 0 W/m 1,3 C 2,0 C 1,6 km/h (1 Bft) 100,00 %
30.04.2017 01:06 1,9 C 9,4 C 95 % 1017,7 hPa 0,0 l/m 1,3 km/h (1 Bft) SO 124 0 min 0,000 mm 0,0 UV-I 0 W/m 1,2 C 1,9 C 3,2 km/h (1 Bft) 98,11 %
30.04.2017 01:08 1,9 C 9,4 C 95 % 1017,7 hPa 0,0 l/m 1,9 km/h (1 Bft) SO 124 0 min 0,000 mm 0,0 UV-I 0 W/m 1,2 C 1,9 C 3,2 km/h (1 Bft) 100,00 %
30.04.2017 01:10 1,8 C 9,4 C 95 % 1017,7 hPa 0,0 l/m 0,5 km/h (0 Bft) SO 124 0 min 0,000 mm 0,0 UV-I 0 W/m 1,1 C 1,8 C 1,6 km/h (1 Bft) 94,87 %
30.04.2017 01:12 1,9 C 9,4 C 96 % 1017,7 hPa 0,0 l/m 2,7 km/h (1 Bft) SO 124 0 min 0,000 mm 0,0 UV-I 0 W/m 1,3 C 1,9 C 3,2 km/h (1 Bft) 98,00 %
30.04.2017 01:14 1,9 C 9,4 C 96 % 1017,7 hPa 0,0 l/m 3,6 km/h (1 Bft) SO 124 0 min 0,000 mm 0,0 UV-I 0 W/m 1,3 C 1,9 C 4,8 km/h (1 Bft) 97,37 %
30.04.2017 01:16 1,9 C 9,4 C 96 % 1017,6 hPa 0,0 l/m 2,4 km/h (1 Bft) SO 124 0 min 0,000 mm 0,0 UV-I 0 W/m 1,3 C 1,9 C 4,8 km/h (1 Bft) 98,15 %
30.04.2017 01:18 1,9 C 9,4 C 96 % 1017,6 hPa 0,0 l/m 1,9 km/h (1 Bft) SO 124 0 min 0,000 mm 0,0 UV-I 0 W/m 1,3 C 1,9 C 3,2 km/h (1 Bft) 95,12 %
30.04.2017 01:20 1,9 C 9,4 C 96 % 1017,6 hPa 0,0 l/m 0,2 km/h (0 Bft) SO 124 0 min 0,000 mm 0,0 UV-I 0 W/m 1,3 C 1,9 C 1,6 km/h (1 Bft) 96,00 %
30.04.2017 01:22 2,1 C 9,4 C 96 % 1017,6 hPa 0,0 l/m 0,0 km/h (0 Bft) SO 124 0 min 0,000 mm 0,0 UV-I 0 W/m 1,5 C 2,1 C 1,6 km/h (1 Bft) 98,00 %
30.04.2017 01:24 2,1 C 9,4 C 96 % 1017,6 hPa 0,0 l/m 0,6 km/h (0 Bft) SO 124 0 min 0,000 mm 0,0 UV-I 0 W/m 1,5 C 2,1 C 1,6 km/h (1 Bft) 96,00 %
30.04.2017 01:26 2,2 C 9,4 C 96 % 1017,6 hPa 0,0 l/m 0,8 km/h (0 Bft) SO 124 0 min 0,000 mm 0,0 UV-I 0 W/m 1,6 C 2,2 C 1,6 km/h (1 Bft) 95,74 %
30.04.2017 01:28 2,2 C 9,4 C 96 % 1017,6 hPa 0,0 l/m 0,9 km/h (0 Bft) SO 124 0 min 0,000 mm 0,0 UV-I 0 W/m 1,6 C 2,2 C 1,6 km/h (1 Bft) 98,00 %
30.04.2017 01:30 2,1 C 9,4 C 96 % 1017,6 hPa 0,0 l/m 0,0 km/h (0 Bft) SO 124 0 min 0,000 mm 0,0 UV-I 0 W/m 1,5 C 2,1 C 0,0 km/h (0 Bft) 95,74 %
30.04.2017 01:32 2,0 C 9,4 C 96 % 1017,6 hPa 0,0 l/m 0,0 km/h (0 Bft) SO 124 0 min 0,000 mm 0,0 UV-I 0 W/m 1,4 C 2,0 C 0,0 km/h (0 Bft) 95,45 %
30.04.2017 01:34 1,8 C 9,4 C 96 % 1017,6 hPa 0,0 l/m 0,0 km/h (0 Bft) SO 124 0 min 0,000 mm 0,0 UV-I 0 W/m 1,2 C 1,8 C 0,0 km/h (0 Bft) 97,87 %
30.04.2017 01:36 1,8 C 9,4 C 95 % 1017,6 hPa 0,0 l/m 0,0 km/h (0 Bft) SO 124 0 min 0,000 mm 0,0 UV-I 0 W/m 1,1 C 1,8 C 0,0 km/h (0 Bft) 95,12 %
30.04.2017 01:38 1,8 C 9,4 C 96 % 1017,6 hPa 0,0 l/m 0,0 km/h (0 Bft) SO 124 0 min 0,000 mm 0,0 UV-I 0 W/m 1,2 C 1,8 C 0,0 km/h (0 Bft) 93,62 %
30.04.2017 01:40 1,8 C 9,4 C 96 % 1017,6 hPa 0,0 l/m 0,0 km/h (0 Bft) SO 124 0 min 0,000 mm 0,0 UV-I 0 W/m 1,2 C 1,8 C 0,0 km/h (0 Bft) 95,74 %
30.04.2017 01:42 1,7 C 9,4 C 96 % 1017,5 hPa 0,0 l/m 0,1 km/h (0 Bft) SO 124 0 min 0,000 mm 0,0 UV-I 0 W/m 1,1 C 1,7 C 1,6 km/h (1 Bft) 96,00 %
30.04.2017 01:44 1,7 C 9,4 C 96 % 1017,5 hPa 0,0 l/m 0,9 km/h (0 Bft) SO 124 0 min 0,000 mm 0,0 UV-I 0 W/m 1,1 C 1,7 C 3,2 km/h (1 Bft) 94,00 %
30.04.2017 01:46 1,7 C 9,4 C 96 % 1017,6 hPa 0,0 l/m 0,0 km/h (0 Bft) SO 124 0 min 0,000 mm 0,0 UV-I 0 W/m 1,1 C 1,7 C 0,0 km/h (0 Bft) 94,87 %
30.04.2017 01:48 1,6 C 9,4 C 96 % 1017,5 hPa 0,0 l/m 0,0 km/h (0 Bft) SO 124 0 min 0,000 mm 0,0 UV-I 0 W/m 1,0 C 1,6 C 0,0 km/h (0 Bft) 94,55 %
30.04.2017 01:50 1,5 C 9,4 C 96 % 1017,5 hPa 0,0 l/m 0,0 km/h (0 Bft) SO 124 0 min 0,000 mm 0,0 UV-I 0 W/m 0,9 C 1,5 C 0,0 km/h (0 Bft) 97,87 %
30.04.2017 01:52 1,4 C 9,4 C 96 % 1017,5 hPa 0,0 l/m 0,0 km/h (0 Bft) SO 124 0 min 0,000 mm 0,0 UV-I 0 W/m 0,8 C 1,4 C 0,0 km/h (0 Bft) 94,87 %
30.04.2017 01:54 1,3 C 9,4 C 95 % 1017,5 hPa 0,0 l/m 2,1 km/h (1 Bft) SO 124 0 min 0,000 mm 0,0 UV-I 0 W/m 0,6 C 1,3 C 3,2 km/h (1 Bft) 96,23 %
30.04.2017 01:56 1,2 C 9,4 C 96 % 1017,5 hPa 0,0 l/m 3,0 km/h (1 Bft) SO 124 0 min 0,000 mm 0,0 UV-I 0 W/m 0,6 C 1,2 C 3,2 km/h (1 Bft) 100,00 %
30.04.2017 01:58 1,2 C 9,4 C 96 % 1017,5 hPa 0,0 l/m 2,2 km/h (1 Bft) SO 124 0 min 0,000 mm 0,0 UV-I 0 W/m 0,6 C 1,2 C 3,2 km/h (1 Bft) 97,87 %
30.04.2017 02:00 1,3 C 9,4 C 96 % 1017,5 hPa 0,0 l/m 2,4 km/h (1 Bft) SO 124 0 min 0,000 mm 0,0 UV-I 0 W/m 0,7 C 1,3 C 3,2 km/h (1 Bft) 97,14 %
30.04.2017 02:02 1,4 C 9,4 C 96 % 1017,5 hPa 0,0 l/m 2,0 km/h (1 Bft) SO 124 0 min 0,000 mm 0,0 UV-I 0 W/m 0,8 C 1,4 C 3,2 km/h (1 Bft) 98,11 %
30.04.2017 02:04 1,6 C 9,4 C 96 % 1017,5 hPa 0,0 l/m 1,6 km/h (1 Bft) SO 124 0 min 0,000 mm 0,0 UV-I 0 W/m 1,0 C 1,6 C 3,2 km/h (1 Bft) 97,87 %
30.04.2017 02:06 1,6 C 9,4 C 96 % 1017,5 hPa 0,0 l/m 2,3 km/h (1 Bft) SO 124 0 min 0,000 mm 0,0 UV-I 0 W/m 1,0 C 1,6 C 3,2 km/h (1 Bft) 100,00 %
30.04.2017 02:08 1,6 C 9,4 C 96 % 1017,5 hPa 0,0 l/m 2,9 km/h (1 Bft) SO 124 0 min 0,000 mm 0,0 UV-I 0 W/m 1,0 C 1,6 C 4,8 km/h (1 Bft) 98,11 %
30.04.2017 02:10 1,6 C 9,4 C 96 % 1017,5 hPa 0,0 l/m 2,2 km/h (1 Bft) SO 124 0 min 0,000 mm 0,0 UV-I 0 W/m 1,0 C 1,6 C 3,2 km/h (1 Bft) 97,37 %
30.04.2017 02:12 1,3 C 9,4 C 96 % 1017,4 hPa 0,0 l/m 2,1 km/h (1 Bft) SO 124 0 min 0,000 mm 0,0 UV-I 0 W/m 0,7 C 1,3 C 3,2 km/h (1 Bft) 96,00 %
30.04.2017 02:14 1,3 C 9,4 C 96 % 1017,4 hPa 0,0 l/m 2,0 km/h (1 Bft) SO 124 0 min 0,000 mm 0,0 UV-I 0 W/m 0,7 C 1,3 C 3,2 km/h (1 Bft) 97,87 %
30.04.2017 02:16 1,3 C 9,4 C 96 % 1017,4 hPa 0,0 l/m 1,1 km/h (1 Bft) SO 124 0 min 0,000 mm 0,0 UV-I 0 W/m 0,7 C 1,3 C 1,6 km/h (1 Bft) 100,00 %
30.04.2017 02:18 1,4 C 9,4 C 96 % 1017,4 hPa 0,0 l/m 0,4 km/h (0 Bft) SO 124 0 min 0,000 mm 0,0 UV-I 0 W/m 0,8 C 1,4 C 3,2 km/h (1 Bft) 97,92 %
30.04.2017 02:20 1,5 C 9,4 C 96 % 1017,4 hPa 0,0 l/m 3,6 km/h (1 Bft) SO 124 0 min 0,000 mm 0,0 UV-I 0 W/m 0,9 C 1,5 C 4,8 km/h (1 Bft) 100,00 %
30.04.2017 02:22 1,8 C 9,4 C 96 % 1017,4 hPa 0,0 l/m 3,5 km/h (1 Bft) SO 124 0 min 0,000 mm 0,0 UV-I 0 W/m 1,2 C 1,8 C 4,8 km/h (1 Bft) 97,56 %
30.04.2017 02:24 1,8 C 9,4 C 97 % 1017,4 hPa 0,0 l/m 3,8 km/h (1 Bft) SO 124 0 min 0,000 mm 0,0 UV-I 0 W/m 1,4 C 1,8 C 4,8 km/h (1 Bft) 100,00 %
30.04.2017 02:26 1,9 C 9,4 C 97 % 1017,4 hPa 0,0 l/m 2,6 km/h (1 Bft) SO 124 0 min 0,000 mm 0,0 UV-I 0 W/m 1,5 C 1,9 C 4,8 km/h (1 Bft) 100,00 %
30.04.2017 02:28 1,9 C 9,4 C 96 % 1017,4 hPa 0,0 l/m 2,1 km/h (1 Bft) SO 124 0 min 0,000 mm 0,0 UV-I 0 W/m 1,3 C 1,9 C 3,2 km/h (1 Bft) 100,00 %
30.04.2017 02:30 1,9 C 9,4 C 96 % 1017,4 hPa 0,0 l/m 2,0 km/h (1 Bft) SO 124 0 min 0,000 mm 0,0 UV-I 0 W/m 1,3 C 1,9 C 3,2 km/h (1 Bft) 96,43 %
30.04.2017 02:32 1,8 C 9,4 C 96 % 1017,4 hPa 0,0 l/m 1,7 km/h (1 Bft) SO 124 0 min 0,000 mm 0,0 UV-I 0 W/m 1,2 C 1,8 C 3,2 km/h (1 Bft) 100,00 %
30.04.2017 02:34 1,6 C 9,4 C 96 % 1017,4 hPa 0,0 l/m 0,0 km/h (0 Bft) SO 124 0 min 0,000 mm 0,0 UV-I 0 W/m 1,0 C 1,6 C 0,0 km/h (0 Bft) 97,87 %
30.04.2017 02:36 1,3 C 9,4 C 95 % 1017,4 hPa 0,0 l/m 3,0 km/h (1 Bft) SO 124 0 min 0,000 mm 0,0 UV-I 0 W/m 0,6 C 1,3 C 4,8 km/h (1 Bft) 100,00 %
30.04.2017 02:38 1,2 C 9,4 C 96 % 1017,4 hPa 0,0 l/m 1,9 km/h (1 Bft) SO 124 0 min 0,000 mm 0,0 UV-I 0 W/m 0,6 C 1,2 C 4,8 km/h (1 Bft) 98,00 %
30.04.2017 02:40 1,1 C 9,4 C 96 % 1017,4 hPa 0,0 l/m 1,3 km/h (1 Bft) SO 124 0 min 0,000 mm 0,0 UV-I 0 W/m 0,5 C 1,1 C 1,6 km/h (1 Bft) 95,74 %
30.04.2017 02:42 1,1 C 9,4 C 96 % 1017,4 hPa 0,0 l/m 2,0 km/h (1 Bft) SO 124 0 min 0,000 mm 0,0 UV-I 0 W/m 0,5 C 1,1 C 3,2 km/h (1 Bft) 98,00 %
30.04.2017 02:44 1,1 C 9,4 C 96 % 1017,3 hPa 0,0 l/m 1,8 km/h (1 Bft) SO 124 0 min 0,000 mm 0,0 UV-I 0 W/m 0,5 C 1,1 C 3,2 km/h (1 Bft) 95,45 %
30.04.2017 02:46 1,1 C 9,4 C 96 % 1017,4 hPa 0,0 l/m 3,9 km/h (1 Bft) O-SO 122 0 min 0,000 mm 0,0 UV-I 0 W/m 0,5 C 1,1 C 6,4 km/h (2 Bft) 97,56 %
30.04.2017 02:48 1,4 C 9,4 C 96 % 1017,4 hPa 0,0 l/m 4,3 km/h (1 Bft) O-SO 117 0 min 0,000 mm 0,0 UV-I 0 W/m 0,8 C 1,4 C 6,4 km/h (2 Bft) 94,44 %
30.04.2017 02:50 1,8 C 9,4 C 97 % 1017,4 hPa 0,0 l/m 4,6 km/h (1 Bft) O-SO 107 0 min 0,000 mm 0,0 UV-I 0 W/m 1,4 C 1,8 C 9,7 km/h (2 Bft) 96,00 %
30.04.2017 02:52 1,9 C 9,4 C 97 % 1017,4 hPa 0,0 l/m 3,5 km/h (1 Bft) O-SO 107 0 min 0,000 mm 0,0 UV-I 0 W/m 1,5 C 1,9 C 4,8 km/h (1 Bft) 97,56 %
30.04.2017 02:54 2,1 C 9,4 C 97 % 1017,4 hPa 0,0 l/m 3,5 km/h (1 Bft) O-SO 107 0 min 0,000 mm 0,0 UV-I 0 W/m 1,7 C 2,1 C 4,8 km/h (1 Bft) 96,00 %
30.04.2017 02:56 2,2 C 9,4 C 97 % 1017,4 hPa 0,0 l/m 5,6 km/h (1 Bft) O 95 0 min 0,000 mm 0,0 UV-I 0 W/m 1,8 C 2,2 C 9,7 km/h (2 Bft) 98,11 %
30.04.2017 02:58 2,2 C 9,4 C 96 % 1017,4 hPa 0,0 l/m 2,8 km/h (1 Bft) O 95 0 min 0,000 mm 0,0 UV-I 0 W/m 1,6 C 2,2 C 4,8 km/h (1 Bft) 95,45 %
30.04.2017 03:00 2,1 C 9,4 C 96 % 1017,4 hPa 0,0 l/m 2,9 km/h (1 Bft) O 95 0 min 0,000 mm 0,0 UV-I 0 W/m 1,5 C 2,1 C 4,8 km/h (1 Bft) 97,56 %
30.04.2017 03:02 2,0 C 9,4 C 96 % 1017,4 hPa 0,0 l/m 3,7 km/h (1 Bft) O 95 0 min 0,000 mm 0,0 UV-I 0 W/m 1,4 C 2,0 C 6,4 km/h (2 Bft) 96,00 %
30.04.2017 03:04 2,1 C 9,4 C 96 % 1017,3 hPa 0,0 l/m 3,3 km/h (1 Bft) O 95 0 min 0,000 mm 0,0 UV-I 0 W/m 1,5 C 2,1 C 4,8 km/h (1 Bft) 95,45 %
30.04.2017 03:06 2,0 C 9,4 C 96 % 1017,3 hPa 0,0 l/m 2,6 km/h (1 Bft) O 95 0 min 0,000 mm 0,0 UV-I 0 W/m 1,4 C 2,0 C 3,2 km/h (1 Bft) 95,83 %
30.04.2017 03:08 2,0 C 9,4 C 96 % 1017,3 hPa 0,0 l/m 3,0 km/h (1 Bft) O 95 0 min 0,000 mm 0,0 UV-I 0 W/m 1,4 C 2,0 C 4,8 km/h (1 Bft) 94,23 %
30.04.2017 03:10 2,0 C 9,4 C 96 % 1017,3 hPa 0,0 l/m 2,9 km/h (1 Bft) O 95 0 min 0,000 mm 0,0 UV-I 0 W/m 1,4 C 2,0 C 4,8 km/h (1 Bft) 95,74 %
30.04.2017 03:12 2,1 C 9,4 C 96 % 1017,3 hPa 0,0 l/m 2,6 km/h (1 Bft) O 95 0 min 0,000 mm 0,0 UV-I 0 W/m 1,5 C 2,1 C 4,8 km/h (1 Bft) 95,24 %
30.04.2017 03:14 1,8 C 9,4 C 96 % 1017,3 hPa 0,0 l/m 1,5 km/h (1 Bft) O 95 0 min 0,000 mm 0,0 UV-I 0 W/m 1,2 C 1,8 C 3,2 km/h (1 Bft) 94,00 %
30.04.2017 03:16 1,6 C 9,4 C 95 % 1017,3 hPa 0,0 l/m 1,7 km/h (1 Bft) O 95 0 min 0,000 mm 0,0 UV-I 0 W/m 0,9 C 1,6 C 3,2 km/h (1 Bft) 97,73 %
30.04.2017 03:18 1,3 C 9,4 C 95 % 1017,3 hPa 0,0 l/m 2,4 km/h (1 Bft) O 95 0 min 0,000 mm 0,0 UV-I 0 W/m 0,6 C 1,3 C 3,2 km/h (1 Bft) 98,00 %
30.04.2017 03:20 1,4 C 9,4 C 96 % 1017,3 hPa 0,0 l/m 3,0 km/h (1 Bft) O 95 0 min 0,000 mm 0,0 UV-I 0 W/m 0,8 C 1,4 C 4,8 km/h (1 Bft) 98,00 %
30.04.2017 03:22 1,6 C 9,4 C 96 % 1017,3 hPa 0,0 l/m 3,0 km/h (1 Bft) O 95 0 min 0,000 mm 0,0 UV-I 0 W/m 1,0 C 1,6 C 4,8 km/h (1 Bft) 94,74 %
30.04.2017 03:24 1,7 C 9,4 C 96 % 1017,3 hPa 0,0 l/m 2,6 km/h (1 Bft) O 95 0 min 0,000 mm 0,0 UV-I 0 W/m 1,1 C 1,7 C 3,2 km/h (1 Bft) 97,87 %
30.04.2017 03:26 1,8 C 9,4 C 96 % 1017,3 hPa 0,0 l/m 2,5 km/h (1 Bft) O 96 0 min 0,000 mm 0,0 UV-I 0 W/m 1,2 C 1,8 C 3,2 km/h (1 Bft) 96,00 %
30.04.2017 03:28 1,8 C 9,4 C 96 % 1017,3 hPa 0,0 l/m 2,1 km/h (1 Bft) O 95 0 min 0,000 mm 0,0 UV-I 0 W/m 1,2 C 1,8 C 3,2 km/h (1 Bft) 96,00 %
30.04.2017 03:30 1,8 C 9,4 C 96 % 1017,3 hPa 0,0 l/m 2,8 km/h (1 Bft) O 95 0 min 0,000 mm 0,0 UV-I 0 W/m 1,2 C 1,8 C 4,8 km/h (1 Bft) 95,12 %
30.04.2017 03:32 1,9 C 9,4 C 96 % 1017,3 hPa 0,0 l/m 2,9 km/h (1 Bft) O 95 0 min 0,000 mm 0,0 UV-I 0 W/m 1,3 C 1,9 C 3,2 km/h (1 Bft) 94,00 %
30.04.2017 03:34 1,9 C 9,4 C 96 % 1017,3 hPa 0,0 l/m 2,6 km/h (1 Bft) O 95 0 min 0,000 mm 0,0 UV-I 0 W/m 1,3 C 1,9 C 4,8 km/h (1 Bft) 97,56 %
30.04.2017 03:36 1,9 C 9,4 C 96 % 1017,4 hPa 0,0 l/m 3,1 km/h (1 Bft) O 95 0 min 0,000 mm 0,0 UV-I 0 W/m 1,3 C 1,9 C 4,8 km/h (1 Bft) 96,00 %
30.04.2017 03:38 1,9 C 9,4 C 96 % 1017,4 hPa 0,0 l/m 3,1 km/h (1 Bft) O 95 0 min 0,000 mm 0,0 UV-I 0 W/m 1,3 C 1,9 C 4,8 km/h (1 Bft) 97,87 %
30.04.2017 03:40 1,7 C 9,4 C 95 % 1017,4 hPa 0,0 l/m 2,8 km/h (1 Bft) O 95 0 min 0,000 mm 0,0 UV-I 0 W/m 1,0 C 1,7 C 3,2 km/h (1 Bft) 98,00 %
30.04.2017 03:42 1,3 C 9,4 C 95 % 1017,3 hPa 0,0 l/m 3,0 km/h (1 Bft) O 96 0 min 0,000 mm 0,0 UV-I 0 W/m 0,6 C 1,3 C 4,8 km/h (1 Bft) 97,56 %
30.04.2017 03:44 1,1 C 9,4 C 95 % 1017,3 hPa 0,0 l/m 2,5 km/h (1 Bft) O 95 0 min 0,000 mm 0,0 UV-I 0 W/m 0,4 C 1,1 C 3,2 km/h (1 Bft) 95,74 %
30.04.2017 03:46 1,2 C 9,4 C 96 % 1017,3 hPa 0,0 l/m 3,2 km/h (1 Bft) O 95 0 min 0,000 mm 0,0 UV-I 0 W/m 0,6 C 1,2 C 4,8 km/h (1 Bft) 98,11 %
30.04.2017 03:48 1,3 C 9,4 C 96 % 1017,3 hPa 0,0 l/m 3,3 km/h (1 Bft) O 95 0 min 0,000 mm 0,0 UV-I 0 W/m 0,7 C 1,3 C 4,8 km/h (1 Bft) 94,87 %
30.04.2017 03:50 1,4 C 9,4 C 96 % 1017,3 hPa 0,0 l/m 3,2 km/h (1 Bft) O 95 0 min 0,000 mm 0,0 UV-I 0 W/m 0,8 C 1,4 C 4,8 km/h (1 Bft) 98,00 %
30.04.2017 03:52 1,6 C 9,4 C 96 % 1017,3 hPa 0,0 l/m 2,7 km/h (1 Bft) O 95 0 min 0,000 mm 0,0 UV-I 0 W/m 1,0 C 1,6 C 3,2 km/h (1 Bft) 93,62 %
30.04.2017 03:54 1,6 C 9,4 C 96 % 1017,3 hPa 0,0 l/m 3,4 km/h (1 Bft) O 95 0 min 0,000 mm 0,0 UV-I 0 W/m 1,0 C 1,6 C 4,8 km/h (1 Bft) 96,00 %
30.04.2017 03:56 1,7 C 9,4 C 96 % 1017,3 hPa 0,0 l/m 3,3 km/h (1 Bft) O 95 0 min 0,000 mm 0,0 UV-I 0 W/m 1,1 C 1,7 C 4,8 km/h (1 Bft) 94,74 %
30.04.2017 03:58 1,7 C 9,4 C 96 % 1017,3 hPa 0,0 l/m 3,9 km/h (1 Bft) O 95 0 min 0,000 mm 0,0 UV-I 0 W/m 1,1 C 1,7 C 4,8 km/h (1 Bft) 94,00 %
30.04.2017 04:00 1,7 C 9,4 C 96 % 1017,3 hPa 0,0 l/m 4,1 km/h (1 Bft) O 94 0 min 0,000 mm 0,0 UV-I 0 W/m 1,1 C 1,7 C 4,8 km/h (1 Bft) 98,21 %
30.04.2017 04:02 1,7 C 9,4 C 96 % 1017,3 hPa 0,0 l/m 6,3 km/h (2 Bft) O 94 0 min 0,000 mm 0,0 UV-I 0 W/m 1,1 C 1,7 C 6,4 km/h (2 Bft) 100,00 %
30.04.2017 04:04 1,7 C 9,4 C 96 % 1017,4 hPa 0,0 l/m 5,4 km/h (1 Bft) O 92 0 min 0,000 mm 0,0 UV-I 0 W/m 1,1 C 1,7 C 6,4 km/h (2 Bft) 97,87 %
30.04.2017 04:06 1,7 C 8,9 C 96 % 1017,3 hPa 0,0 l/m 4,6 km/h (1 Bft) O 90 0 min 0,000 mm 0,0 UV-I 0 W/m 1,1 C 1,7 C 6,4 km/h (2 Bft) 95,74 %
30.04.2017 04:08 1,7 C 9,4 C 96 % 1017,3 hPa 0,0 l/m 4,2 km/h (1 Bft) O 90 0 min 0,000 mm 0,0 UV-I 0 W/m 1,1 C 1,7 C 6,4 km/h (2 Bft) 93,62 %
30.04.2017 04:10 1,7 C 9,4 C 96 % 1017,3 hPa 0,0 l/m 4,5 km/h (1 Bft) O 90 0 min 0,000 mm 0,0 UV-I 0 W/m 1,1 C 1,7 C 6,4 km/h (2 Bft) 97,87 %
30.04.2017 04:12 1,7 C 8,9 C 96 % 1017,3 hPa 0,0 l/m 4,9 km/h (1 Bft) O 90 0 min 0,000 mm 0,0 UV-I 0 W/m 1,1 C 1,7 C 6,4 km/h (2 Bft) 95,74 %
30.04.2017 04:14 1,7 C 8,9 C 96 % 1017,3 hPa 0,0 l/m 5,2 km/h (1 Bft) O 86 0 min 0,000 mm 0,0 UV-I 0 W/m 1,1 C 1,7 C 8,0 km/h (2 Bft) 97,37 %
30.04.2017 04:16 1,7 C 8,9 C 96 % 1017,3 hPa 0,0 l/m 5,1 km/h (1 Bft) O-NO 75 0 min 0,000 mm 0,0 UV-I 0 W/m 1,1 C 1,7 C 6,4 km/h (2 Bft) 98,11 %
30.04.2017 04:18 1,8 C 8,9 C 96 % 1017,3 hPa 0,0 l/m 4,3 km/h (1 Bft) O-NO 73 0 min 0,000 mm 0,0 UV-I 0 W/m 1,2 C 1,8 C 8,0 km/h (2 Bft) 100,00 %
30.04.2017 04:20 1,8 C 8,9 C 96 % 1017,3 hPa 0,0 l/m 5,3 km/h (1 Bft) O-NO 64 0 min 0,000 mm 0,0 UV-I 0 W/m 1,2 C 1,8 C 8,0 km/h (2 Bft) 100,00 %
30.04.2017 04:22 1,8 C 8,9 C 96 % 1017,3 hPa 0,0 l/m 5,0 km/h (1 Bft) O-NO 68 0 min 0,000 mm 0,0 UV-I 0 W/m 1,2 C 1,8 C 6,4 km/h (2 Bft) 100,00 %
30.04.2017 04:24 1,8 C 8,9 C 96 % 1017,3 hPa 0,0 l/m 5,4 km/h (1 Bft) O-NO 61 0 min 0,000 mm 0,0 UV-I 0 W/m 1,2 C 1,8 C 8,0 km/h (2 Bft) 96,23 %
30.04.2017 04:26 1,7 C 8,9 C 96 % 1017,3 hPa 0,0 l/m 4,5 km/h (1 Bft) O-NO 61 0 min 0,000 mm 0,0 UV-I 0 W/m 1,1 C 1,7 C 6,4 km/h (2 Bft) 100,00 %
30.04.2017 04:28 1,7 C 8,9 C 96 % 1017,3 hPa 0,0 l/m 3,6 km/h (1 Bft) O-NO 61 0 min 0,000 mm 0,0 UV-I 0 W/m 1,1 C 1,7 C 6,4 km/h (2 Bft) 98,08 %
30.04.2017 04:30 1,6 C 8,9 C 96 % 1017,3 hPa 0,0 l/m 3,7 km/h (1 Bft) O-NO 61 0 min 0,000 mm 0,0 UV-I 0 W/m 1,0 C 1,6 C 4,8 km/h (1 Bft) 94,00 %
30.04.2017 04:32 1,6 C 8,9 C 96 % 1017,2 hPa 0,0 l/m 4,0 km/h (1 Bft) O-NO 61 0 min 0,000 mm 0,0 UV-I 0 W/m 1,0 C 1,6 C 6,4 km/h (2 Bft) 100,00 %
30.04.2017 04:34 1,5 C 8,9 C 96 % 1017,3 hPa 0,0 l/m 3,4 km/h (1 Bft) O-NO 61 0 min 0,000 mm 0,0 UV-I 0 W/m 0,9 C 1,5 C 6,4 km/h (2 Bft) 98,11 %
30.04.2017 04:36 1,5 C 8,9 C 96 % 1017,2 hPa 0,0 l/m 3,5 km/h (1 Bft) O-NO 61 0 min 0,000 mm 0,0 UV-I 0 W/m 0,9 C 1,5 C 4,8 km/h (1 Bft) 100,00 %
30.04.2017 04:38 1,5 C 8,9 C 96 % 1017,3 hPa 0,0 l/m 4,0 km/h (1 Bft) O-NO 61 0 min 0,000 mm 0,0 UV-I 0 W/m 0,9 C 1,5 C 4,8 km/h (1 Bft) 98,00 %
30.04.2017 04:40 1,5 C 8,9 C 97 % 1017,2 hPa 0,0 l/m 2,9 km/h (1 Bft) O-NO 61 0 min 0,000 mm 0,0 UV-I 0 W/m 1,1 C 1,5 C 6,4 km/h (2 Bft) 97,87 %
30.04.2017 04:42 1,5 C 8,9 C 97 % 1017,2 hPa 0,0 l/m 3,6 km/h (1 Bft) O-NO 61 0 min 0,000 mm 0,0 UV-I 0 W/m 1,1 C 1,5 C 4,8 km/h (1 Bft) 98,00 %
30.04.2017 04:44 1,4 C 8,9 C 96 % 1017,2 hPa 0,0 l/m 4,0 km/h (1 Bft) O-NO 61 0 min 0,000 mm 0,0 UV-I 0 W/m 0,8 C 1,4 C 6,4 km/h (2 Bft) 97,37 %
30.04.2017 04:46 1,4 C 8,9 C 96 % 1017,2 hPa 0,0 l/m 4,1 km/h (1 Bft) O-NO 61 0 min 0,000 mm 0,0 UV-I 0 W/m 0,8 C 1,4 C 4,8 km/h (1 Bft) 100,00 %
30.04.2017 04:48 1,3 C 8,9 C 96 % 1017,2 hPa 0,0 l/m 3,1 km/h (1 Bft) O-NO 61 0 min 0,000 mm 0,0 UV-I 0 W/m 0,7 C 1,3 C 4,8 km/h (1 Bft) 97,87 %
30.04.2017 04:50 1,4 C 8,9 C 96 % 1017,2 hPa 0,0 l/m 3,2 km/h (1 Bft) O-NO 61 0 min 0,000 mm 0,0 UV-I 0 W/m 0,8 C 1,4 C 4,8 km/h (1 Bft) 97,87 %
30.04.2017 04:52 1,4 C 8,9 C 96 % 1017,2 hPa 0,0 l/m 3,8 km/h (1 Bft) O-NO 61 0 min 0,000 mm 0,0 UV-I 0 W/m 0,8 C 1,4 C 4,8 km/h (1 Bft) 100,00 %
30.04.2017 04:54 1,4 C 8,9 C 96 % 1017,2 hPa 0,0 l/m 2,8 km/h (1 Bft) O-NO 61 0 min 0,000 mm 0,0 UV-I 0 W/m 0,8 C 1,4 C 4,8 km/h (1 Bft) 95,12 %
30.04.2017 04:56 1,4 C 8,9 C 96 % 1017,2 hPa 0,0 l/m 3,5 km/h (1 Bft) O-NO 61 0 min 0,000 mm 0,0 UV-I 0 W/m 0,8 C 1,4 C 4,8 km/h (1 Bft) 100,00 %
30.04.2017 04:58 1,4 C 8,9 C 97 % 1017,1 hPa 0,0 l/m 2,8 km/h (1 Bft) O-NO 61 0 min 0,000 mm 0,0 UV-I 0 W/m 1,0 C 1,4 C 4,8 km/h (1 Bft) 97,37 %
30.04.2017 05:00 1,4 C 8,9 C 97 % 1017,2 hPa 0,0 l/m 2,4 km/h (1 Bft) O-NO 61 0 min 0,000 mm 0,0 UV-I 0 W/m 1,0 C 1,4 C 3,2 km/h (1 Bft) 100,00 %
30.04.2017 05:02 1,3 C 8,9 C 97 % 1017,2 hPa 0,0 l/m 2,0 km/h (1 Bft) O-NO 61 0 min 0,000 mm 0,0 UV-I 0 W/m 0,9 C 1,3 C 3,2 km/h (1 Bft) 98,18 %
30.04.2017 05:04 1,2 C 8,9 C 96 % 1017,2 hPa 0,0 l/m 1,9 km/h (1 Bft) O-NO 61 0 min 0,000 mm 0,0 UV-I 0 W/m 0,6 C 1,2 C 3,2 km/h (1 Bft) 98,11 %
30.04.2017 05:06 1,2 C 8,9 C 96 % 1017,2 hPa 0,0 l/m 2,9 km/h (1 Bft) O-NO 61 0 min 0,000 mm 0,0 UV-I 0 W/m 0,6 C 1,2 C 4,8 km/h (1 Bft) 100,00 %
30.04.2017 05:08 1,2 C 8,9 C 96 % 1017,2 hPa 0,0 l/m 3,5 km/h (1 Bft) O-NO 61 0 min 0,000 mm 0,0 UV-I 0 W/m 0,6 C 1,2 C 4,8 km/h (1 Bft) 97,87 %
30.04.2017 05:10 1,1 C 8,9 C 96 % 1017,2 hPa 0,0 l/m 3,5 km/h (1 Bft) O-NO 61 0 min 0,000 mm 0,0 UV-I 0 W/m 0,5 C 1,1 C 4,8 km/h (1 Bft) 100,00 %
30.04.2017 05:12 1,0 C 8,9 C 96 % 1017,2 hPa 0,0 l/m 3,5 km/h (1 Bft) O-NO 61 0 min 0,000 mm 0,0 UV-I 0 W/m 0,4 C 1,0 C 4,8 km/h (1 Bft) 100,00 %
30.04.2017 05:14 0,9 C 8,9 C 96 % 1017,1 hPa 0,0 l/m 3,5 km/h (1 Bft) O-NO 61 0 min 0,000 mm 0,0 UV-I 0 W/m 0,3 C 0,9 C 4,8 km/h (1 Bft) 100,00 %
30.04.2017 05:16 0,9 C 8,9 C 97 % 1017,1 hPa 0,0 l/m 3,3 km/h (1 Bft) O-NO 61 0 min 0,000 mm 0,0 UV-I 0 W/m 0,5 C 0,9 C 6,4 km/h (2 Bft) 97,14 %
30.04.2017 05:18 1,0 C 8,9 C 97 % 1017,1 hPa 0,0 l/m 2,2 km/h (1 Bft) O-NO 61 0 min 0,000 mm 0,0 UV-I 0 W/m 0,6 C 1,0 C 3,2 km/h (1 Bft) 100,00 %
30.04.2017 05:20 1,1 C 8,9 C 97 % 1017,1 hPa 0,0 l/m 2,3 km/h (1 Bft) O-NO 61 0 min 0,000 mm 0,0 UV-I 0 W/m 0,7 C 1,1 C 3,2 km/h (1 Bft) 97,87 %
30.04.2017 05:22 1,0 C 8,9 C 97 % 1017,1 hPa 0,0 l/m 1,7 km/h (1 Bft) O-NO 61 0 min 0,000 mm 0,0 UV-I 0 W/m 0,6 C 1,0 C 3,2 km/h (1 Bft) 96,00 %
30.04.2017 05:24 0,9 C 8,9 C 97 % 1017,1 hPa 0,0 l/m 2,9 km/h (1 Bft) O-NO 61 0 min 0,000 mm 0,0 UV-I 0 W/m 0,5 C 0,9 C 4,8 km/h (1 Bft) 97,37 %
30.04.2017 05:26 0,8 C 8,9 C 97 % 1017,1 hPa 0,0 l/m 1,5 km/h (1 Bft) O-NO 61 0 min 0,000 mm 0,0 UV-I 0 W/m 0,4 C 0,8 C 3,2 km/h (1 Bft) 100,00 %
30.04.2017 05:28 0,8 C 8,9 C 96 % 1017,1 hPa 0,0 l/m 1,2 km/h (1 Bft) O-NO 61 0 min 0,000 mm 0,0 UV-I 0 W/m 0,2 C 0,8 C 3,2 km/h (1 Bft) 97,87 %
30.04.2017 05:30 0,8 C 8,9 C 97 % 1017,1 hPa 0,0 l/m 0,4 km/h (0 Bft) O-NO 61 0 min 0,000 mm 0,0 UV-I 0 W/m 0,4 C 0,8 C 1,6 km/h (1 Bft) 97,87 %
30.04.2017 05:32 0,7 C 8,9 C 97 % 1017,2 hPa 0,0 l/m 0,7 km/h (0 Bft) O-NO 61 0 min 0,000 mm 0,0 UV-I 0 W/m 0,3 C 0,7 C 1,6 km/h (1 Bft) 100,00 %
30.04.2017 05:34 0,8 C 8,9 C 97 % 1017,2 hPa 0,0 l/m 1,7 km/h (1 Bft) O-NO 61 0 min 0,000 mm 0,0 UV-I 4 W/m 0,4 C 0,8 C 3,2 km/h (1 Bft) 95,45 %
30.04.2017 05:36 0,8 C 8,9 C 97 % 1017,2 hPa 0,0 l/m 2,1 km/h (1 Bft) O-NO 61 0 min 0,000 mm 0,0 UV-I 5 W/m 0,4 C 0,8 C 3,2 km/h (1 Bft) 98,11 %
30.04.2017 05:38 0,8 C 8,9 C 97 % 1017,2 hPa 0,0 l/m 2,9 km/h (1 Bft) O-NO 61 0 min 0,000 mm 0,0 UV-I 5 W/m 0,4 C 0,8 C 4,8 km/h (1 Bft) 100,00 %
30.04.2017 05:40 0,8 C 8,9 C 97 % 1017,1 hPa 0,0 l/m 2,4 km/h (1 Bft) O-NO 61 0 min 0,000 mm 0,0 UV-I 5 W/m 0,4 C 0,8 C 3,2 km/h (1 Bft) 97,87 %
30.04.2017 05:42 0,9 C 8,9 C 97 % 1017,2 hPa 0,0 l/m 2,7 km/h (1 Bft) O-NO 61 0 min 0,000 mm 0,0 UV-I 6 W/m 0,5 C 0,9 C 4,8 km/h (1 Bft) 91,67 %
30.04.2017 05:44 0,9 C 8,9 C 97 % 1017,2 hPa 0,0 l/m 3,5 km/h (1 Bft) O-NO 61 0 min 0,000 mm 0,0 UV-I 7 W/m 0,5 C 0,9 C 4,8 km/h (1 Bft) 98,00 %
30.04.2017 05:46 0,8 C 8,9 C 97 % 1017,2 hPa 0,0 l/m 2,6 km/h (1 Bft) O-NO 61 0 min 0,000 mm 0,0 UV-I 7 W/m 0,4 C 0,8 C 3,2 km/h (1 Bft) 97,73 %
30.04.2017 05:48 0,8 C 8,9 C 97 % 1017,2 hPa 0,0 l/m 2,6 km/h (1 Bft) O-NO 61 0 min 0,000 mm 0,0 UV-I 8 W/m 0,4 C 0,8 C 4,8 km/h (1 Bft) 98,00 %
30.04.2017 05:50 0,7 C 8,9 C 97 % 1017,2 hPa 0,0 l/m 3,2 km/h (1 Bft) O-NO 61 0 min 0,000 mm 0,0 UV-I 9 W/m 0,3 C 0,7 C 4,8 km/h (1 Bft) 96,00 %
30.04.2017 05:52 0,7 C 8,9 C 97 % 1017,1 hPa 0,0 l/m 3,8 km/h (1 Bft) O-NO 61 0 min 0,000 mm 0,0 UV-I 9 W/m 0,3 C 0,7 C 4,8 km/h (1 Bft) 97,14 %
30.04.2017 05:54 0,6 C 8,9 C 97 % 1017,2 hPa 0,0 l/m 3,7 km/h (1 Bft) O-NO 61 0 min 0,000 mm 0,0 UV-I 11 W/m 0,2 C 0,6 C 4,8 km/h (1 Bft) 94,34 %
30.04.2017 05:56 0,6 C 8,9 C 97 % 1017,2 hPa 0,0 l/m 3,1 km/h (1 Bft) O-NO 61 0 min 0,000 mm 0,0 UV-I 12 W/m 0,2 C 0,6 C 4,8 km/h (1 Bft) 95,74 %
30.04.2017 05:58 0,7 C 8,9 C 97 % 1017,2 hPa 0,0 l/m 2,8 km/h (1 Bft) O-NO 61 2 min 0,000 mm 0,0 UV-I 13 W/m 0,3 C 0,7 C 4,8 km/h (1 Bft) 96,00 %
30.04.2017 06:00 0,7 C 8,9 C 97 % 1017,2 hPa 0,0 l/m 3,6 km/h (1 Bft) O-NO 61 2 min 0,000 mm 0,0 UV-I 15 W/m 0,3 C 0,7 C 6,4 km/h (2 Bft) 95,74 %
30.04.2017 06:02 0,7 C 8,9 C 97 % 1017,2 hPa 0,0 l/m 4,2 km/h (1 Bft) O-NO 61 2 min 0,000 mm 0,0 UV-I 18 W/m 0,3 C 0,7 C 4,8 km/h (1 Bft) 94,00 %
30.04.2017 06:04 0,7 C 8,9 C 97 % 1017,2 hPa 0,0 l/m 4,4 km/h (1 Bft) O-NO 61 2 min 0,000 mm 0,0 UV-I 20 W/m 0,3 C 0,7 C 6,4 km/h (2 Bft) 92,00 %
30.04.2017 06:06 0,8 C 8,9 C 97 % 1017,2 hPa 0,0 l/m 3,5 km/h (1 Bft) O-NO 61 2 min 0,000 mm 0,0 UV-I 22 W/m 0,4 C 0,8 C 4,8 km/h (1 Bft) 94,74 %
30.04.2017 06:08 0,8 C 8,9 C 97 % 1017,1 hPa 0,0 l/m 3,2 km/h (1 Bft) O-NO 61 0 min 0,000 mm 0,0 UV-I 23 W/m 0,4 C 0,8 C 4,8 km/h (1 Bft) 96,23 %
30.04.2017 06:10 0,8 C 8,9 C 97 % 1017,1 hPa 0,0 l/m 3,2 km/h (1 Bft) O-NO 61 0 min 0,000 mm 0,0 UV-I 25 W/m 0,4 C 0,8 C 4,8 km/h (1 Bft) 91,49 %
30.04.2017 06:12 0,8 C 8,9 C 97 % 1017,1 hPa 0,0 l/m 3,5 km/h (1 Bft) O-NO 61 0 min 0,000 mm 0,0 UV-I 27 W/m 0,4 C 0,8 C 4,8 km/h (1 Bft) 94,74 %
30.04.2017 06:14 0,8 C 8,9 C 97 % 1017,1 hPa 0,0 l/m 3,6 km/h (1 Bft) O-NO 61 0 min 0,000 mm 0,0 UV-I 30 W/m 0,4 C 0,8 C 4,8 km/h (1 Bft) 96,23 %
30.04.2017 06:16 0,7 C 8,9 C 97 % 1017,1 hPa 0,0 l/m 4,4 km/h (1 Bft) O-NO 61 0 min 0,000 mm 0,0 UV-I 33 W/m 0,3 C 0,7 C 6,4 km/h (2 Bft) 95,74 %
30.04.2017 06:18 0,7 C 8,9 C 97 % 1017,1 hPa 0,0 l/m 3,9 km/h (1 Bft) O-NO 61 0 min 0,000 mm 0,0 UV-I 34 W/m 0,3 C 0,7 C 4,8 km/h (1 Bft) 96,00 %
30.04.2017 06:20 0,7 C 8,9 C 97 % 1017,1 hPa 0,0 l/m 4,0 km/h (1 Bft) O-NO 61 0 min 0,000 mm 0,0 UV-I 37 W/m 0,3 C 0,7 C 6,4 km/h (2 Bft) 91,49 %
30.04.2017 06:22 0,6 C 8,9 C 97 % 1017,1 hPa 0,0 l/m 3,8 km/h (1 Bft) O-NO 61 0 min 0,000 mm 0,0 UV-I 40 W/m 0,2 C 0,6 C 6,4 km/h (2 Bft) 97,22 %
30.04.2017 06:24 0,7 C 8,9 C 97 % 1017,1 hPa 0,0 l/m 4,5 km/h (1 Bft) O-NO 61 0 min 0,000 mm 0,0 UV-I 45 W/m 0,3 C 0,7 C 6,4 km/h (2 Bft) 92,00 %
30.04.2017 06:26 0,7 C 8,9 C 97 % 1017,1 hPa 0,0 l/m 3,5 km/h (1 Bft) O-NO 61 2 min 0,000 mm 0,0 UV-I 51 W/m 0,3 C 0,7 C 4,8 km/h (1 Bft) 90,00 %
30.04.2017 06:28 0,7 C 8,9 C 97 % 1017,1 hPa 0,0 l/m 1,7 km/h (1 Bft) O-NO 61 2 min 0,000 mm 0,0 UV-I 55 W/m 0,3 C 0,7 C 3,2 km/h (1 Bft) 97,87 %
30.04.2017 06:30 0,7 C 8,9 C 97 % 1017,1 hPa 0,0 l/m 2,3 km/h (1 Bft) O-NO 61 2 min 0,000 mm 0,0 UV-I 60 W/m 0,3 C 0,7 C 3,2 km/h (1 Bft) 94,74 %
30.04.2017 06:32 0,7 C 8,9 C 97 % 1017,1 hPa 0,0 l/m 2,4 km/h (1 Bft) O-NO 61 2 min 0,000 mm 0,0 UV-I 65 W/m 0,3 C 0,7 C 4,8 km/h (1 Bft) 98,21 %
30.04.2017 06:34 0,7 C 8,9 C 97 % 1017,1 hPa 0,0 l/m 2,9 km/h (1 Bft) O-NO 61 2 min 0,000 mm 0,0 UV-I 67 W/m 0,3 C 0,7 C 4,8 km/h (1 Bft) 97,87 %
30.04.2017 06:36 0,7 C 8,9 C 97 % 1017,1 hPa 0,0 l/m 3,3 km/h (1 Bft) O-NO 61 2 min 0,000 mm 0,0 UV-I 72 W/m 0,3 C 0,7 C 4,8 km/h (1 Bft) 93,10 %
30.04.2017 06:38 0,7 C 8,9 C 97 % 1017,0 hPa 0,0 l/m 3,4 km/h (1 Bft) O-NO 61 2 min 0,000 mm 0,0 UV-I 77 W/m 0,3 C 0,7 C 6,4 km/h (2 Bft) 96,92 %
30.04.2017 06:40 0,7 C 8,9 C 97 % 1017,1 hPa 0,0 l/m 3,7 km/h (1 Bft) O-NO 61 2 min 0,000 mm 0,0 UV-I 83 W/m 0,3 C 0,7 C 6,4 km/h (2 Bft) 97,87 %
30.04.2017 06:42 0,7 C 8,9 C 97 % 1017,0 hPa 0,0 l/m 4,7 km/h (1 Bft) O-NO 61 2 min 0,000 mm 0,0 UV-I 87 W/m 0,3 C 0,7 C 6,4 km/h (2 Bft) 92,00 %
30.04.2017 06:44 0,7 C 8,9 C 97 % 1017,0 hPa 0,0 l/m 4,3 km/h (1 Bft) O-NO 61 2 min 0,000 mm 0,0 UV-I 90 W/m 0,3 C 0,7 C 6,4 km/h (2 Bft) 91,49 %
30.04.2017 06:46 0,7 C 8,9 C 97 % 1017,0 hPa 0,0 l/m 5,2 km/h (1 Bft) O-NO 61 2 min 0,000 mm 0,0 UV-I 95 W/m 0,3 C 0,7 C 6,4 km/h (2 Bft) 95,12 %
30.04.2017 06:48 0,7 C 8,9 C 97 % 1017,0 hPa 0,0 l/m 4,2 km/h (1 Bft) O-NO 61 2 min 0,000 mm 0,0 UV-I 101 W/m 0,3 C 0,7 C 6,4 km/h (2 Bft) 91,49 %
30.04.2017 06:50 0,8 C 8,9 C 97 % 1017,0 hPa 0,0 l/m 3,6 km/h (1 Bft) O-NO 61 2 min 0,000 mm 0,0 UV-I 106 W/m 0,4 C 0,8 C 6,4 km/h (2 Bft) 90,57 %
30.04.2017 06:52 0,8 C 8,9 C 97 % 1017,0 hPa 0,0 l/m 4,6 km/h (1 Bft) O-NO 61 2 min 0,000 mm 0,0 UV-I 111 W/m 0,4 C 0,8 C 6,4 km/h (2 Bft) 97,37 %
30.04.2017 06:54 0,8 C 8,9 C 97 % 1017,0 hPa 0,0 l/m 5,2 km/h (1 Bft) O-NO 61 2 min 0,000 mm 0,0 UV-I 116 W/m 0,4 C 0,8 C 6,4 km/h (2 Bft) 98,00 %
30.04.2017 06:56 0,8 C 8,9 C 97 % 1017,0 hPa 0,0 l/m 4,2 km/h (1 Bft) O-NO 58 2 min 0,000 mm 0,0 UV-I 120 W/m 0,4 C 0,8 C 6,4 km/h (2 Bft) 98,00 %
30.04.2017 06:58 0,9 C 8,9 C 97 % 1017,0 hPa 0,0 l/m 4,8 km/h (1 Bft) O-NO 58 2 min 0,000 mm 0,0 UV-I 125 W/m 0,5 C 0,9 C 6,4 km/h (2 Bft) 98,00 %
30.04.2017 07:00 0,9 C 8,9 C 97 % 1017,0 hPa 0,0 l/m 4,6 km/h (1 Bft) O-NO 58 2 min 0,025 mm 0,0 UV-I 129 W/m 0,5 C 0,9 C 6,4 km/h (2 Bft) 100,00 %
30.04.2017 07:02 1,0 C 8,9 C 97 % 1016,9 hPa 0,0 l/m 5,6 km/h (1 Bft) O-NO 58 2 min 0,000 mm 0,0 UV-I 135 W/m 0,6 C 1,0 C 8,0 km/h (2 Bft) 96,36 %
30.04.2017 07:04 1,1 C 8,9 C 97 % 1016,9 hPa 0,0 l/m 5,8 km/h (2 Bft) NO 56 2 min 0,000 mm 0,0 UV-I 140 W/m 0,7 C 1,1 C 8,0 km/h (2 Bft) 97,44 %
30.04.2017 07:06 1,2 C 8,9 C 97 % 1016,9 hPa 0,0 l/m 5,2 km/h (1 Bft) NO 55 2 min 0,000 mm 0,0 UV-I 146 W/m 0,8 C 1,2 C 8,0 km/h (2 Bft) 100,00 %
30.04.2017 07:08 1,2 C 8,9 C 97 % 1016,9 hPa 0,0 l/m 6,9 km/h (2 Bft) NO 53 2 min 0,000 mm 0,0 UV-I 150 W/m 0,8 C 0,7 C 9,7 km/h (2 Bft) 100,00 %
30.04.2017 07:10 1,3 C 8,9 C 97 % 1016,9 hPa 0,0 l/m 6,3 km/h (2 Bft) O-NO 68 2 min 0,000 mm 0,0 UV-I 156 W/m 0,9 C 1,3 C 9,7 km/h (2 Bft) 95,74 %
30.04.2017 07:12 1,4 C 8,9 C 97 % 1016,9 hPa 0,2 l/m 6,5 km/h (2 Bft) NO 51 2 min 0,000 mm 0,0 UV-I 159 W/m 1,0 C 1,3 C 8,0 km/h (2 Bft) 97,37 %
30.04.2017 07:14 1,4 C 8,9 C 97 % 1016,9 hPa 0,0 l/m 7,8 km/h (2 Bft) NO 53 2 min 0,000 mm 0,0 UV-I 164 W/m 1,0 C 0,0 C 9,7 km/h (2 Bft) 96,23 %
30.04.2017 07:16 1,6 C 8,9 C 97 % 1016,9 hPa 0,0 l/m 5,8 km/h (2 Bft) NO 54 2 min 0,000 mm 0,0 UV-I 171 W/m 1,2 C 1,6 C 8,0 km/h (2 Bft) 98,00 %
30.04.2017 07:18 1,7 C 8,9 C 97 % 1016,9 hPa 0,0 l/m 5,7 km/h (1 Bft) O-NO 66 2 min 0,000 mm 0,0 UV-I 175 W/m 1,3 C 1,7 C 8,0 km/h (2 Bft) 97,37 %
30.04.2017 07:20 1,8 C 8,9 C 97 % 1016,9 hPa 0,0 l/m 8,1 km/h (2 Bft) O 79 2 min 0,000 mm 0,0 UV-I 179 W/m 1,4 C 0,2 C 12,9 km/h (3 Bft) 96,43 %
30.04.2017 07:23 1,8 C 8,9 C 97 % 1016,9 hPa 0,0 l/m 7,7 km/h (2 Bft) O-NO 61 3 min 0,000 mm 0,0 UV-I 189 W/m 1,4 C 0,5 C 11,3 km/h (2 Bft) 100,00 %
30.04.2017 07:24 1,9 C 8,9 C 97 % 1016,9 hPa 0,0 l/m 8,8 km/h (2 Bft) O-NO 67 1 min 0,000 mm 0,0 UV-I 194 W/m 1,5 C -0,4 C 14,5 km/h (3 Bft) 100,00 %
30.04.2017 07:26 1,9 C 8,9 C 97 % 1016,9 hPa 0,0 l/m 8,9 km/h (2 Bft) O-NO 63 2 min 0,000 mm 0,0 UV-I 196 W/m 1,5 C -0,5 C 14,5 km/h (3 Bft) 97,37 %
30.04.2017 07:28 2,0 C 8,9 C 97 % 1016,9 hPa 0,0 l/m 6,4 km/h (2 Bft) O-NO 63 2 min 0,000 mm 0,0 UV-I 202 W/m 1,6 C 2,0 C 9,7 km/h (2 Bft) 98,00 %
30.04.2017 07:30 2,1 C 8,9 C 97 % 1016,9 hPa 0,0 l/m 5,2 km/h (1 Bft) O-NO 65 2 min 0,000 mm 0,0 UV-I 211 W/m 1,7 C 2,1 C 8,0 km/h (2 Bft) 100,00 %
30.04.2017 07:32 2,1 C 8,9 C 97 % 1016,9 hPa 0,0 l/m 7,8 km/h (2 Bft) O-NO 62 2 min 0,000 mm 0,0 UV-I 216 W/m 1,7 C 0,7 C 12,9 km/h (3 Bft) 92,00 %
30.04.2017 07:34 2,2 C 8,9 C 97 % 1016,9 hPa 0,0 l/m 8,4 km/h (2 Bft) O-NO 57 2 min 0,000 mm 0,0 UV-I 222 W/m 1,8 C 0,3 C 12,9 km/h (3 Bft) 92,11 %
30.04.2017 07:36 2,3 C 8,9 C 97 % 1016,9 hPa 0,0 l/m 7,1 km/h (2 Bft) O-NO 63 2 min 0,000 mm 0,0 UV-I 229 W/m 1,9 C 1,6 C 9,7 km/h (2 Bft) 100,00 %
30.04.2017 07:38 2,3 C 8,9 C 97 % 1016,9 hPa 0,0 l/m 7,3 km/h (2 Bft) NO 53 2 min 0,000 mm 0,0 UV-I 234 W/m 1,9 C 1,4 C 9,7 km/h (2 Bft) 96,00 %
30.04.2017 07:40 2,4 C 8,9 C 97 % 1016,9 hPa 0,0 l/m 8,4 km/h (2 Bft) NO 55 2 min 0,000 mm 0,0 UV-I 240 W/m 2,0 C 0,5 C 11,3 km/h (2 Bft) 93,62 %
30.04.2017 07:42 2,5 C 8,9 C 97 % 1016,9 hPa 0,0 l/m 7,8 km/h (2 Bft) O-NO 59 2 min 0,000 mm 0,0 UV-I 244 W/m 2,1 C 1,2 C 9,7 km/h (2 Bft) 97,73 %
30.04.2017 07:44 2,6 C 9,4 C 97 % 1016,9 hPa 0,0 l/m 9,0 km/h (2 Bft) NO 53 2 min 0,000 mm 0,0 UV-I 251 W/m 2,2 C 0,2 C 12,9 km/h (3 Bft) 100,00 %
30.04.2017 07:46 2,6 C 8,9 C 97 % 1016,9 hPa 0,0 l/m 8,7 km/h (2 Bft) O-NO 75 2 min 0,000 mm 0,0 UV-I 255 W/m 2,2 C 0,5 C 16,1 km/h (3 Bft) 95,24 %
30.04.2017 07:48 2,7 C 8,9 C 97 % 1016,9 hPa 0,0 l/m 7,4 km/h (2 Bft) NO 48 2 min 0,000 mm 0,0 UV-I 261 W/m 2,3 C 1,7 C 11,3 km/h (2 Bft) 97,56 %
30.04.2017 07:50 2,8 C 8,9 C 97 % 1016,9 hPa 0,0 l/m 7,6 km/h (2 Bft) NO 49 2 min 0,000 mm 0,0 UV-I 269 W/m 2,4 C 1,7 C 12,9 km/h (3 Bft) 98,21 %
30.04.2017 07:52 2,9 C 8,9 C 97 % 1016,9 hPa 0,0 l/m 10,1 km/h (2 Bft) O-NO 59 2 min 0,000 mm 0,4 UV-I 275 W/m 2,5 C -0,3 C 16,1 km/h (3 Bft) 97,44 %
30.04.2017 07:54 2,9 C 8,9 C 96 % 1016,9 hPa 0,0 l/m 11,1 km/h (2 Bft) O-NO 59 2 min 0,000 mm 0,5 UV-I 283 W/m 2,3 C -1,0 C 16,1 km/h (3 Bft) 96,00 %
30.04.2017 07:56 2,9 C 8,9 C 96 % 1016,9 hPa 0,0 l/m 11,7 km/h (2 Bft) NO 52 2 min 0,000 mm 0,5 UV-I 288 W/m 2,3 C -1,5 C 16,1 km/h (3 Bft) 98,00 %
30.04.2017 07:58 3,1 C 8,9 C 96 % 1016,9 hPa 0,0 l/m 11,5 km/h (2 Bft) O-NO 74 2 min 0,000 mm 0,5 UV-I 295 W/m 2,5 C -1,1 C 17,7 km/h (3 Bft) 92,68 %
30.04.2017 08:00 3,1 C 8,9 C 96 % 1016,9 hPa 0,0 l/m 10,8 km/h (2 Bft) O-NO 70 2 min 0,077 mm 0,5 UV-I 301 W/m 2,5 C -0,6 C 14,5 km/h (3 Bft) 96,43 %
30.04.2017 08:02 3,2 C 8,9 C 95 % 1016,9 hPa 0,0 l/m 6,2 km/h (2 Bft) NO 53 2 min 0,000 mm 0,5 UV-I 306 W/m 2,5 C 3,2 C 9,7 km/h (2 Bft) 97,22 %
30.04.2017 08:04 3,3 C 8,9 C 95 % 1016,8 hPa 0,0 l/m 9,0 km/h (2 Bft) O-NO 57 2 min 0,000 mm 0,6 UV-I 315 W/m 2,6 C 1,0 C 14,5 km/h (3 Bft) 94,74 %
30.04.2017 08:06 3,4 C 8,9 C 95 % 1016,8 hPa 0,0 l/m 10,8 km/h (2 Bft) NO 49 2 min 0,000 mm 0,6 UV-I 324 W/m 2,7 C -0,3 C 14,5 km/h (3 Bft) 98,11 %
30.04.2017 08:08 3,4 C 8,9 C 94 % 1016,8 hPa 0,0 l/m 9,3 km/h (2 Bft) O-NO 63 2 min 0,000 mm 0,6 UV-I 329 W/m 2,5 C 0,8 C 12,9 km/h (3 Bft) 94,00 %
30.04.2017 08:10 3,6 C 8,9 C 94 % 1016,8 hPa 0,0 l/m 7,7 km/h (2 Bft) O-NO 72 2 min 0,000 mm 0,6 UV-I 333 W/m 2,7 C 2,4 C 12,9 km/h (3 Bft) 98,00 %
30.04.2017 08:12 3,7 C 8,9 C 94 % 1016,8 hPa 0,0 l/m 10,7 km/h (2 Bft) NO 52 2 min 0,000 mm 0,6 UV-I 340 W/m 2,8 C 0,1 C 16,1 km/h (3 Bft) 95,83 %
30.04.2017 08:14 3,8 C 8,9 C 94 % 1016,7 hPa 0,0 l/m 9,1 km/h (2 Bft) O-NO 68 2 min 0,000 mm 0,7 UV-I 347 W/m 2,9 C 1,4 C 12,9 km/h (3 Bft) 96,00 %
30.04.2017 08:16 3,9 C 8,9 C 93 % 1016,7 hPa 0,0 l/m 10,6 km/h (2 Bft) O-NO 63 2 min 0,000 mm 0,7 UV-I 355 W/m 2,9 C 0,4 C 16,1 km/h (3 Bft) 97,56 %
30.04.2017 08:18 3,9 C 8,9 C 93 % 1016,7 hPa 0,0 l/m 8,5 km/h (2 Bft) O-NO 65 2 min 0,000 mm 0,7 UV-I 360 W/m 2,9 C 2,0 C 14,5 km/h (3 Bft) 98,11 %
30.04.2017 08:20 4,1 C 8,9 C 93 % 1016,7 hPa 0,0 l/m 7,8 km/h (2 Bft) O-NO 65 2 min 0,000 mm 0,7 UV-I 366 W/m 3,1 C 2,8 C 14,5 km/h (3 Bft) 97,44 %
30.04.2017 08:22 4,2 C 8,9 C 92 % 1016,7 hPa 0,0 l/m 9,5 km/h (2 Bft) O-NO 60 2 min 0,000 mm 0,7 UV-I 375 W/m 3,0 C 1,6 C 14,5 km/h (3 Bft) 96,23 %
30.04.2017 08:24 4,3 C 8,9 C 92 % 1016,6 hPa 0,0 l/m 12,4 km/h (3 Bft) O-NO 57 2 min 0,000 mm 0,8 UV-I 381 W/m 3,1 C -0,3 C 17,7 km/h (3 Bft) 94,87 %
30.04.2017 08:26 4,6 C 9,4 C 92 % 1016,6 hPa 0,0 l/m 12,0 km/h (2 Bft) NO 42 2 min 0,000 mm 0,8 UV-I 388 W/m 3,4 C 0,3 C 17,7 km/h (3 Bft) 96,43 %
30.04.2017 08:28 4,7 C 9,4 C 92 % 1016,7 hPa 0,0 l/m 12,7 km/h (3 Bft) O-NO 65 2 min 0,000 mm 0,8 UV-I 395 W/m 3,5 C -0,0 C 19,3 km/h (3 Bft) 97,56 %
30.04.2017 08:30 4,8 C 8,9 C 90 % 1016,6 hPa 0,0 l/m 13,1 km/h (3 Bft) O-NO 59 2 min 0,000 mm 0,9 UV-I 400 W/m 3,3 C -0,1 C 19,3 km/h (3 Bft) 96,43 %
30.04.2017 08:32 4,9 C 8,9 C 89 % 1016,6 hPa 0,0 l/m 13,1 km/h (3 Bft) O-NO 69 2 min 0,000 mm 0,9 UV-I 410 W/m 3,2 C -0,0 C 17,7 km/h (3 Bft) 93,10 %
30.04.2017 08:34 5,0 C 8,9 C 89 % 1016,5 hPa 0,0 l/m 14,8 km/h (3 Bft) O-NO 69 2 min 0,000 mm 0,9 UV-I 417 W/m 3,3 C -0,8 C 20,9 km/h (4 Bft) 100,00 %
30.04.2017 08:36 5,1 C 8,9 C 88 % 1016,5 hPa 0,0 l/m 12,3 km/h (3 Bft) O 81 2 min 0,000 mm 0,9 UV-I 423 W/m 3,3 C 0,7 C 16,1 km/h (3 Bft) 89,66 %
30.04.2017 08:40 5,4 C 9,4 C 87 % 1016,4 hPa 0,0 l/m 20,9 km/h (4 Bft) O-NO 68 4 min 0,000 mm 1,0 UV-I 442 W/m 3,4 C -3,0 C 27,4 km/h (4 Bft) 100,00 %
30.04.2017 08:42 5,5 C 8,9 C 86 % 1016,4 hPa 0,0 l/m 18,8 km/h (3 Bft) O 85 2 min 0,000 mm 1,0 UV-I 446 W/m 3,3 C -2,0 C 25,7 km/h (4 Bft) 97,37 %
30.04.2017 08:44 5,6 C 8,9 C 85 % 1016,4 hPa 0,0 l/m 18,7 km/h (3 Bft) NO 54 2 min 0,000 mm 1,0 UV-I 455 W/m 3,3 C -1,9 C 24,1 km/h (4 Bft) 94,00 %
30.04.2017 08:46 5,7 C 8,9 C 84 % 1016,4 hPa 0,0 l/m 19,8 km/h (3 Bft) O-NO 71 2 min 0,000 mm 1,1 UV-I 463 W/m 3,2 C -2,2 C 29,0 km/h (5 Bft) 96,23 %
30.04.2017 08:48 5,8 C 9,4 C 85 % 1016,4 hPa 0,0 l/m 14,6 km/h (3 Bft) NO 55 2 min 0,000 mm 1,1 UV-I 470 W/m 3,5 C 0,2 C 22,5 km/h (4 Bft) 95,12 %
30.04.2017 08:50 6,0 C 9,4 C 84 % 1016,4 hPa 0,0 l/m 16,5 km/h (3 Bft) NO 47 2 min 0,000 mm 1,1 UV-I 477 W/m 3,5 C -0,4 C 22,5 km/h (4 Bft) 94,34 %
30.04.2017 08:52 6,1 C 9,4 C 84 % 1016,4 hPa 0,0 l/m 17,3 km/h (3 Bft) O-NO 73 2 min 0,000 mm 1,2 UV-I 483 W/m 3,6 C -0,7 C 24,1 km/h (4 Bft) 91,49 %
30.04.2017 08:54 6,2 C 9,4 C 84 % 1016,4 hPa 0,0 l/m 18,2 km/h (3 Bft) O-NO 72 2 min 0,000 mm 1,2 UV-I 490 W/m 3,7 C -0,9 C 25,7 km/h (4 Bft) 95,12 %
30.04.2017 08:56 6,3 C 9,4 C 82 % 1016,4 hPa 0,0 l/m 17,7 km/h (3 Bft) NO 48 2 min 0,000 mm 1,2 UV-I 495 W/m 3,5 C -0,6 C 25,7 km/h (4 Bft) 96,43 %
30.04.2017 08:58 6,4 C 9,4 C 84 % 1016,4 hPa 0,0 l/m 16,8 km/h (3 Bft) O-NO 60 2 min 0,000 mm 1,2 UV-I 499 W/m 3,9 C -0,1 C 29,0 km/h (5 Bft) 94,74 %
30.04.2017 09:00 6,6 C 9,4 C 82 % 1016,3 hPa 0,0 l/m 19,2 km/h (3 Bft) O 80 2 min 0,177 mm 1,3 UV-I 506 W/m 3,8 C -0,8 C 27,4 km/h (4 Bft) 96,43 %
30.04.2017 09:02 6,7 C 8,9 C 81 % 1016,4 hPa 0,0 l/m 22,1 km/h (4 Bft) O 84 2 min 0,000 mm 1,3 UV-I 511 W/m 3,7 C -1,7 C 33,8 km/h (5 Bft) 94,87 %
30.04.2017 09:04 6,8 C 9,4 C 81 % 1016,3 hPa 0,0 l/m 20,4 km/h (4 Bft) NO 38 2 min 0,000 mm 1,3 UV-I 518 W/m 3,8 C -1,0 C 27,4 km/h (4 Bft) 92,73 %
30.04.2017 09:06 7,0 C 9,4 C 80 % 1016,4 hPa 0,0 l/m 18,4 km/h (3 Bft) NO 53 2 min 0,000 mm 1,3 UV-I 524 W/m 3,8 C 0,0 C 25,7 km/h (4 Bft) 95,74 %
30.04.2017 09:08 7,1 C 9,4 C 79 % 1016,4 hPa 0,0 l/m 19,7 km/h (3 Bft) O-NO 61 2 min 0,000 mm 1,4 UV-I 528 W/m 3,7 C -0,3 C 27,4 km/h (4 Bft) 97,22 %
30.04.2017 09:10 7,2 C 9,4 C 79 % 1016,3 hPa 0,0 l/m 21,1 km/h (4 Bft) O-NO 68 2 min 0,000 mm 1,4 UV-I 535 W/m 3,8 C -0,7 C 29,0 km/h (5 Bft) 96,43 %
30.04.2017 09:12 7,3 C 9,4 C 78 % 1016,4 hPa 0,0 l/m 20,3 km/h (4 Bft) NO 55 2 min 0,000 mm 1,4 UV-I 539 W/m 3,7 C -0,3 C 29,0 km/h (5 Bft) 94,29 %
30.04.2017 09:14 7,4 C 9,4 C 78 % 1016,4 hPa 0,0 l/m 22,0 km/h (4 Bft) NO 53 2 min 0,000 mm 1,4 UV-I 544 W/m 3,8 C -0,8 C 32,2 km/h (5 Bft) 92,86 %
30.04.2017 09:16 7,5 C 9,4 C 78 % 1016,4 hPa 0,0 l/m 21,8 km/h (4 Bft) O-NO 65 2 min 0,000 mm 1,5 UV-I 549 W/m 3,9 C -0,6 C 35,4 km/h (5 Bft) 96,00 %
30.04.2017 09:18 7,6 C 9,4 C 78 % 1016,4 hPa 0,0 l/m 23,9 km/h (4 Bft) O 89 2 min 0,000 mm 1,5 UV-I 554 W/m 4,0 C -1,1 C 30,6 km/h (5 Bft) 95,12 %
30.04.2017 09:20 7,7 C 9,4 C 77 % 1016,4 hPa 0,0 l/m 20,2 km/h (4 Bft) O-NO 59 2 min 0,000 mm 1,5 UV-I 561 W/m 3,9 C 0,2 C 27,4 km/h (4 Bft) 98,11 %
30.04.2017 09:22 7,8 C 9,4 C 78 % 1016,4 hPa 0,0 l/m 20,0 km/h (4 Bft) O 82 2 min 0,000 mm 1,6 UV-I 566 W/m 4,2 C 0,4 C 30,6 km/h (5 Bft) 97,37 %
30.04.2017 09:24 7,8 C 9,4 C 77 % 1016,4 hPa 0,0 l/m 18,3 km/h (3 Bft) NO 43 2 min 0,000 mm 1,6 UV-I 572 W/m 4,0 C 1,1 C 25,7 km/h (4 Bft) 98,21 %
30.04.2017 09:26 7,9 C 9,4 C 78 % 1016,3 hPa 0,0 l/m 19,3 km/h (3 Bft) O-NO 73 2 min 0,000 mm 1,6 UV-I 576 W/m 4,3 C 0,8 C 29,0 km/h (5 Bft) 86,84 %
30.04.2017 09:28 8,0 C 9,4 C 77 % 1016,4 hPa 0,0 l/m 19,1 km/h (3 Bft) NO 42 2 min 0,000 mm 1,7 UV-I 582 W/m 4,2 C 1,0 C 25,7 km/h (4 Bft) 97,87 %
30.04.2017 09:30 8,1 C 9,4 C 78 % 1016,3 hPa 0,0 l/m 20,4 km/h (4 Bft) O-NO 67 2 min 0,000 mm 1,7 UV-I 586 W/m 4,5 C 0,7 C 25,7 km/h (4 Bft) 95,45 %
30.04.2017 09:32 8,2 C 9,4 C 77 % 1016,3 hPa 0,0 l/m 21,2 km/h (4 Bft) O-NO 57 2 min 0,000 mm 1,7 UV-I 593 W/m 4,4 C 0,6 C 32,2 km/h (5 Bft) 100,00 %
30.04.2017 09:34 8,2 C 9,4 C 76 % 1016,3 hPa 0,0 l/m 26,8 km/h (4 Bft) NO 46 2 min 0,000 mm 1,8 UV-I 598 W/m 4,2 C -1,1 C 37,0 km/h (5 Bft) 100,00 %
30.04.2017 09:36 8,2 C 9,4 C 75 % 1016,3 hPa 0,0 l/m 25,7 km/h (4 Bft) NO 48 2 min 0,000 mm 1,8 UV-I 601 W/m 4,0 C -0,8 C 35,4 km/h (5 Bft) 97,50 %
30.04.2017 09:38 8,2 C 9,4 C 75 % 1016,2 hPa 0,0 l/m 24,8 km/h (4 Bft) O-NO 71 2 min 0,000 mm 1,8 UV-I 606 W/m 4,0 C -0,6 C 33,8 km/h (5 Bft) 94,83 %
30.04.2017 09:40 8,3 C 9,4 C 75 % 1016,2 hPa 0,0 l/m 25,2 km/h (4 Bft) NO 50 2 min 0,000 mm 1,9 UV-I 613 W/m 4,1 C -0,5 C 35,4 km/h (5 Bft) 100,00 %
30.04.2017 09:42 8,3 C 9,4 C 74 % 1016,2 hPa 0,0 l/m 24,2 km/h (4 Bft) O-NO 77 2 min 0,000 mm 1,9 UV-I 620 W/m 3,9 C -0,2 C 37,0 km/h (5 Bft) 100,00 %
30.04.2017 09:44 8,4 C 9,4 C 74 % 1016,2 hPa 0,0 l/m 27,3 km/h (4 Bft) O-NO 61 2 min 0,000 mm 1,9 UV-I 623 W/m 4,0 C -0,9 C 37,0 km/h (5 Bft) 95,38 %
30.04.2017 09:46 8,4 C 9,4 C 74 % 1016,1 hPa 0,0 l/m 22,1 km/h (4 Bft) O-NO 57 2 min 0,000 mm 2,0 UV-I 628 W/m 4,0 C 0,5 C 33,8 km/h (5 Bft) 100,00 %
30.04.2017 09:48 8,5 C 9,4 C 74 % 1016,1 hPa 0,0 l/m 26,8 km/h (4 Bft) NO 40 2 min 0,000 mm 2,0 UV-I 634 W/m 4,1 C -0,7 C 38,6 km/h (5 Bft) 97,78 %
30.04.2017 09:50 8,6 C 9,4 C 73 % 1016,1 hPa 0,0 l/m 27,9 km/h (4 Bft) NO 50 2 min 0,000 mm 2,0 UV-I 638 W/m 4,0 C -0,8 C 38,6 km/h (5 Bft) 93,62 %
30.04.2017 09:52 8,7 C 9,4 C 74 % 1016,1 hPa 0,0 l/m 25,2 km/h (4 Bft) NO 49 2 min 0,000 mm 2,1 UV-I 642 W/m 4,3 C 0,0 C 37,0 km/h (5 Bft) 97,37 %
30.04.2017 09:54 8,8 C 9,4 C 72 % 1016,0 hPa 0,0 l/m 23,0 km/h (4 Bft) NO 37 2 min 0,000 mm 2,1 UV-I 648 W/m 4,0 C 0,8 C 32,2 km/h (5 Bft) 95,83 %
30.04.2017 09:56 9,0 C 9,4 C 73 % 1016,0 hPa 0,0 l/m 21,1 km/h (4 Bft) O-NO 67 2 min 0,000 mm 2,1 UV-I 652 W/m 4,4 C 1,6 C 30,6 km/h (5 Bft) 93,62 %
30.04.2017 09:58 9,2 C 9,4 C 73 % 1015,9 hPa 0,0 l/m 21,3 km/h (4 Bft) NO 55 2 min 0,000 mm 2,2 UV-I 658 W/m 4,6 C 1,8 C 30,6 km/h (5 Bft) 90,57 %
30.04.2017 10:00 9,3 C 9,4 C 72 % 1015,9 hPa 0,0 l/m 21,3 km/h (4 Bft) NO 53 2 min 0,000 mm 2,2 UV-I 665 W/m 4,5 C 2,0 C 30,6 km/h (5 Bft) 85,37 %
30.04.2017 10:02 9,3 C 9,4 C 70 % 1015,9 hPa 0,0 l/m 24,2 km/h (4 Bft) O-NO 73 2 min 0,305 mm 2,2 UV-I 673 W/m 4,1 C 1,1 C 32,2 km/h (5 Bft) 96,43 %
30.04.2017 10:04 9,3 C 9,4 C 71 % 1015,9 hPa 0,0 l/m 19,2 km/h (3 Bft) O 82 2 min 0,000 mm 2,3 UV-I 679 W/m 4,3 C 2,7 C 27,4 km/h (4 Bft) 95,74 %
30.04.2017 10:06 9,5 C 9,4 C 73 % 1015,9 hPa 0,0 l/m 16,8 km/h (3 Bft) NO 46 2 min 0,000 mm 2,3 UV-I 684 W/m 4,9 C 3,8 C 24,1 km/h (4 Bft) 97,44 %
30.04.2017 10:08 9,8 C 9,4 C 73 % 1015,8 hPa 0,0 l/m 19,4 km/h (3 Bft) NO 46 2 min 0,000 mm 2,3 UV-I 685 W/m 5,2 C 3,2 C 33,8 km/h (5 Bft) 95,74 %
30.04.2017 10:10 10,1 C 9,4 C 73 % 1015,8 hPa 0,0 l/m 22,3 km/h (4 Bft) O-NO 61 2 min 0,000 mm 2,4 UV-I 686 W/m 5,5 C 2,7 C 29,0 km/h (5 Bft) 98,11 %
30.04.2017 10:12 10,2 C 9,4 C 70 % 1015,8 hPa 0,0 l/m 23,5 km/h (4 Bft) O-NO 58 2 min 0,000 mm 2,4 UV-I 690 W/m 5,0 C 2,5 C 35,4 km/h (5 Bft) 90,24 %
30.04.2017 10:14 10,1 C 9,4 C 68 % 1015,8 hPa 0,0 l/m 27,0 km/h (4 Bft) O-NO 71 2 min 0,000 mm 2,5 UV-I 698 W/m 4,5 C 1,5 C 35,4 km/h (5 Bft) 96,00 %
30.04.2017 10:16 10,1 C 9,4 C 68 % 1015,8 hPa 0,0 l/m 27,2 km/h (4 Bft) O-NO 66 2 min 0,000 mm 2,5 UV-I 703 W/m 4,5 C 1,4 C 35,4 km/h (5 Bft) 98,00 %
30.04.2017 10:18 10,0 C 9,4 C 69 % 1015,8 hPa 0,0 l/m 26,1 km/h (4 Bft) O-NO 59 2 min 0,000 mm 2,5 UV-I 703 W/m 4,6 C 1,6 C 32,2 km/h (5 Bft) 93,62 %
30.04.2017 10:20 10,1 C 9,4 C 68 % 1015,7 hPa 0,0 l/m 26,8 km/h (4 Bft) N-NO 28 2 min 0,000 mm 2,6 UV-I 707 W/m 4,5 C 1,5 C 38,6 km/h (5 Bft) 100,00 %
30.04.2017 10:22 10,1 C 9,4 C 67 % 1015,7 hPa 0,0 l/m 25,7 km/h (4 Bft) NO 44 2 min 0,000 mm 2,6 UV-I 709 W/m 4,3 C 1,8 C 32,2 km/h (5 Bft) 97,44 %
30.04.2017 10:24 10,1 C 9,4 C 67 % 1015,7 hPa 0,0 l/m 26,5 km/h (4 Bft) NO 51 2 min 0,000 mm 2,6 UV-I 713 W/m 4,3 C 1,6 C 32,2 km/h (5 Bft) 98,00 %
30.04.2017 10:26 10,1 C 9,4 C 66 % 1015,7 hPa 0,0 l/m 21,0 km/h (4 Bft) O-NO 59 2 min 0,000 mm 2,7 UV-I 718 W/m 4,0 C 3,1 C 30,6 km/h (5 Bft) 98,11 %
30.04.2017 10:28 10,2 C 9,4 C 69 % 1015,7 hPa 0,0 l/m 25,3 km/h (4 Bft) O-NO 74 2 min 0,000 mm 2,7 UV-I 722 W/m 4,8 C 2,0 C 32,2 km/h (5 Bft) 97,37 %
30.04.2017 10:30 10,2 C 9,4 C 66 % 1015,7 hPa 0,0 l/m 26,9 km/h (4 Bft) NO 55 2 min 0,000 mm 2,7 UV-I 729 W/m 4,1 C 1,6 C 37,0 km/h (5 Bft) 94,74 %
30.04.2017 10:32 10,3 C 9,4 C 67 % 1015,6 hPa 0,0 l/m 25,7 km/h (4 Bft) O-NO 68 2 min 0,000 mm 2,8 UV-I 737 W/m 4,4 C 2,1 C 35,4 km/h (5 Bft) 100,00 %
30.04.2017 10:34 10,4 C 9,4 C 65 % 1015,6 hPa 0,0 l/m 22,5 km/h (4 Bft) O-NO 69 2 min 0,000 mm 2,8 UV-I 740 W/m 4,1 C 3,0 C 30,6 km/h (5 Bft) 98,11 %
30.04.2017 10:36 10,4 C 9,4 C 66 % 1015,6 hPa 0,0 l/m 24,3 km/h (4 Bft) NO 55 2 min 0,000 mm 2,9 UV-I 744 W/m 4,3 C 2,6 C 29,0 km/h (5 Bft) 97,56 %
30.04.2017 10:38 10,5 C 9,4 C 66 % 1015,6 hPa 0,0 l/m 22,5 km/h (4 Bft) O-NO 71 2 min 0,000 mm 2,9 UV-I 748 W/m 4,4 C 3,2 C 30,6 km/h (5 Bft) 98,11 %
30.04.2017 10:40 10,6 C 9,4 C 64 % 1015,6 hPa 0,0 l/m 26,9 km/h (4 Bft) O-NO 74 2 min 0,000 mm 2,9 UV-I 751 W/m 4,1 C 2,2 C 35,4 km/h (5 Bft) 100,00 %
30.04.2017 10:42 10,6 C 9,4 C 65 % 1015,6 hPa 0,0 l/m 24,1 km/h (4 Bft) O-NO 76 2 min 0,000 mm 3,0 UV-I 753 W/m 4,3 C 2,9 C 35,4 km/h (5 Bft) 96,61 %
30.04.2017 10:44 10,6 C 9,4 C 64 % 1015,6 hPa 0,0 l/m 26,3 km/h (4 Bft) O-NO 70 2 min 0,000 mm 3,0 UV-I 759 W/m 4,1 C 2,3 C 33,8 km/h (5 Bft) 97,56 %
30.04.2017 10:46 10,6 C 9,4 C 65 % 1015,6 hPa 0,0 l/m 20,5 km/h (4 Bft) N-NO 33 2 min 0,000 mm 3,0 UV-I 763 W/m 4,3 C 3,9 C 29,0 km/h (5 Bft) 96,23 %
30.04.2017 10:48 10,8 C 9,4 C 66 % 1015,5 hPa 0,0 l/m 17,5 km/h (3 Bft) O-NO 58 2 min 0,000 mm 3,1 UV-I 766 W/m 4,7 C 5,2 C 24,1 km/h (4 Bft) 95,74 %
30.04.2017 10:50 11,1 C 9,4 C 64 % 1015,5 hPa 0,0 l/m 23,7 km/h (4 Bft) O-NO 65 2 min 0,000 mm 3,1 UV-I 772 W/m 4,6 C 3,7 C 32,2 km/h (5 Bft) 100,00 %
30.04.2017 10:52 11,1 C 9,4 C 64 % 1015,5 hPa 0,0 l/m 23,6 km/h (4 Bft) NO 45 2 min 0,000 mm 3,1 UV-I 774 W/m 4,6 C 3,7 C 32,2 km/h (5 Bft) 100,00 %
30.04.2017 10:54 11,0 C 9,4 C 64 % 1015,5 hPa 0,0 l/m 20,5 km/h (4 Bft) O-NO 57 2 min 0,000 mm 3,2 UV-I 777 W/m 4,5 C 4,4 C 29,0 km/h (5 Bft) 100,00 %
30.04.2017 10:56 10,9 C 9,4 C 63 % 1015,5 hPa 0,0 l/m 25,9 km/h (4 Bft) NO 46 2 min 0,000 mm 3,2 UV-I 781 W/m 4,1 C 2,8 C 30,6 km/h (5 Bft) 100,00 %
30.04.2017 10:58 10,9 C 9,4 C 64 % 1015,4 hPa 0,0 l/m 20,0 km/h (4 Bft) NO 38 2 min 0,000 mm 3,2 UV-I 780 W/m 4,4 C 4,4 C 29,0 km/h (5 Bft) 100,00 %
30.04.2017 11:00 11,0 C 9,4 C 63 % 1015,4 hPa 0,0 l/m 20,9 km/h (4 Bft) O-NO 66 2 min 0,000 mm 3,2 UV-I 780 W/m 4,2 C 4,3 C 30,6 km/h (5 Bft) 94,87 %
30.04.2017 11:02 11,1 C 9,4 C 64 % 1015,4 hPa 0,0 l/m 24,9 km/h (4 Bft) O-NO 63 2 min 0,407 mm 3,3 UV-I 785 W/m 4,6 C 3,3 C 35,4 km/h (5 Bft) 100,00 %
30.04.2017 11:04 11,2 C 9,4 C 61 % 1015,5 hPa 0,0 l/m 24,3 km/h (4 Bft) O-NO 58 2 min 0,000 mm 3,3 UV-I 784 W/m 4,0 C 3,6 C 32,2 km/h (5 Bft) 92,31 %
30.04.2017 11:06 11,2 C 9,4 C 61 % 1015,4 hPa 0,0 l/m 27,7 km/h (4 Bft) O-NO 71 2 min 0,000 mm 3,3 UV-I 794 W/m 4,0 C 2,8 C 37,0 km/h (5 Bft) 98,21 %
30.04.2017 11:08 11,2 C 9,4 C 62 % 1015,4 hPa 0,0 l/m 25,7 km/h (4 Bft) N-NO 32 2 min 0,000 mm 3,3 UV-I 791 W/m 4,2 C 3,3 C 32,2 km/h (5 Bft) 97,87 %
30.04.2017 11:10 11,2 C 9,4 C 62 % 1015,3 hPa 0,0 l/m 23,2 km/h (4 Bft) NO 39 2 min 0,000 mm 3,4 UV-I 798 W/m 4,2 C 3,9 C 29,0 km/h (5 Bft) 97,37 %
30.04.2017 11:12 11,3 C 9,4 C 61 % 1015,3 hPa 0,0 l/m 24,0 km/h (4 Bft) O-NO 59 2 min 0,000 mm 3,4 UV-I 802 W/m 4,1 C 3,8 C 32,2 km/h (5 Bft) 98,21 %
30.04.2017 11:14 11,4 C 9,4 C 60 % 1015,3 hPa 0,0 l/m 20,4 km/h (4 Bft) O-NO 66 2 min 0,000 mm 3,5 UV-I 808 W/m 3,9 C 5,0 C 29,0 km/h (5 Bft) 95,74 %
30.04.2017 11:16 11,6 C 9,4 C 62 % 1015,2 hPa 0,0 l/m 21,3 km/h (4 Bft) NO 49 2 min 0,000 mm 3,5 UV-I 811 W/m 4,6 C 5,0 C 33,8 km/h (5 Bft) 97,37 %
30.04.2017 11:18 11,7 C 9,4 C 62 % 1015,2 hPa 0,0 l/m 22,6 km/h (4 Bft) O 82 2 min 0,000 mm 3,6 UV-I 816 W/m 4,7 C 4,7 C 32,2 km/h (5 Bft) 100,00 %
30.04.2017 11:20 11,7 C 9,4 C 63 % 1015,2 hPa 0,0 l/m 19,4 km/h (3 Bft) O 85 2 min 0,000 mm 3,6 UV-I 819 W/m 4,9 C 5,7 C 27,4 km/h (4 Bft) 98,00 %
30.04.2017 11:22 11,8 C 9,4 C 60 % 1015,2 hPa 0,0 l/m 21,0 km/h (4 Bft) NO 55 2 min 0,000 mm 3,6 UV-I 818 W/m 4,3 C 5,3 C 25,7 km/h (4 Bft) 94,29 %
30.04.2017 11:24 11,9 C 9,4 C 60 % 1015,2 hPa 0,0 l/m 22,3 km/h (4 Bft) O 88 2 min 0,000 mm 3,6 UV-I 820 W/m 4,4 C 5,1 C 32,2 km/h (5 Bft) 98,11 %
30.04.2017 11:26 11,9 C 9,4 C 60 % 1015,3 hPa 0,0 l/m 21,7 km/h (4 Bft) NO 45 2 min 0,000 mm 3,7 UV-I 824 W/m 4,4 C 5,3 C 30,6 km/h (5 Bft) 100,00 %
30.04.2017 11:28 11,9 C 9,4 C 60 % 1015,2 hPa 0,0 l/m 22,1 km/h (4 Bft) O-NO 59 2 min 0,000 mm 3,7 UV-I 826 W/m 4,4 C 5,1 C 32,2 km/h (5 Bft) 100,00 %
30.04.2017 11:30 11,9 C 9,4 C 58 % 1015,2 hPa 0,0 l/m 25,1 km/h (4 Bft) O-NO 63 2 min 0,000 mm 3,7 UV-I 828 W/m 3,9 C 4,4 C 35,4 km/h (5 Bft) 98,00 %
30.04.2017 11:32 11,9 C 9,4 C 59 % 1015,1 hPa 0,0 l/m 22,4 km/h (4 Bft) NO 38 2 min 0,000 mm 3,8 UV-I 832 W/m 4,1 C 5,1 C 35,4 km/h (5 Bft) 95,74 %
30.04.2017 11:34 12,0 C 9,4 C 60 % 1015,1 hPa 0,0 l/m 21,5 km/h (4 Bft) NO 55 2 min 0,000 mm 3,8 UV-I 831 W/m 4,5 C 5,4 C 29,0 km/h (5 Bft) 97,37 %
30.04.2017 11:36 12,1 C 9,4 C 59 % 1015,1 hPa 0,0 l/m 25,2 km/h (4 Bft) NO 53 2 min 0,000 mm 3,8 UV-I 834 W/m 4,3 C 4,6 C 30,6 km/h (5 Bft) 97,87 %
30.04.2017 11:38 12,1 C 9,4 C 59 % 1015,1 hPa 0,0 l/m 24,0 km/h (4 Bft) NO 51 2 min 0,000 mm 3,8 UV-I 839 W/m 4,3 C 4,9 C 33,8 km/h (5 Bft) 98,11 %
30.04.2017 11:40 12,2 C 9,4 C 61 % 1015,2 hPa 0,0 l/m 24,8 km/h (4 Bft) O-NO 58 2 min 0,000 mm 3,9 UV-I 843 W/m 4,9 C 4,9 C 32,2 km/h (5 Bft) 96,00 %
30.04.2017 11:42 12,3 C 9,4 C 60 % 1015,2 hPa 0,0 l/m 17,5 km/h (3 Bft) O-NO 61 2 min 0,000 mm 3,9 UV-I 847 W/m 4,8 C 7,0 C 24,1 km/h (4 Bft) 100,00 %
30.04.2017 11:44 12,4 C 9,4 C 59 % 1015,2 hPa 0,0 l/m 18,9 km/h (3 Bft) NO 56 2 min 0,000 mm 3,9 UV-I 845 W/m 4,6 C 6,7 C 29,0 km/h (5 Bft) 97,06 %
30.04.2017 11:46 12,5 C 9,4 C 59 % 1015,1 hPa 0,0 l/m 22,6 km/h (4 Bft) O-NO 64 2 min 0,000 mm 3,9 UV-I 846 W/m 4,7 C 5,8 C 32,2 km/h (5 Bft) 97,37 %
30.04.2017 11:48 12,5 C 9,4 C 57 % 1015,2 hPa 0,0 l/m 20,3 km/h (4 Bft) NO 44 2 min 0,000 mm 3,9 UV-I 841 W/m 4,2 C 6,4 C 30,6 km/h (5 Bft) 96,00 %
30.04.2017 11:50 12,5 C 9,4 C 56 % 1015,1 hPa 0,0 l/m 24,7 km/h (4 Bft) NO 44 2 min 0,000 mm 4,0 UV-I 851 W/m 4,0 C 5,3 C 30,6 km/h (5 Bft) 97,56 %
30.04.2017 11:52 12,5 C 9,4 C 57 % 1015,1 hPa 0,0 l/m 20,9 km/h (4 Bft) O-NO 63 2 min 0,000 mm 3,9 UV-I 845 W/m 4,2 C 6,3 C 29,0 km/h (5 Bft) 96,23 %
30.04.2017 11:54 12,5 C 9,4 C 56 % 1015,1 hPa 0,0 l/m 23,5 km/h (4 Bft) O-NO 61 2 min 0,000 mm 4,0 UV-I 854 W/m 4,0 C 5,6 C 33,8 km/h (5 Bft) 97,56 %
30.04.2017 11:56 12,6 C 9,4 C 54 % 1015,1 hPa 0,0 l/m 20,8 km/h (4 Bft) O-NO 59 2 min 0,000 mm 4,0 UV-I 853 W/m 3,5 C 6,4 C 30,6 km/h (5 Bft) 98,00 %
30.04.2017 11:58 12,6 C 9,4 C 56 % 1015,0 hPa 0,0 l/m 20,4 km/h (4 Bft) NO 38 2 min 0,000 mm 4,1 UV-I 862 W/m 4,1 C 6,5 C 29,0 km/h (5 Bft) 96,00 %
30.04.2017 12:00 12,8 C 9,4 C 58 % 1015,1 hPa 0,0 l/m 20,6 km/h (4 Bft) NO 49 2 min 0,000 mm 4,1 UV-I 861 W/m 4,7 C 6,7 C 29,0 km/h (5 Bft) 98,00 %
30.04.2017 12:02 12,9 C 9,4 C 55 % 1015,0 hPa 0,0 l/m 24,2 km/h (4 Bft) O-NO 57 2 min 0,508 mm 4,1 UV-I 863 W/m 4,1 C 5,9 C 33,8 km/h (5 Bft) 100,00 %
30.04.2017 12:04 12,8 C 9,4 C 54 % 1015,0 hPa 0,0 l/m 21,6 km/h (4 Bft) NO 46 2 min 0,000 mm 4,1 UV-I 862 W/m 3,7 C 6,5 C 30,6 km/h (5 Bft) 94,00 %
30.04.2017 12:06 12,9 C 9,4 C 56 % 1014,9 hPa 0,0 l/m 15,4 km/h (3 Bft) NO 35 2 min 0,000 mm 4,1 UV-I 866 W/m 4,3 C 8,5 C 30,6 km/h (5 Bft) 92,68 %
30.04.2017 12:08 13,1 C 9,4 C 56 % 1014,9 hPa 0,0 l/m 19,2 km/h (3 Bft) O 90 2 min 0,000 mm 4,1 UV-I 866 W/m 4,5 C 7,5 C 32,2 km/h (5 Bft) 100,00 %
30.04.2017 12:10 13,2 C 9,4 C 57 % 1014,9 hPa 0,0 l/m 18,8 km/h (3 Bft) O-NO 61 2 min 0,000 mm 4,2 UV-I 868 W/m 4,9 C 7,8 C 25,7 km/h (4 Bft) 97,56 %
30.04.2017 12:12 13,2 C 9,4 C 55 % 1014,8 hPa 0,0 l/m 15,8 km/h (3 Bft) O 86 2 min 0,000 mm 4,2 UV-I 872 W/m 4,4 C 8,7 C 25,7 km/h (4 Bft) 92,86 %
30.04.2017 12:14 13,2 C 9,4 C 54 % 1014,7 hPa 0,0 l/m 19,4 km/h (3 Bft) N-NO 32 2 min 0,000 mm 4,2 UV-I 873 W/m 4,1 C 7,6 C 29,0 km/h (5 Bft) 95,12 %
30.04.2017 12:16 13,2 C 10,0 C 54 % 1014,7 hPa 0,0 l/m 20,4 km/h (4 Bft) NO 38 2 min 0,000 mm 4,2 UV-I 869 W/m 4,1 C 7,3 C 35,4 km/h (5 Bft) 97,87 %
30.04.2017 12:18 13,4 C 10,0 C 57 % 1014,8 hPa 0,0 l/m 22,6 km/h (4 Bft) O-NO 67 2 min 0,000 mm 4,2 UV-I 874 W/m 5,1 C 7,0 C 32,2 km/h (5 Bft) 94,34 %
30.04.2017 12:20 13,4 C 10,0 C 53 % 1014,7 hPa 0,0 l/m 24,1 km/h (4 Bft) O-NO 65 2 min 0,000 mm 4,2 UV-I 877 W/m 4,0 C 6,6 C 32,2 km/h (5 Bft) 89,36 %
30.04.2017 12:22 13,3 C 10,0 C 54 % 1014,8 hPa 0,0 l/m 21,2 km/h (4 Bft) O 90 2 min 0,000 mm 4,3 UV-I 881 W/m 4,2 C 7,2 C 27,4 km/h (4 Bft) 94,87 %
30.04.2017 12:24 13,2 C 10,0 C 52 % 1014,7 hPa 0,0 l/m 22,7 km/h (4 Bft) O-NO 71 2 min 0,000 mm 4,3 UV-I 881 W/m 3,6 C 6,7 C 30,6 km/h (5 Bft) 96,43 %
30.04.2017 12:26 13,2 C 10,0 C 52 % 1014,7 hPa 0,0 l/m 21,2 km/h (4 Bft) O 80 2 min 0,000 mm 4,3 UV-I 885 W/m 3,6 C 7,1 C 30,6 km/h (5 Bft) 92,11 %
30.04.2017 12:28 13,3 C 10,0 C 53 % 1014,7 hPa 0,0 l/m 19,7 km/h (3 Bft) O 82 2 min 0,000 mm 4,3 UV-I 882 W/m 3,9 C 7,6 C 27,4 km/h (4 Bft) 91,07 %
30.04.2017 12:30 13,4 C 10,0 C 54 % 1014,6 hPa 0,0 l/m 18,5 km/h (3 Bft) NO 46 2 min 0,000 mm 4,3 UV-I 877 W/m 4,3 C 8,1 C 25,7 km/h (4 Bft) 86,84 %
30.04.2017 12:32 13,5 C 10,0 C 53 % 1014,7 hPa 0,0 l/m 21,6 km/h (4 Bft) NO 42 2 min 0,000 mm 4,3 UV-I 882 W/m 4,1 C 7,4 C 32,2 km/h (5 Bft) 90,57 %
30.04.2017 12:34 13,6 C 10,0 C 58 % 1014,6 hPa 0,0 l/m 24,1 km/h (4 Bft) O-NO 63 2 min 0,000 mm 4,3 UV-I 878 W/m 5,5 C 6,9 C 37,0 km/h (5 Bft) 90,24 %
30.04.2017 12:36 13,7 C 10,0 C 55 % 1014,6 hPa 0,0 l/m 20,8 km/h (4 Bft) O-NO 75 2 min 0,000 mm 4,3 UV-I 879 W/m 4,8 C 7,9 C 29,0 km/h (5 Bft) 98,00 %
30.04.2017 12:38 13,7 C 10,0 C 56 % 1014,6 hPa 0,0 l/m 19,6 km/h (3 Bft) N-NO 33 2 min 0,000 mm 4,3 UV-I 879 W/m 5,1 C 8,2 C 32,2 km/h (5 Bft) 98,11 %
30.04.2017 12:40 13,8 C 10,0 C 57 % 1014,5 hPa 0,0 l/m 21,7 km/h (4 Bft) NO 42 2 min 0,000 mm 4,3 UV-I 881 W/m 5,4 C 7,8 C 29,0 km/h (5 Bft) 94,74 %
30.04.2017 12:42 13,9 C 10,0 C 58 % 1014,5 hPa 0,0 l/m 20,7 km/h (4 Bft) NO 51 2 min 0,000 mm 4,3 UV-I 878 W/m 5,8 C 8,1 C 27,4 km/h (4 Bft) 91,07 %
30.04.2017 12:44 13,9 C 10,0 C 52 % 1014,5 hPa 0,0 l/m 23,5 km/h (4 Bft) NO 49 2 min 0,000 mm 4,3 UV-I 879 W/m 4,2 C 7,5 C 32,2 km/h (5 Bft) 97,37 %
30.04.2017 12:46 13,8 C 10,0 C 57 % 1014,5 hPa 0,0 l/m 17,9 km/h (3 Bft) NO 51 2 min 0,000 mm 4,3 UV-I 882 W/m 5,4 C 8,8 C 32,2 km/h (5 Bft) 89,36 %
30.04.2017 12:48 13,9 C 10,0 C 58 % 1014,4 hPa 0,0 l/m 22,8 km/h (4 Bft) O-NO 64 2 min 0,000 mm 4,3 UV-I 882 W/m 5,8 C 7,6 C 29,0 km/h (5 Bft) 94,00 %
30.04.2017 12:50 13,9 C 10,0 C 55 % 1014,3 hPa 0,0 l/m 20,7 km/h (4 Bft) NO 46 2 min 0,000 mm 4,3 UV-I 883 W/m 5,0 C 8,1 C 38,6 km/h (5 Bft) 95,83 %
30.04.2017 12:52 14,1 C 10,0 C 55 % 1014,4 hPa 0,0 l/m 24,8 km/h (4 Bft) O-NO 63 2 min 0,000 mm 4,4 UV-I 885 W/m 5,2 C 7,4 C 30,6 km/h (5 Bft) 95,89 %
30.04.2017 12:54 14,0 C 10,0 C 54 % 1014,3 hPa 0,0 l/m 21,0 km/h (4 Bft) O-NO 61 2 min 0,000 mm 4,3 UV-I 880 W/m 4,8 C 8,2 C 30,6 km/h (5 Bft) 95,12 %
30.04.2017 12:56 13,9 C 10,0 C 53 % 1014,2 hPa 0,0 l/m 22,6 km/h (4 Bft) O-NO 67 2 min 0,000 mm 4,3 UV-I 879 W/m 4,5 C 7,7 C 30,6 km/h (5 Bft) 95,24 %
30.04.2017 12:58 13,9 C 10,0 C 52 % 1014,3 hPa 0,0 l/m 25,9 km/h (4 Bft) O-NO 62 2 min 0,000 mm 4,3 UV-I 881 W/m 4,2 C 6,9 C 40,2 km/h (6 Bft) 97,56 %
30.04.2017 13:00 13,9 C 10,0 C 53 % 1014,3 hPa 0,0 l/m 21,8 km/h (4 Bft) NO 47 2 min 0,558 mm 4,3 UV-I 884 W/m 4,5 C 7,9 C 30,6 km/h (5 Bft) 96,88 %
30.04.2017 13:03 14,2 C 10,0 C 56 % 1014,1 hPa 0,0 l/m 19,2 km/h (3 Bft) O-NO 73 3 min 0,000 mm 4,3 UV-I 883 W/m 5,6 C 8,9 C 32,2 km/h (5 Bft) 94,92 %
30.04.2017 13:04 14,3 C 10,0 C 55 % 1014,2 hPa 0,0 l/m 24,1 km/h (4 Bft) NO 51 1 min 0,000 mm 4,4 UV-I 886 W/m 5,4 C 7,9 C 29,0 km/h (5 Bft) 96,67 %
30.04.2017 13:06 14,3 C 10,0 C 53 % 1014,2 hPa 0,0 l/m 20,7 km/h (4 Bft) O-NO 67 2 min 0,000 mm 4,3 UV-I 880 W/m 4,9 C 8,7 C 29,0 km/h (5 Bft) 94,00 %
30.04.2017 13:08 14,2 C 10,0 C 51 % 1014,2 hPa 0,0 l/m 18,5 km/h (3 Bft) NO 49 2 min 0,000 mm 4,3 UV-I 881 W/m 4,2 C 9,1 C 24,1 km/h (4 Bft) 97,73 %
30.04.2017 13:10 14,2 C 10,0 C 52 % 1014,1 hPa 0,0 l/m 18,9 km/h (3 Bft) NO 36 2 min 0,000 mm 4,3 UV-I 881 W/m 4,5 C 9,0 C 27,4 km/h (4 Bft) 95,45 %
30.04.2017 13:12 14,2 C 10,0 C 52 % 1014,1 hPa 0,0 l/m 24,2 km/h (4 Bft) O-NO 74 2 min 0,000 mm 4,3 UV-I 881 W/m 4,5 C 7,7 C 30,6 km/h (5 Bft) 96,43 %
30.04.2017 13:14 14,2 C 10,0 C 52 % 1014,0 hPa 0,0 l/m 20,9 km/h (4 Bft) O-SO 109 2 min 0,000 mm 4,3 UV-I 885 W/m 4,5 C 8,5 C 35,4 km/h (5 Bft) 91,43 %
30.04.2017 13:16 14,3 C 10,0 C 52 % 1014,0 hPa 0,0 l/m 20,7 km/h (4 Bft) NO 48 2 min 0,000 mm 4,3 UV-I 883 W/m 4,6 C 8,7 C 33,8 km/h (5 Bft) 96,00 %
30.04.2017 13:18 14,3 C 10,0 C 53 % 1013,9 hPa 0,0 l/m 22,9 km/h (4 Bft) O-NO 57 2 min 0,000 mm 4,3 UV-I 879 W/m 4,9 C 8,1 C 35,4 km/h (5 Bft) 92,45 %
30.04.2017 13:20 14,4 C 10,0 C 54 % 1013,9 hPa 0,0 l/m 22,1 km/h (4 Bft) NO 50 2 min 0,000 mm 4,3 UV-I 875 W/m 5,2 C 8,4 C 27,4 km/h (4 Bft) 95,45 %
30.04.2017 13:22 14,6 C 10,0 C 57 % 1013,9 hPa 0,0 l/m 26,0 km/h (4 Bft) O-NO 57 2 min 0,000 mm 4,3 UV-I 875 W/m 6,2 C 7,9 C 38,6 km/h (5 Bft) 92,00 %
30.04.2017 13:24 14,6 C 10,0 C 51 % 1013,9 hPa 0,0 l/m 24,9 km/h (4 Bft) O-NO 69 2 min 0,000 mm 4,3 UV-I 876 W/m 4,6 C 8,1 C 38,6 km/h (5 Bft) 92,68 %
30.04.2017 13:26 14,6 C 10,0 C 52 % 1013,9 hPa 0,0 l/m 22,4 km/h (4 Bft) O-NO 66 2 min 0,000 mm 4,3 UV-I 874 W/m 4,9 C 8,6 C 30,6 km/h (5 Bft) 94,34 %
30.04.2017 13:28 14,6 C 10,0 C 52 % 1013,9 hPa 0,0 l/m 22,1 km/h (4 Bft) O-NO 61 2 min 0,000 mm 4,3 UV-I 876 W/m 4,9 C 8,7 C 35,4 km/h (5 Bft) 97,56 %
30.04.2017 13:30 14,6 C 10,0 C 50 % 1013,9 hPa 0,0 l/m 25,0 km/h (4 Bft) O-NO 75 2 min 0,000 mm 4,3 UV-I 876 W/m 4,3 C 8,1 C 32,2 km/h (5 Bft) 92,00 %
30.04.2017 13:32 14,6 C 10,0 C 53 % 1013,9 hPa 0,0 l/m 23,4 km/h (4 Bft) O-NO 61 2 min 0,000 mm 4,3 UV-I 874 W/m 5,1 C 8,4 C 33,8 km/h (5 Bft) 95,83 %
30.04.2017 13:34 14,6 C 10,0 C 53 % 1013,7 hPa 0,0 l/m 20,7 km/h (4 Bft) NO 55 2 min 0,000 mm 4,2 UV-I 872 W/m 5,1 C 9,1 C 30,6 km/h (5 Bft) 94,03 %
30.04.2017 13:36 14,7 C 10,0 C 54 % 1013,7 hPa 0,0 l/m 22,8 km/h (4 Bft) N 9 2 min 0,000 mm 4,2 UV-I 872 W/m 5,5 C 8,7 C 32,2 km/h (5 Bft) 92,00 %
30.04.2017 13:38 14,8 C 10,0 C 55 % 1013,7 hPa 0,0 l/m 19,4 km/h (3 Bft) NO 37 2 min 0,000 mm 4,2 UV-I 871 W/m 5,8 C 9,6 C 33,8 km/h (5 Bft) 94,87 %
30.04.2017 13:40 14,8 C 10,0 C 53 % 1013,6 hPa 0,0 l/m 26,9 km/h (4 Bft) O-NO 78 2 min 0,000 mm 4,2 UV-I 869 W/m 5,3 C 8,0 C 40,2 km/h (6 Bft) 92,45 %
30.04.2017 13:42 14,8 C 10,0 C 53 % 1013,6 hPa 0,0 l/m 27,1 km/h (4 Bft) NO 53 2 min 0,000 mm 4,2 UV-I 868 W/m 5,3 C 7,9 C 40,2 km/h (6 Bft) 93,18 %
30.04.2017 13:44 14,8 C 10,0 C 53 % 1013,5 hPa 0,0 l/m 22,6 km/h (4 Bft) NO 51 2 min 0,000 mm 4,2 UV-I 864 W/m 5,3 C 8,9 C 29,0 km/h (5 Bft) 94,34 %
30.04.2017 13:46 14,8 C 10,0 C 52 % 1013,5 hPa 0,0 l/m 24,9 km/h (4 Bft) O-NO 60 2 min 0,000 mm 4,1 UV-I 861 W/m 5,0 C 8,4 C 32,2 km/h (5 Bft) 89,47 %
30.04.2017 13:48 14,8 C 10,0 C 53 % 1013,5 hPa 0,0 l/m 19,5 km/h (3 Bft) NO 43 2 min 0,000 mm 4,1 UV-I 862 W/m 5,3 C 9,6 C 29,0 km/h (5 Bft) 94,34 %
30.04.2017 13:50 14,8 C 10,0 C 51 % 1013,5 hPa 0,0 l/m 24,3 km/h (4 Bft) O 82 2 min 0,000 mm 4,2 UV-I 865 W/m 4,8 C 8,5 C 35,4 km/h (5 Bft) 94,00 %
30.04.2017 13:52 14,8 C 10,0 C 52 % 1013,5 hPa 0,0 l/m 23,1 km/h (4 Bft) NO 55 2 min 0,000 mm 4,1 UV-I 862 W/m 5,0 C 8,7 C 33,8 km/h (5 Bft) 97,56 %
30.04.2017 13:54 14,8 C 10,0 C 53 % 1013,5 hPa 0,0 l/m 22,2 km/h (4 Bft) O-NO 74 2 min 0,000 mm 4,1 UV-I 854 W/m 5,3 C 8,9 C 30,6 km/h (5 Bft) 96,23 %
30.04.2017 13:56 14,9 C 10,0 C 54 % 1013,4 hPa 0,0 l/m 18,3 km/h (3 Bft) N-NO 30 2 min 0,000 mm 4,1 UV-I 855 W/m 5,7 C 10,1 C 29,0 km/h (5 Bft) 95,45 %
30.04.2017 13:58 15,0 C 10,0 C 53 % 1013,4 hPa 0,0 l/m 26,7 km/h (4 Bft) O-NO 78 2 min 0,000 mm 4,0 UV-I 854 W/m 5,5 C 8,3 C 33,8 km/h (5 Bft) 91,49 %
30.04.2017 14:00 15,0 C 10,0 C 54 % 1013,4 hPa 0,0 l/m 26,0 km/h (4 Bft) O-NO 59 2 min 0,585 mm 4,0 UV-I 854 W/m 5,8 C 8,4 C 35,4 km/h (5 Bft) 94,74 %
30.04.2017 14:02 14,9 C 10,0 C 52 % 1013,4 hPa 0,0 l/m 28,4 km/h (4 Bft) N-NO 32 2 min 0,000 mm 4,0 UV-I 852 W/m 5,1 C 7,8 C 41,8 km/h (6 Bft) 92,45 %
30.04.2017 14:04 14,9 C 10,0 C 52 % 1013,3 hPa 0,0 l/m 23,3 km/h (4 Bft) NO 56 2 min 0,000 mm 4,0 UV-I 848 W/m 5,1 C 8,8 C 33,8 km/h (5 Bft) 97,87 %
30.04.2017 14:06 15,1 C 10,0 C 55 % 1013,3 hPa 0,0 l/m 25,7 km/h (4 Bft) NO 36 2 min 0,000 mm 4,0 UV-I 847 W/m 6,1 C 8,6 C 35,4 km/h (5 Bft) 93,18 %
30.04.2017 14:08 15,1 C 10,0 C 53 % 1013,2 hPa 0,0 l/m 25,5 km/h (4 Bft) NO 42 2 min 0,000 mm 3,9 UV-I 844 W/m 5,6 C 8,6 C 33,8 km/h (5 Bft) 90,57 %
30.04.2017 14:10 15,1 C 10,0 C 52 % 1013,2 hPa 0,0 l/m 29,3 km/h (5 Bft) NO 34 2 min 0,000 mm 4,0 UV-I 844 W/m 5,3 C 7,9 C 37,0 km/h (5 Bft) 92,11 %
30.04.2017 14:12 15,2 C 10,0 C 53 % 1013,2 hPa 0,0 l/m 26,8 km/h (4 Bft) NO 41 2 min 0,000 mm 3,9 UV-I 839 W/m 5,7 C 8,5 C 38,6 km/h (5 Bft) 95,83 %
30.04.2017 14:14 15,2 C 10,0 C 55 % 1013,2 hPa 0,0 l/m 24,8 km/h (4 Bft) N-NO 16 2 min 0,000 mm 3,9 UV-I 839 W/m 6,2 C 8,9 C 33,8 km/h (5 Bft) 100,00 %
30.04.2017 14:16 15,2 C 10,0 C 52 % 1013,2 hPa 0,0 l/m 30,6 km/h (5 Bft) O-NO 69 2 min 0,000 mm 3,9 UV-I 836 W/m 5,4 C 7,9 C 40,2 km/h (6 Bft) 97,96 %
30.04.2017 14:18 15,2 C 10,0 C 51 % 1013,2 hPa 0,0 l/m 25,5 km/h (4 Bft) O-NO 58 2 min 0,000 mm 3,8 UV-I 830 W/m 5,1 C 8,8 C 38,6 km/h (5 Bft) 95,83 %
30.04.2017 14:20 15,1 C 10,0 C 52 % 1013,1 hPa 0,0 l/m 26,1 km/h (4 Bft) N-NO 25 2 min 0,000 mm 3,8 UV-I 832 W/m 5,3 C 8,5 C 35,4 km/h (5 Bft) 100,00 %
30.04.2017 14:22 15,1 C 10,0 C 53 % 1013,1 hPa 0,0 l/m 22,9 km/h (4 Bft) O 82 2 min 0,000 mm 3,8 UV-I 826 W/m 5,6 C 9,2 C 32,2 km/h (5 Bft) 100,00 %
30.04.2017 14:24 15,2 C 10,0 C 52 % 1013,1 hPa 0,0 l/m 22,4 km/h (4 Bft) NO 35 2 min 0,000 mm 3,7 UV-I 822 W/m 5,4 C 9,4 C 33,8 km/h (5 Bft) 95,12 %
30.04.2017 14:26 15,3 C 10,0 C 54 % 1013,1 hPa 0,0 l/m 24,5 km/h (4 Bft) NO 47 2 min 0,000 mm 3,7 UV-I 823 W/m 6,0 C 9,1 C 35,4 km/h (5 Bft) 100,00 %
30.04.2017 14:28 15,4 C 10,0 C 56 % 1013,1 hPa 0,0 l/m 19,3 km/h (3 Bft) NO 42 2 min 0,000 mm 3,7 UV-I 817 W/m 6,7 C 10,4 C 43,5 km/h (6 Bft) 100,00 %
30.04.2017 14:30 15,4 C 10,0 C 53 % 1013,0 hPa 0,0 l/m 24,1 km/h (4 Bft) NO 45 2 min 0,000 mm 3,7 UV-I 817 W/m 5,9 C 9,3 C 45,1 km/h (6 Bft) 98,25 %
30.04.2017 14:36 15,3 C 10,0 C 53 % 1012,8 hPa 0,0 l/m 30,1 km/h (5 Bft) NO 54 6 min 0,000 mm 3,6 UV-I 810 W/m 5,8 C 8,1 C 38,6 km/h (5 Bft) 96,81 %
30.04.2017 14:38 15,3 C 10,0 C 51 % 1012,9 hPa 0,0 l/m 24,4 km/h (4 Bft) NO 40 2 min 0,000 mm 3,6 UV-I 806 W/m 5,2 C 9,1 C 38,6 km/h (5 Bft) 100,00 %
30.04.2017 14:40 15,4 C 10,0 C 51 % 1012,8 hPa 0,0 l/m 26,9 km/h (4 Bft) NO 53 2 min 0,000 mm 3,6 UV-I 806 W/m 5,3 C 8,8 C 41,8 km/h (6 Bft) 96,61 %
30.04.2017 14:42 15,5 C 10,0 C 53 % 1012,8 hPa 0,0 l/m 29,0 km/h (5 Bft) O-NO 69 2 min 0,000 mm 3,5 UV-I 802 W/m 6,0 C 8,6 C 40,2 km/h (6 Bft) 97,37 %
30.04.2017 14:44 15,5 C 10,0 C 51 % 1012,7 hPa 0,0 l/m 28,6 km/h (4 Bft) O-NO 65 2 min 0,000 mm 3,5 UV-I 797 W/m 5,4 C 8,6 C 40,2 km/h (6 Bft) 100,00 %
30.04.2017 14:46 15,4 C 10,0 C 52 % 1012,7 hPa 0,0 l/m 27,7 km/h (4 Bft) NO 53 2 min 0,000 mm 3,5 UV-I 794 W/m 5,6 C 8,6 C 41,8 km/h (6 Bft) 97,56 %
30.04.2017 14:48 15,4 C 10,4 C 53 % 1012,8 hPa 0,0 l/m 28,7 km/h (4 Bft) O-NO 78 2 min 0,000 mm 3,4 UV-I 791 W/m 5,9 C 8,5 C 40,2 km/h (6 Bft) 97,73 %
30.04.2017 14:50 15,5 C 10,4 C 52 % 1012,7 hPa 0,0 l/m 21,7 km/h (4 Bft) O 84 2 min 0,000 mm 3,4 UV-I 788 W/m 5,7 C 10,0 C 30,6 km/h (5 Bft) 100,00 %
30.04.2017 14:52 15,5 C 10,4 C 51 % 1012,7 hPa 0,0 l/m 26,7 km/h (4 Bft) O-NO 77 2 min 0,000 mm 3,4 UV-I 783 W/m 5,4 C 9,0 C 35,4 km/h (5 Bft) 97,73 %
30.04.2017 14:54 15,6 C 10,4 C 52 % 1012,6 hPa 0,0 l/m 22,9 km/h (4 Bft) O-NO 72 2 min 0,000 mm 3,3 UV-I 779 W/m 5,8 C 9,9 C 40,2 km/h (6 Bft) 96,23 %
30.04.2017 14:56 15,6 C 10,3 C 53 % 1012,6 hPa 0,0 l/m 26,0 km/h (4 Bft) O-NO 57 2 min 0,000 mm 3,3 UV-I 774 W/m 6,1 C 9,2 C 37,0 km/h (5 Bft) 98,00 %
30.04.2017 14:58 15,6 C 9,4 C 52 % 1012,6 hPa 0,0 l/m 22,6 km/h (4 Bft) O-NO 61 2 min 0,000 mm 3,3 UV-I 774 W/m 5,8 C 9,9 C 32,2 km/h (5 Bft) 94,74 %
30.04.2017 15:00 15,6 C 9,4 C 52 % 1012,6 hPa 0,0 l/m 22,3 km/h (4 Bft) O-NO 71 2 min 0,000 mm 3,3 UV-I 771 W/m 5,8 C 10,0 C 30,6 km/h (5 Bft) 100,00 %
30.04.2017 15:02 15,6 C 9,4 C 53 % 1012,5 hPa 0,0 l/m 29,3 km/h (5 Bft) NO 52 2 min 0,558 mm 3,2 UV-I 767 W/m 6,1 C 8,6 C 40,2 km/h (6 Bft) 96,23 %
30.04.2017 15:04 15,6 C 9,4 C 54 % 1012,5 hPa 0,0 l/m 30,2 km/h (5 Bft) O-NO 64 2 min 0,000 mm 3,2 UV-I 764 W/m 6,3 C 8,5 C 40,2 km/h (6 Bft) 93,33 %
30.04.2017 15:06 15,7 C 9,4 C 53 % 1012,5 hPa 0,0 l/m 23,1 km/h (4 Bft) NO 44 2 min 0,000 mm 3,1 UV-I 759 W/m 6,1 C 9,9 C 37,0 km/h (5 Bft) 96,61 %
30.04.2017 15:08 15,8 C 9,4 C 53 % 1012,5 hPa 0,0 l/m 25,6 km/h (4 Bft) NO 49 2 min 0,000 mm 3,1 UV-I 757 W/m 6,2 C 9,6 C 33,8 km/h (5 Bft) 94,23 %
30.04.2017 15:10 15,8 C 9,4 C 53 % 1012,5 hPa 0,0 l/m 22,9 km/h (4 Bft) NO 51 2 min 0,000 mm 3,1 UV-I 752 W/m 6,2 C 10,1 C 32,2 km/h (5 Bft) 96,00 %
30.04.2017 15:12 15,8 C 9,4 C 51 % 1012,4 hPa 0,0 l/m 28,2 km/h (4 Bft) O-NO 67 2 min 0,000 mm 3,1 UV-I 747 W/m 5,7 C 9,1 C 38,6 km/h (5 Bft) 95,00 %
30.04.2017 15:14 15,8 C 9,4 C 51 % 1012,5 hPa 0,0 l/m 24,8 km/h (4 Bft) O-NO 70 2 min 0,000 mm 3,0 UV-I 743 W/m 5,7 C 9,7 C 37,0 km/h (5 Bft) 96,23 %
30.04.2017 15:16 15,9 C 9,4 C 54 % 1012,4 hPa 0,0 l/m 20,9 km/h (4 Bft) O-NO 69 2 min 0,000 mm 3,0 UV-I 737 W/m 6,6 C 10,7 C 32,2 km/h (5 Bft) 96,00 %
30.04.2017 15:18 15,9 C 9,4 C 48 % 1012,4 hPa 0,0 l/m 28,4 km/h (4 Bft) NO 44 2 min 0,000 mm 3,0 UV-I 734 W/m 4,9 C 9,2 C 40,2 km/h (6 Bft) 95,12 %
30.04.2017 15:20 15,8 C 9,4 C 51 % 1012,4 hPa 0,0 l/m 28,8 km/h (4 Bft) O-NO 61 2 min 0,000 mm 2,9 UV-I 733 W/m 5,7 C 9,0 C 43,5 km/h (6 Bft) 94,23 %
30.04.2017 15:22 15,7 C 9,4 C 48 % 1012,4 hPa 0,0 l/m 26,0 km/h (4 Bft) NO 34 2 min 0,000 mm 2,9 UV-I 731 W/m 4,7 C 9,4 C 35,4 km/h (5 Bft) 95,24 %
30.04.2017 15:24 15,7 C 9,4 C 50 % 1012,3 hPa 0,0 l/m 24,0 km/h (4 Bft) O-NO 64 2 min 0,000 mm 2,9 UV-I 725 W/m 5,3 C 9,8 C 33,8 km/h (5 Bft) 94,34 %
30.04.2017 15:26 15,7 C 9,4 C 52 % 1012,3 hPa 0,0 l/m 27,0 km/h (4 Bft) NO 47 2 min 0,000 mm 2,8 UV-I 722 W/m 5,9 C 9,2 C 41,8 km/h (6 Bft) 95,74 %
30.04.2017 15:28 15,7 C 9,4 C 49 % 1012,3 hPa 0,0 l/m 28,1 km/h (4 Bft) NO 35 2 min 0,000 mm 2,8 UV-I 716 W/m 5,0 C 9,0 C 40,2 km/h (6 Bft) 94,29 %
30.04.2017 15:30 15,7 C 9,4 C 47 % 1012,2 hPa 0,0 l/m 26,4 km/h (4 Bft) N-NO 15 2 min 0,000 mm 2,8 UV-I 714 W/m 4,4 C 9,3 C 38,6 km/h (5 Bft) 96,15 %
30.04.2017 15:32 15,8 C 9,4 C 48 % 1012,2 hPa 0,0 l/m 25,4 km/h (4 Bft) NO 55 2 min 0,000 mm 2,8 UV-I 709 W/m 4,8 C 9,6 C 35,4 km/h (5 Bft) 100,00 %
30.04.2017 15:34 15,8 C 9,4 C 49 % 1012,2 hPa 0,0 l/m 24,7 km/h (4 Bft) N-NO 26 2 min 0,000 mm 2,7 UV-I 704 W/m 5,1 C 9,8 C 38,6 km/h (5 Bft) 96,00 %
30.04.2017 15:36 15,9 C 9,4 C 50 % 1012,1 hPa 0,0 l/m 29,2 km/h (5 Bft) O-NO 68 2 min 0,000 mm 2,7 UV-I 698 W/m 5,5 C 9,1 C 40,2 km/h (6 Bft) 96,43 %
30.04.2017 15:38 15,8 C 9,4 C 49 % 1012,1 hPa 0,0 l/m 29,8 km/h (5 Bft) N-NO 32 2 min 0,000 mm 2,6 UV-I 695 W/m 5,1 C 8,8 C 48,3 km/h (6 Bft) 92,11 %
30.04.2017 15:40 15,9 C 9,4 C 50 % 1012,0 hPa 0,0 l/m 28,3 km/h (4 Bft) O-NO 71 2 min 0,000 mm 2,6 UV-I 692 W/m 5,5 C 9,2 C 40,2 km/h (6 Bft) 96,23 %
30.04.2017 15:42 15,9 C 9,4 C 51 % 1012,0 hPa 0,0 l/m 24,8 km/h (4 Bft) N-NO 26 2 min 0,000 mm 2,6 UV-I 686 W/m 5,8 C 9,9 C 38,6 km/h (5 Bft) 100,00 %
30.04.2017 15:44 16,1 C 9,4 C 49 % 1011,9 hPa 0,0 l/m 27,4 km/h (4 Bft) NO 40 2 min 0,000 mm 2,5 UV-I 682 W/m 5,4 C 9,7 C 37,0 km/h (5 Bft) 98,18 %
30.04.2017 15:46 16,1 C 9,4 C 50 % 1011,9 hPa 0,0 l/m 28,8 km/h (4 Bft) O-NO 59 2 min 0,000 mm 2,5 UV-I 678 W/m 5,7 C 9,4 C 40,2 km/h (6 Bft) 97,73 %
30.04.2017 15:48 16,1 C 9,4 C 48 % 1011,9 hPa 0,0 l/m 26,1 km/h (4 Bft) O-NO 61 2 min 0,000 mm 2,5 UV-I 673 W/m 5,1 C 9,9 C 35,4 km/h (5 Bft) 98,11 %
30.04.2017 15:50 16,1 C 9,4 C 47 % 1011,9 hPa 0,0 l/m 27,1 km/h (4 Bft) O-NO 65 2 min 0,000 mm 2,5 UV-I 671 W/m 4,8 C 9,7 C 38,6 km/h (5 Bft) 100,00 %
30.04.2017 15:52 16,1 C 9,4 C 47 % 1011,8 hPa 0,0 l/m 29,5 km/h (5 Bft) NO 53 2 min 0,000 mm 2,4 UV-I 667 W/m 4,8 C 9,3 C 37,0 km/h (5 Bft) 96,23 %
30.04.2017 15:54 16,0 C 9,4 C 46 % 1011,8 hPa 0,0 l/m 32,4 km/h (5 Bft) NO 48 2 min 0,000 mm 2,4 UV-I 662 W/m 4,4 C 8,7 C 41,8 km/h (6 Bft) 100,00 %
30.04.2017 15:56 16,0 C 9,4 C 50 % 1011,7 hPa 0,0 l/m 24,5 km/h (4 Bft) O-NO 73 2 min 0,000 mm 2,3 UV-I 654 W/m 5,6 C 10,1 C 40,2 km/h (6 Bft) 98,11 %
30.04.2017 15:58 16,1 C 9,4 C 47 % 1011,8 hPa 0,0 l/m 26,2 km/h (4 Bft) NO 45 2 min 0,000 mm 2,3 UV-I 648 W/m 4,8 C 9,9 C 35,4 km/h (5 Bft) 98,11 %
30.04.2017 16:00 16,1 C 9,4 C 47 % 1011,8 hPa 0,0 l/m 27,0 km/h (4 Bft) NO 55 2 min 0,000 mm 2,3 UV-I 647 W/m 4,8 C 9,7 C 40,2 km/h (6 Bft) 100,00 %
30.04.2017 16:02 16,1 C 9,4 C 46 % 1011,8 hPa 0,0 l/m 26,3 km/h (4 Bft) NO 56 2 min 0,534 mm 2,2 UV-I 643 W/m 4,5 C 9,9 C 38,6 km/h (5 Bft) 97,73 %
30.04.2017 16:04 16,1 C 9,4 C 46 % 1011,6 hPa 0,0 l/m 26,5 km/h (4 Bft) O-NO 63 2 min 0,000 mm 2,2 UV-I 638 W/m 4,5 C 9,8 C 40,2 km/h (6 Bft) 100,00 %
30.04.2017 16:06 16,1 C 9,4 C 46 % 1011,6 hPa 0,0 l/m 27,1 km/h (4 Bft) NO 53 2 min 0,000 mm 2,2 UV-I 632 W/m 4,5 C 9,7 C 40,2 km/h (6 Bft) 100,00 %
30.04.2017 16:08 16,1 C 9,4 C 47 % 1011,6 hPa 0,0 l/m 23,3 km/h (4 Bft) N-NO 18 2 min 0,000 mm 2,2 UV-I 628 W/m 4,8 C 10,4 C 33,8 km/h (5 Bft) 98,11 %
30.04.2017 16:10 16,2 C 9,4 C 47 % 1011,6 hPa 0,0 l/m 28,4 km/h (4 Bft) NO 38 2 min 0,000 mm 2,2 UV-I 622 W/m 4,9 C 9,6 C 40,2 km/h (6 Bft) 100,00 %
30.04.2017 16:12 16,2 C 9,4 C 48 % 1011,7 hPa 0,0 l/m 22,3 km/h (4 Bft) O-NO 66 2 min 0,000 mm 2,1 UV-I 620 W/m 5,2 C 10,8 C 38,6 km/h (5 Bft) 98,46 %
30.04.2017 16:14 16,2 C 9,4 C 45 % 1011,6 hPa 0,0 l/m 30,0 km/h (5 Bft) NO 53 2 min 0,000 mm 2,1 UV-I 615 W/m 4,3 C 9,4 C 46,7 km/h (6 Bft) 100,00 %
30.04.2017 16:16 16,2 C 9,4 C 45 % 1011,6 hPa 0,0 l/m 28,8 km/h (4 Bft) O-NO 71 2 min 0,000 mm 2,0 UV-I 608 W/m 4,3 C 9,6 C 38,6 km/h (5 Bft) 100,00 %
30.04.2017 16:18 16,2 C 9,4 C 46 % 1011,5 hPa 0,0 l/m 26,2 km/h (4 Bft) O-NO 76 2 min 0,000 mm 2,0 UV-I 604 W/m 4,6 C 10,0 C 38,6 km/h (5 Bft) 98,31 %
30.04.2017 16:20 16,2 C 9,4 C 47 % 1011,5 hPa 0,0 l/m 26,5 km/h (4 Bft) NO 42 2 min 0,000 mm 2,0 UV-I 598 W/m 4,9 C 10,0 C 37,0 km/h (5 Bft) 97,56 %
30.04.2017 16:22 16,1 C 9,4 C 47 % 1011,5 hPa 0,0 l/m 30,3 km/h (5 Bft) NO 34 2 min 0,000 mm 1,9 UV-I 593 W/m 4,8 C 9,2 C 41,8 km/h (6 Bft) 97,62 %
30.04.2017 16:24 16,1 C 9,4 C 46 % 1011,5 hPa 0,0 l/m 26,3 km/h (4 Bft) NO 51 2 min 0,000 mm 1,9 UV-I 588 W/m 4,5 C 9,9 C 41,8 km/h (6 Bft) 100,00 %
30.04.2017 16:26 16,2 C 9,4 C 46 % 1011,5 hPa 0,0 l/m 22,8 km/h (4 Bft) NO 46 2 min 0,000 mm 1,9 UV-I 583 W/m 4,6 C 10,7 C 37,0 km/h (5 Bft) 98,00 %
30.04.2017 16:28 16,3 C 9,4 C 47 % 1011,4 hPa 0,0 l/m 22,2 km/h (4 Bft) O-NO 63 2 min 0,000 mm 1,9 UV-I 577 W/m 5,0 C 10,9 C 30,6 km/h (5 Bft) 97,44 %
30.04.2017 16:30 16,3 C 9,4 C 47 % 1011,4 hPa 0,0 l/m 23,0 km/h (4 Bft) O-NO 77 2 min 0,000 mm 1,8 UV-I 571 W/m 5,0 C 10,8 C 41,8 km/h (6 Bft) 100,00 %
30.04.2017 16:32 16,3 C 9,4 C 47 % 1011,4 hPa 0,0 l/m 28,0 km/h (4 Bft) NO 53 2 min 0,000 mm 1,8 UV-I 565 W/m 5,0 C 9,8 C 40,2 km/h (6 Bft) 100,00 %
30.04.2017 16:34 16,3 C 9,4 C 50 % 1011,4 hPa 0,0 l/m 21,0 km/h (4 Bft) NO 41 2 min 0,000 mm 1,7 UV-I 560 W/m 5,9 C 11,2 C 29,0 km/h (5 Bft) 98,00 %
30.04.2017 16:36 16,4 C 9,4 C 49 % 1011,3 hPa 0,0 l/m 22,6 km/h (4 Bft) N-NO 25 2 min 0,000 mm 1,7 UV-I 554 W/m 5,7 C 11,0 C 33,8 km/h (5 Bft) 85,71 %
30.04.2017 16:38 16,3 C 9,4 C 46 % 1011,3 hPa 0,0 l/m 26,3 km/h (4 Bft) N-NO 31 2 min 0,000 mm 1,7 UV-I 548 W/m 4,7 C 10,1 C 37,0 km/h (5 Bft) 98,70 %
30.04.2017 16:40 16,3 C 9,4 C 47 % 1011,3 hPa 0,0 l/m 22,8 km/h (4 Bft) O 87 2 min 0,000 mm 1,7 UV-I 544 W/m 5,0 C 10,8 C 30,6 km/h (5 Bft) 98,00 %
30.04.2017 16:42 16,3 C 9,4 C 49 % 1011,3 hPa 0,0 l/m 21,5 km/h (4 Bft) O-NO 71 2 min 0,000 mm 1,6 UV-I 540 W/m 5,6 C 11,1 C 32,2 km/h (5 Bft) 100,00 %
30.04.2017 16:44 16,3 C 9,4 C 46 % 1011,3 hPa 0,0 l/m 27,1 km/h (4 Bft) O-NO 59 2 min 0,000 mm 1,6 UV-I 533 W/m 4,7 C 10,0 C 37,0 km/h (5 Bft) 98,21 %
30.04.2017 16:46 16,2 C 9,4 C 46 % 1011,3 hPa 0,0 l/m 27,8 km/h (4 Bft) NO 56 2 min 0,000 mm 1,6 UV-I 527 W/m 4,6 C 9,7 C 41,8 km/h (6 Bft) 95,45 %
30.04.2017 16:48 16,2 C 11,7 C 48 % 1011,3 hPa 0,0 l/m 27,0 km/h (4 Bft) NO 53 2 min 0,000 mm 1,5 UV-I 520 W/m 5,2 C 9,9 C 35,4 km/h (5 Bft) 100,00 %
30.04.2017 16:50 16,2 C 11,7 C 47 % 1011,2 hPa 0,0 l/m 26,4 km/h (4 Bft) NO 53 2 min 0,000 mm 1,5 UV-I 517 W/m 4,9 C 10,0 C 43,5 km/h (6 Bft) 100,00 %
30.04.2017 16:52 16,2 C 11,7 C 45 % 1011,3 hPa 0,0 l/m 28,0 km/h (4 Bft) NO 40 2 min 0,000 mm 1,5 UV-I 511 W/m 4,3 C 9,7 C 41,8 km/h (6 Bft) 97,56 %
30.04.2017 16:54 16,2 C 11,7 C 46 % 1011,3 hPa 0,0 l/m 26,0 km/h (4 Bft) O-NO 71 2 min 0,000 mm 1,4 UV-I 506 W/m 4,6 C 10,0 C 33,8 km/h (5 Bft) 97,92 %
30.04.2017 16:56 16,2 C 11,7 C 45 % 1011,2 hPa 0,0 l/m 27,8 km/h (4 Bft) NO 54 2 min 0,000 mm 1,4 UV-I 500 W/m 4,3 C 9,7 C 46,7 km/h (6 Bft) 94,00 %
30.04.2017 16:58 16,1 C 11,7 C 46 % 1011,2 hPa 0,0 l/m 27,1 km/h (4 Bft) O-NO 67 2 min 0,000 mm 1,4 UV-I 494 W/m 4,5 C 9,7 C 37,0 km/h (5 Bft) 97,73 %
30.04.2017 17:00 16,1 C 11,7 C 46 % 1011,3 hPa 0,0 l/m 28,8 km/h (4 Bft) O-NO 59 2 min 0,000 mm 1,3 UV-I 489 W/m 4,5 C 9,4 C 40,2 km/h (6 Bft) 92,68 %
30.04.2017 17:02 16,1 C 11,7 C 46 % 1011,1 hPa 0,0 l/m 32,1 km/h (5 Bft) NO 43 2 min 0,482 mm 1,3 UV-I 484 W/m 4,5 C 8,9 C 45,1 km/h (6 Bft) 94,00 %
30.04.2017 17:04 16,1 C 11,7 C 47 % 1011,1 hPa 0,0 l/m 32,8 km/h (5 Bft) O-NO 59 2 min 0,000 mm 1,3 UV-I 478 W/m 4,8 C 8,8 C 41,8 km/h (6 Bft) 97,87 %
30.04.2017 17:06 16,0 C 11,7 C 45 % 1011,0 hPa 0,0 l/m 30,6 km/h (5 Bft) NO 43 2 min 0,000 mm 1,3 UV-I 471 W/m 4,1 C 9,0 C 43,5 km/h (6 Bft) 96,08 %
30.04.2017 17:08 16,0 C 11,7 C 46 % 1011,0 hPa 0,0 l/m 26,9 km/h (4 Bft) NO 41 2 min 0,000 mm 1,2 UV-I 466 W/m 4,4 C 9,6 C 40,2 km/h (6 Bft) 95,92 %
30.04.2017 17:10 16,0 C 11,7 C 46 % 1011,0 hPa 0,0 l/m 26,3 km/h (4 Bft) NO 56 2 min 0,000 mm 1,2 UV-I 459 W/m 4,4 C 9,7 C 41,8 km/h (6 Bft) 94,87 %
30.04.2017 17:12 16,0 C 11,7 C 46 % 1011,0 hPa 0,0 l/m 29,4 km/h (5 Bft) O-NO 71 2 min 0,000 mm 1,2 UV-I 454 W/m 4,4 C 9,2 C 38,6 km/h (5 Bft) 94,64 %
30.04.2017 17:14 15,9 C 11,7 C 47 % 1011,0 hPa 0,0 l/m 28,6 km/h (4 Bft) N-NO 28 2 min 0,000 mm 1,2 UV-I 448 W/m 4,6 C 9,2 C 41,8 km/h (6 Bft) 97,56 %
30.04.2017 17:16 15,9 C 11,7 C 46 % 1011,0 hPa 0,0 l/m 29,9 km/h (5 Bft) NO 34 2 min 0,000 mm 1,1 UV-I 442 W/m 4,3 C 9,0 C 53,1 km/h (7 Bft) 98,11 %
30.04.2017 17:18 15,9 C 11,7 C 47 % 1010,8 hPa 0,0 l/m 26,5 km/h (4 Bft) NO 38 2 min 0,000 mm 1,1 UV-I 436 W/m 4,6 C 9,5 C 40,2 km/h (6 Bft) 92,68 %
30.04.2017 17:20 15,9 C 11,7 C 47 % 1010,9 hPa 0,0 l/m 28,7 km/h (4 Bft) O-NO 74 2 min 0,000 mm 1,1 UV-I 429 W/m 4,6 C 9,2 C 41,8 km/h (6 Bft) 96,15 %
30.04.2017 17:22 15,9 C 11,7 C 48 % 1010,8 hPa 0,0 l/m 20,5 km/h (4 Bft) N-NO 33 2 min 0,000 mm 1,0 UV-I 422 W/m 4,9 C 10,8 C 27,4 km/h (4 Bft) 94,12 %
30.04.2017 17:24 15,9 C 11,7 C 46 % 1010,8 hPa 0,0 l/m 29,1 km/h (5 Bft) O 91 2 min 0,000 mm 1,0 UV-I 417 W/m 4,3 C 9,1 C 41,8 km/h (6 Bft) 97,87 %
30.04.2017 17:26 15,9 C 11,7 C 45 % 1010,8 hPa 0,0 l/m 33,7 km/h (5 Bft) O-NO 75 2 min 0,000 mm 1,0 UV-I 412 W/m 4,0 C 8,4 C 45,1 km/h (6 Bft) 96,00 %
30.04.2017 17:28 15,8 C 11,7 C 45 % 1010,8 hPa 0,0 l/m 30,3 km/h (5 Bft) O-NO 77 2 min 0,000 mm 1,0 UV-I 406 W/m 3,9 C 8,8 C 41,8 km/h (6 Bft) 92,11 %
30.04.2017 17:30 15,8 C 11,7 C 47 % 1010,7 hPa 0,0 l/m 27,4 km/h (4 Bft) O-NO 64 2 min 0,000 mm 0,9 UV-I 400 W/m 4,5 C 9,2 C 38,6 km/h (5 Bft) 100,00 %
30.04.2017 17:32 15,7 C 11,7 C 46 % 1010,6 hPa 0,0 l/m 31,5 km/h (5 Bft) O-NO 64 2 min 0,000 mm 0,9 UV-I 394 W/m 4,1 C 8,4 C 43,5 km/h (6 Bft) 100,00 %
30.04.2017 17:34 15,7 C 11,7 C 45 % 1010,7 hPa 0,0 l/m 27,0 km/h (4 Bft) O-NO 63 2 min 0,000 mm 0,9 UV-I 388 W/m 3,8 C 9,2 C 35,4 km/h (5 Bft) 94,29 %
30.04.2017 17:36 15,7 C 11,7 C 48 % 1010,7 hPa 0,0 l/m 29,2 km/h (5 Bft) N-NO 33 2 min 0,000 mm 0,9 UV-I 381 W/m 4,7 C 8,8 C 45,1 km/h (6 Bft) 94,00 %
30.04.2017 17:38 15,7 C 11,7 C 45 % 1010,6 hPa 0,0 l/m 28,7 km/h (4 Bft) NO 39 2 min 0,000 mm 0,9 UV-I 375 W/m 3,8 C 8,9 C 38,6 km/h (5 Bft) 98,00 %
30.04.2017 17:40 15,7 C 11,7 C 47 % 1010,6 hPa 0,0 l/m 24,6 km/h (4 Bft) O-NO 69 2 min 0,000 mm 0,8 UV-I 368 W/m 4,4 C 9,6 C 33,8 km/h (5 Bft) 100,00 %
30.04.2017 17:42 15,7 C 11,7 C 47 % 1010,5 hPa 0,0 l/m 22,3 km/h (4 Bft) O-NO 65 2 min 0,000 mm 0,8 UV-I 362 W/m 4,4 C 10,1 C 35,4 km/h (5 Bft) 92,45 %
30.04.2017 17:44 15,7 C 11,7 C 48 % 1010,5 hPa 0,0 l/m 21,5 km/h (4 Bft) NO 56 2 min 0,000 mm 0,8 UV-I 356 W/m 4,7 C 10,3 C 30,6 km/h (5 Bft) 97,44 %
30.04.2017 17:46 15,7 C 11,7 C 48 % 1010,5 hPa 0,0 l/m 23,4 km/h (4 Bft) O 81 2 min 0,000 mm 0,8 UV-I 351 W/m 4,7 C 9,9 C 33,8 km/h (5 Bft) 100,00 %
30.04.2017 17:48 15,7 C 11,7 C 48 % 1010,5 hPa 0,0 l/m 22,1 km/h (4 Bft) NO 39 2 min 0,000 mm 0,7 UV-I 345 W/m 4,7 C 10,2 C 32,2 km/h (5 Bft) 97,62 %
30.04.2017 17:50 15,7 C 11,7 C 47 % 1010,4 hPa 0,0 l/m 25,7 km/h (4 Bft) O-NO 67 2 min 0,000 mm 0,7 UV-I 341 W/m 4,4 C 9,4 C 38,6 km/h (5 Bft) 94,74 %
30.04.2017 17:52 15,7 C 11,7 C 48 % 1010,4 hPa 0,0 l/m 24,9 km/h (4 Bft) O-NO 63 2 min 0,000 mm 0,7 UV-I 332 W/m 4,7 C 9,6 C 37,0 km/h (5 Bft) 95,35 %
30.04.2017 17:54 15,7 C 11,7 C 46 % 1010,4 hPa 0,0 l/m 29,9 km/h (5 Bft) O-NO 69 2 min 0,000 mm 0,7 UV-I 326 W/m 4,1 C 8,7 C 38,6 km/h (5 Bft) 100,00 %
30.04.2017 17:56 15,6 C 11,7 C 46 % 1010,5 hPa 0,0 l/m 26,1 km/h (4 Bft) O-NO 71 2 min 0,000 mm 0,7 UV-I 318 W/m 4,0 C 9,2 C 37,0 km/h (5 Bft) 100,00 %
30.04.2017 17:58 15,6 C 11,7 C 46 % 1010,4 hPa 0,0 l/m 27,2 km/h (4 Bft) O-NO 63 2 min 0,000 mm 0,6 UV-I 314 W/m 4,0 C 9,0 C 38,6 km/h (5 Bft) 92,00 %
30.04.2017 18:00 15,6 C 11,7 C 47 % 1010,4 hPa 0,0 l/m 27,8 km/h (4 Bft) NO 53 2 min 0,381 mm 0,6 UV-I 307 W/m 4,3 C 8,9 C 38,6 km/h (5 Bft) 98,00 %
30.04.2017 18:02 15,5 C 11,7 C 48 % 1010,4 hPa 0,0 l/m 22,8 km/h (4 Bft) NO 34 2 min 0,000 mm 0,6 UV-I 300 W/m 4,5 C 9,7 C 32,2 km/h (5 Bft) 92,68 %
30.04.2017 18:04 15,4 C 11,7 C 47 % 1010,4 hPa 0,0 l/m 31,1 km/h (5 Bft) O-NO 63 2 min 0,000 mm 0,6 UV-I 294 W/m 4,1 C 8,1 C 45,1 km/h (6 Bft) 100,00 %
30.04.2017 18:06 15,4 C 11,7 C 47 % 1010,4 hPa 0,0 l/m 24,0 km/h (4 Bft) O-NO 57 2 min 0,000 mm 0,6 UV-I 288 W/m 4,1 C 9,4 C 38,6 km/h (5 Bft) 96,23 %
30.04.2017 18:08 15,4 C 11,7 C 47 % 1010,3 hPa 0,0 l/m 27,8 km/h (4 Bft) NO 42 2 min 0,000 mm 0,5 UV-I 282 W/m 4,1 C 8,6 C 41,8 km/h (6 Bft) 92,45 %
30.04.2017 18:10 15,4 C 11,7 C 47 % 1010,3 hPa 0,0 l/m 27,4 km/h (4 Bft) N-NO 30 2 min 0,000 mm 0,5 UV-I 276 W/m 4,1 C 8,7 C 40,2 km/h (6 Bft) 100,00 %
30.04.2017 18:12 15,3 C 11,7 C 47 % 1010,3 hPa 0,0 l/m 24,4 km/h (4 Bft) NO 46 2 min 0,000 mm 0,5 UV-I 271 W/m 4,1 C 9,1 C 37,0 km/h (5 Bft) 94,00 %
30.04.2017 18:14 15,3 C 11,7 C 47 % 1010,3 hPa 0,0 l/m 26,9 km/h (4 Bft) O-NO 57 2 min 0,000 mm 0,5 UV-I 263 W/m 4,1 C 8,6 C 35,4 km/h (5 Bft) 98,11 %
30.04.2017 18:16 15,3 C 11,7 C 47 % 1010,2 hPa 0,0 l/m 26,7 km/h (4 Bft) NO 47 2 min 0,000 mm 0,5 UV-I 258 W/m 4,1 C 8,7 C 35,4 km/h (5 Bft) 97,37 %
30.04.2017 18:19 15,3 C 11,7 C 47 % 1010,2 hPa 0,0 l/m 26,6 km/h (4 Bft) NO 34 3 min 0,000 mm 0,2 UV-I 250 W/m 4,1 C 8,7 C 40,2 km/h (6 Bft) 93,98 %
30.04.2017 18:20 15,3 C 11,7 C 47 % 1010,2 hPa 0,0 l/m 21,5 km/h (4 Bft) NO 46 1 min 0,000 mm 0,0 UV-I 244 W/m 4,1 C 9,8 C 30,6 km/h (5 Bft) 100,00 %
30.04.2017 18:22 15,2 C 11,7 C 48 % 1010,2 hPa 0,0 l/m 23,9 km/h (4 Bft) NO 55 2 min 0,000 mm 0,0 UV-I 239 W/m 4,3 C 9,1 C 32,2 km/h (5 Bft) 100,00 %
30.04.2017 18:24 15,2 C 11,7 C 48 % 1010,1 hPa 0,0 l/m 26,2 km/h (4 Bft) NO 53 2 min 0,000 mm 0,0 UV-I 234 W/m 4,3 C 8,6 C 35,4 km/h (5 Bft) 95,24 %
30.04.2017 18:26 15,2 C 11,7 C 49 % 1010,2 hPa 0,0 l/m 18,5 km/h (3 Bft) O-NO 66 2 min 0,000 mm 0,0 UV-I 228 W/m 4,6 C 10,4 C 24,1 km/h (4 Bft) 90,91 %
30.04.2017 18:28 15,2 C 11,7 C 49 % 1010,2 hPa 0,0 l/m 19,4 km/h (3 Bft) O-NO 57 2 min 0,000 mm 0,0 UV-I 222 W/m 4,6 C 10,2 C 30,6 km/h (5 Bft) 100,00 %
30.04.2017 18:30 15,2 C 11,7 C 46 % 1010,1 hPa 0,0 l/m 29,3 km/h (5 Bft) O-NO 69 2 min 0,000 mm 0,0 UV-I 216 W/m 3,7 C 8,1 C 38,6 km/h (5 Bft) 95,24 %
30.04.2017 18:32 15,2 C 11,7 C 47 % 1010,1 hPa 0,0 l/m 28,4 km/h (4 Bft) O-NO 65 2 min 0,000 mm 0,0 UV-I 211 W/m 4,0 C 8,2 C 38,6 km/h (5 Bft) 88,68 %
30.04.2017 18:34 15,1 C 11,7 C 49 % 1010,2 hPa 0,0 l/m 20,4 km/h (4 Bft) O-NO 70 2 min 0,000 mm 0,0 UV-I 205 W/m 4,5 C 9,8 C 32,2 km/h (5 Bft) 100,00 %
30.04.2017 18:36 15,1 C 11,7 C 49 % 1010,2 hPa 0,0 l/m 17,7 km/h (3 Bft) O-NO 61 2 min 0,000 mm 0,0 UV-I 199 W/m 4,5 C 10,5 C 25,7 km/h (4 Bft) 100,00 %
30.04.2017 18:38 15,0 C 11,7 C 50 % 1010,1 hPa 0,0 l/m 16,8 km/h (3 Bft) O-NO 60 2 min 0,000 mm 0,0 UV-I 194 W/m 4,7 C 10,6 C 20,9 km/h (4 Bft) 98,11 %
30.04.2017 18:40 15,0 C 11,7 C 50 % 1010,1 hPa 0,0 l/m 18,5 km/h (3 Bft) O-NO 58 2 min 0,000 mm 0,0 UV-I 188 W/m 4,7 C 10,1 C 24,1 km/h (4 Bft) 93,18 %
30.04.2017 18:42 14,9 C 11,7 C 50 % 1010,1 hPa 0,0 l/m 17,8 km/h (3 Bft) NO 38 2 min 0,000 mm 0,0 UV-I 182 W/m 4,6 C 10,2 C 25,7 km/h (4 Bft) 96,23 %
30.04.2017 18:44 14,9 C 11,7 C 49 % 1010,1 hPa 0,0 l/m 22,5 km/h (4 Bft) O-NO 59 2 min 0,000 mm 0,0 UV-I 177 W/m 4,3 C 9,0 C 35,4 km/h (5 Bft) 95,74 %
30.04.2017 18:46 14,9 C 11,7 C 49 % 1010,1 hPa 0,0 l/m 26,8 km/h (4 Bft) O-NO 61 2 min 0,000 mm 0,0 UV-I 171 W/m 4,3 C 8,1 C 35,4 km/h (5 Bft) 94,74 %
30.04.2017 18:48 14,8 C 11,7 C 49 % 1010,1 hPa 0,0 l/m 25,2 km/h (4 Bft) O-NO 57 2 min 0,000 mm 0,0 UV-I 166 W/m 4,2 C 8,3 C 33,8 km/h (5 Bft) 94,64 %
30.04.2017 18:50 14,8 C 11,7 C 49 % 1010,1 hPa 0,0 l/m 26,5 km/h (4 Bft) NO 55 2 min 0,000 mm 0,0 UV-I 161 W/m 4,2 C 8,0 C 38,6 km/h (5 Bft) 95,12 %
30.04.2017 18:52 14,8 C 11,7 C 49 % 1010,0 hPa 0,0 l/m 24,0 km/h (4 Bft) NO 35 2 min 0,000 mm 0,0 UV-I 156 W/m 4,2 C 8,5 C 32,2 km/h (5 Bft) 94,34 %
30.04.2017 18:54 14,7 C 11,7 C 49 % 1010,0 hPa 0,0 l/m 26,0 km/h (4 Bft) O-NO 57 2 min 0,000 mm 0,0 UV-I 150 W/m 4,1 C 8,0 C 35,4 km/h (5 Bft) 93,18 %
30.04.2017 18:56 14,7 C 11,7 C 48 % 1010,0 hPa 0,0 l/m 27,7 km/h (4 Bft) O-NO 62 2 min 0,000 mm 0,0 UV-I 144 W/m 3,8 C 7,7 C 45,1 km/h (6 Bft) 96,00 %
30.04.2017 18:58 14,6 C 11,7 C 48 % 1010,0 hPa 0,0 l/m 26,7 km/h (4 Bft) NO 53 2 min 0,000 mm 0,0 UV-I 141 W/m 3,7 C 7,7 C 43,5 km/h (6 Bft) 92,68 %
30.04.2017 19:00 14,6 C 11,7 C 49 % 1009,9 hPa 0,0 l/m 28,7 km/h (4 Bft) NO 39 2 min 0,000 mm 0,0 UV-I 135 W/m 4,0 C 7,4 C 43,5 km/h (6 Bft) 94,23 %
30.04.2017 19:02 14,6 C 11,7 C 48 % 1009,9 hPa 0,0 l/m 33,6 km/h (5 Bft) NO 46 2 min 0,254 mm 0,0 UV-I 133 W/m 3,7 C 6,6 C 43,5 km/h (6 Bft) 95,45 %
30.04.2017 19:04 14,5 C 11,7 C 48 % 1009,9 hPa 0,0 l/m 27,8 km/h (4 Bft) O-NO 77 2 min 0,000 mm 0,0 UV-I 124 W/m 3,6 C 7,4 C 37,0 km/h (5 Bft) 95,24 %
30.04.2017 19:06 14,5 C 11,7 C 50 % 1009,9 hPa 0,0 l/m 21,6 km/h (4 Bft) NO 47 2 min 0,000 mm 0,0 UV-I 121 W/m 4,2 C 8,7 C 30,6 km/h (5 Bft) 94,00 %
30.04.2017 19:08 14,4 C 11,7 C 50 % 1009,9 hPa 0,0 l/m 22,9 km/h (4 Bft) NO 47 2 min 0,000 mm 0,0 UV-I 116 W/m 4,1 C 8,3 C 29,0 km/h (5 Bft) 95,45 %
30.04.2017 19:10 14,4 C 11,7 C 51 % 1009,8 hPa 0,0 l/m 21,7 km/h (4 Bft) O-NO 65 2 min 0,000 mm 0,0 UV-I 112 W/m 4,4 C 8,5 C 32,2 km/h (5 Bft) 90,00 %
30.04.2017 19:12 14,3 C 11,7 C 50 % 1009,8 hPa 0,0 l/m 27,1 km/h (4 Bft) O-NO 61 2 min 0,000 mm 0,0 UV-I 106 W/m 4,0 C 7,2 C 38,6 km/h (5 Bft) 92,00 %
30.04.2017 19:14 14,3 C 11,7 C 49 % 1009,8 hPa 0,0 l/m 32,3 km/h (5 Bft) NO 51 2 min 0,000 mm 0,0 UV-I 103 W/m 3,7 C 6,3 C 45,1 km/h (6 Bft) 92,00 %
30.04.2017 19:16 14,2 C 11,7 C 49 % 1009,9 hPa 0,0 l/m 28,1 km/h (4 Bft) O-NO 64 2 min 0,000 mm 0,0 UV-I 98 W/m 3,6 C 6,9 C 41,8 km/h (6 Bft) 96,15 %
30.04.2017 19:18 14,2 C 11,7 C 50 % 1009,8 hPa 0,0 l/m 23,7 km/h (4 Bft) O-NO 69 2 min 0,000 mm 0,0 UV-I 94 W/m 3,9 C 7,8 C 32,2 km/h (5 Bft) 92,45 %
30.04.2017 19:20 14,1 C 11,7 C 51 % 1009,9 hPa 0,0 l/m 24,0 km/h (4 Bft) O 84 2 min 0,000 mm 0,0 UV-I 90 W/m 4,1 C 7,6 C 33,8 km/h (5 Bft) 87,50 %
30.04.2017 19:22 14,1 C 11,7 C 51 % 1009,8 hPa 0,0 l/m 22,3 km/h (4 Bft) NO 42 2 min 0,000 mm 0,0 UV-I 85 W/m 4,1 C 8,0 C 33,8 km/h (5 Bft) 93,62 %
30.04.2017 19:24 14,0 C 11,7 C 51 % 1009,8 hPa 0,0 l/m 22,6 km/h (4 Bft) O-NO 60 2 min 0,000 mm 0,0 UV-I 80 W/m 4,0 C 7,8 C 32,2 km/h (5 Bft) 92,68 %
30.04.2017 19:26 13,9 C 11,7 C 51 % 1009,8 hPa 0,0 l/m 26,3 km/h (4 Bft) NO 40 2 min 0,000 mm 0,0 UV-I 76 W/m 3,9 C 6,8 C 35,4 km/h (5 Bft) 93,62 %
30.04.2017 19:28 13,9 C 11,7 C 51 % 1009,9 hPa 0,0 l/m 26,1 km/h (4 Bft) O-NO 63 2 min 0,000 mm 0,0 UV-I 72 W/m 3,9 C 6,9 C 38,6 km/h (5 Bft) 93,10 %
30.04.2017 19:30 13,8 C 11,7 C 51 % 1009,8 hPa 0,0 l/m 29,6 km/h (5 Bft) O-NO 57 2 min 0,000 mm 0,0 UV-I 68 W/m 3,8 C 6,1 C 40,2 km/h (6 Bft) 94,29 %
30.04.2017 19:32 13,8 C 11,7 C 51 % 1009,9 hPa 0,0 l/m 28,3 km/h (4 Bft) O-NO 63 2 min 0,000 mm 0,0 UV-I 63 W/m 3,8 C 6,3 C 37,0 km/h (5 Bft) 96,00 %
30.04.2017 19:34 13,7 C 11,7 C 51 % 1009,9 hPa 0,0 l/m 22,8 km/h (4 Bft) O-NO 61 2 min 0,000 mm 0,0 UV-I 59 W/m 3,8 C 7,4 C 33,8 km/h (5 Bft) 95,45 %
30.04.2017 19:36 13,7 C 11,7 C 52 % 1009,9 hPa 0,0 l/m 24,3 km/h (4 Bft) NO 44 2 min 0,000 mm 0,0 UV-I 55 W/m 4,0 C 7,0 C 33,8 km/h (5 Bft) 97,56 %
30.04.2017 19:38 13,6 C 11,7 C 52 % 1009,8 hPa 0,0 l/m 26,4 km/h (4 Bft) NO 46 2 min 0,000 mm 0,0 UV-I 53 W/m 3,9 C 6,4 C 35,4 km/h (5 Bft) 94,34 %
30.04.2017 19:40 13,6 C 11,7 C 52 % 1009,9 hPa 0,0 l/m 25,6 km/h (4 Bft) NO 51 2 min 0,000 mm 0,0 UV-I 48 W/m 3,9 C 6,6 C 33,8 km/h (5 Bft) 97,44 %
30.04.2017 19:42 13,5 C 11,7 C 52 % 1009,8 hPa 0,0 l/m 21,8 km/h (4 Bft) NO 56 2 min 0,000 mm 0,0 UV-I 46 W/m 3,8 C 7,3 C 33,8 km/h (5 Bft) 94,23 %
30.04.2017 19:44 13,4 C 11,7 C 52 % 1009,9 hPa 0,0 l/m 26,0 km/h (4 Bft) NO 42 2 min 0,000 mm 0,0 UV-I 42 W/m 3,7 C 6,2 C 33,8 km/h (5 Bft) 92,45 %
30.04.2017 19:46 13,4 C 11,7 C 53 % 1009,8 hPa 0,0 l/m 15,7 km/h (3 Bft) NO 44 2 min 0,000 mm 0,0 UV-I 39 W/m 4,0 C 9,0 C 24,1 km/h (4 Bft) 95,12 %
30.04.2017 19:48 13,3 C 11,7 C 54 % 1009,8 hPa 0,0 l/m 18,0 km/h (3 Bft) O-NO 68 2 min 0,000 mm 0,0 UV-I 36 W/m 4,2 C 8,1 C 25,7 km/h (4 Bft) 96,00 %
30.04.2017 19:50 13,2 C 11,7 C 53 % 1009,8 hPa 0,0 l/m 22,7 km/h (4 Bft) O-NO 58 2 min 0,000 mm 0,0 UV-I 32 W/m 3,8 C 6,7 C 32,2 km/h (5 Bft) 88,00 %
30.04.2017 19:52 13,1 C 11,7 C 53 % 1009,8 hPa 0,0 l/m 27,7 km/h (4 Bft) NO 37 0 min 0,000 mm 0,0 UV-I 27 W/m 3,7 C 5,5 C 40,2 km/h (6 Bft) 97,56 %
30.04.2017 19:54 13,1 C 11,7 C 53 % 1009,7 hPa 0,0 l/m 23,1 km/h (4 Bft) O-NO 59 2 min 0,000 mm 0,0 UV-I 25 W/m 3,7 C 6,5 C 37,0 km/h (5 Bft) 96,00 %
30.04.2017 19:56 13,0 C 11,7 C 54 % 1009,8 hPa 0,0 l/m 23,0 km/h (4 Bft) O-NO 61 2 min 0,000 mm 0,0 UV-I 22 W/m 3,9 C 6,4 C 32,2 km/h (5 Bft) 92,68 %
30.04.2017 19:58 12,9 C 11,7 C 53 % 1009,7 hPa 0,0 l/m 24,3 km/h (4 Bft) NO 44 2 min 0,000 mm 0,0 UV-I 21 W/m 3,6 C 5,9 C 40,2 km/h (6 Bft) 95,74 %
30.04.2017 20:00 12,9 C 11,7 C 53 % 1009,8 hPa 0,0 l/m 23,9 km/h (4 Bft) O-NO 64 2 min 0,000 mm 0,0 UV-I 19 W/m 3,6 C 6,0 C 40,2 km/h (6 Bft) 92,00 %
30.04.2017 20:02 12,8 C 11,7 C 53 % 1009,7 hPa 0,0 l/m 22,1 km/h (4 Bft) O-NO 57 2 min 0,178 mm 0,0 UV-I 18 W/m 3,5 C 6,3 C 29,0 km/h (5 Bft) 93,18 %
30.04.2017 20:04 12,8 C 11,7 C 54 % 1009,6 hPa 0,0 l/m 23,0 km/h (4 Bft) O-NO 67 2 min 0,000 mm 0,0 UV-I 17 W/m 3,7 C 6,1 C 37,0 km/h (5 Bft) 97,56 %
30.04.2017 20:06 12,7 C 11,7 C 54 % 1009,6 hPa 0,0 l/m 25,3 km/h (4 Bft) O-NO 76 0 min 0,000 mm 0,0 UV-I 15 W/m 3,6 C 5,4 C 37,0 km/h (5 Bft) 98,28 %
30.04.2017 20:08 12,7 C 11,7 C 54 % 1009,6 hPa 0,0 l/m 26,2 km/h (4 Bft) NO 55 0 min 0,000 mm 0,0 UV-I 13 W/m 3,6 C 5,2 C 33,8 km/h (5 Bft) 100,00 %
30.04.2017 20:10 12,6 C 11,7 C 55 % 1009,6 hPa 0,0 l/m 23,4 km/h (4 Bft) O-NO 65 0 min 0,000 mm 0,0 UV-I 11 W/m 3,8 C 5,7 C 30,6 km/h (5 Bft) 98,11 %
30.04.2017 20:12 12,5 C 11,7 C 54 % 1009,5 hPa 0,0 l/m 22,5 km/h (4 Bft) O-NO 77 0 min 0,000 mm 0,0 UV-I 11 W/m 3,5 C 5,8 C 32,2 km/h (5 Bft) 95,74 %
30.04.2017 20:14 12,4 C 11,7 C 54 % 1009,5 hPa 0,0 l/m 27,1 km/h (4 Bft) NO 46 0 min 0,000 mm 0,0 UV-I 9 W/m 3,4 C 4,6 C 40,2 km/h (6 Bft) 90,24 %
30.04.2017 20:16 12,4 C 11,7 C 55 % 1009,5 hPa 0,0 l/m 20,7 km/h (4 Bft) NO 55 0 min 0,000 mm 0,0 UV-I 9 W/m 3,6 C 6,2 C 27,4 km/h (4 Bft) 98,21 %
30.04.2017 20:19 12,3 C 11,7 C 55 % 1009,4 hPa 0,0 l/m 23,9 km/h (4 Bft) O-NO 57 0 min 0,000 mm 0,0 UV-I 7 W/m 3,5 C 5,2 C 33,8 km/h (5 Bft) 98,65 %
30.04.2017 20:20 12,3 C 11,7 C 55 % 1009,4 hPa 0,0 l/m 23,0 km/h (4 Bft) O-NO 58 0 min 0,000 mm 0,0 UV-I 7 W/m 3,5 C 5,4 C 33,8 km/h (5 Bft) 100,00 %
30.04.2017 20:22 12,2 C 11,7 C 56 % 1009,4 hPa 0,0 l/m 20,8 km/h (4 Bft) NO 53 0 min 0,000 mm 0,0 UV-I 5 W/m 3,7 C 5,9 C 29,0 km/h (5 Bft) 96,00 %
30.04.2017 20:24 12,2 C 11,7 C 56 % 1009,4 hPa 0,0 l/m 25,0 km/h (4 Bft) O 90 0 min 0,000 mm 0,0 UV-I 5 W/m 3,7 C 4,8 C 32,2 km/h (5 Bft) 100,00 %
30.04.2017 20:26 12,1 C 11,7 C 56 % 1009,4 hPa 0,0 l/m 21,2 km/h (4 Bft) O-NO 57 0 min 0,000 mm 0,0 UV-I 5 W/m 3,6 C 5,7 C 30,6 km/h (5 Bft) 100,00 %
30.04.2017 20:28 12,1 C 11,7 C 56 % 1009,3 hPa 0,0 l/m 19,8 km/h (3 Bft) O-NO 78 0 min 0,000 mm 0,0 UV-I 4 W/m 3,6 C 6,1 C 29,0 km/h (5 Bft) 95,45 %
30.04.2017 20:30 12,0 C 11,7 C 56 % 1009,4 hPa 0,0 l/m 23,0 km/h (4 Bft) NO 54 0 min 0,000 mm 0,0 UV-I 0 W/m 3,5 C 5,0 C 33,8 km/h (5 Bft) 92,45 %
30.04.2017 20:32 11,9 C 11,7 C 56 % 1009,4 hPa 0,0 l/m 23,6 km/h (4 Bft) NO 52 0 min 0,000 mm 0,0 UV-I 0 W/m 3,4 C 4,8 C 37,0 km/h (5 Bft) 93,18 %
30.04.2017 20:34 11,9 C 11,7 C 56 % 1009,4 hPa 0,0 l/m 22,2 km/h (4 Bft) NO 54 0 min 0,000 mm 0,0 UV-I 0 W/m 3,4 C 5,1 C 30,6 km/h (5 Bft) 94,34 %
30.04.2017 20:36 11,8 C 11,7 C 56 % 1009,4 hPa 0,0 l/m 25,1 km/h (4 Bft) O-NO 59 0 min 0,000 mm 0,0 UV-I 0 W/m 3,3 C 4,2 C 32,2 km/h (5 Bft) 95,12 %
30.04.2017 20:38 11,8 C 11,7 C 56 % 1009,4 hPa 0,0 l/m 20,8 km/h (4 Bft) O-NO 61 0 min 0,000 mm 0,0 UV-I 0 W/m 3,3 C 5,4 C 30,6 km/h (5 Bft) 93,62 %
30.04.2017 20:40 11,8 C 11,7 C 57 % 1009,4 hPa 0,0 l/m 22,1 km/h (4 Bft) NO 56 0 min 0,000 mm 0,0 UV-I 0 W/m 3,6 C 5,0 C 30,6 km/h (5 Bft) 96,00 %
30.04.2017 20:42 11,7 C 11,7 C 57 % 1009,4 hPa 0,0 l/m 25,1 km/h (4 Bft) NO 46 0 min 0,000 mm 0,0 UV-I 0 W/m 3,5 C 4,1 C 32,2 km/h (5 Bft) 97,56 %
30.04.2017 20:44 11,7 C 11,7 C 57 % 1009,4 hPa 0,0 l/m 23,9 km/h (4 Bft) NO 47 0 min 0,000 mm 0,0 UV-I 0 W/m 3,5 C 4,4 C 35,4 km/h (5 Bft) 92,68 %
30.04.2017 20:46 11,6 C 11,7 C 57 % 1009,3 hPa 0,0 l/m 21,4 km/h (4 Bft) O-NO 61 0 min 0,000 mm 0,0 UV-I 0 W/m 3,4 C 4,9 C 33,8 km/h (5 Bft) 100,00 %
30.04.2017 20:48 11,6 C 11,7 C 57 % 1009,4 hPa 0,0 l/m 19,2 km/h (3 Bft) NO 54 0 min 0,000 mm 0,0 UV-I 0 W/m 3,4 C 5,6 C 27,4 km/h (4 Bft) 100,00 %
30.04.2017 20:50 11,5 C 11,7 C 58 % 1009,4 hPa 0,0 l/m 19,1 km/h (3 Bft) O-NO 68 0 min 0,000 mm 0,0 UV-I 0 W/m 3,5 C 5,5 C 27,4 km/h (4 Bft) 98,21 %
30.04.2017 20:52 11,4 C 11,7 C 57 % 1009,4 hPa 0,0 l/m 21,0 km/h (4 Bft) O-NO 77 0 min 0,000 mm 0,0 UV-I 0 W/m 3,2 C 4,8 C 27,4 km/h (4 Bft) 95,74 %
30.04.2017 20:54 11,4 C 11,7 C 58 % 1009,4 hPa 0,0 l/m 19,5 km/h (3 Bft) NO 55 0 min 0,000 mm 0,0 UV-I 0 W/m 3,4 C 5,3 C 25,7 km/h (4 Bft) 93,62 %
30.04.2017 20:56 11,3 C 11,7 C 58 % 1009,4 hPa 0,0 l/m 21,4 km/h (4 Bft) NO 53 0 min 0,000 mm 0,0 UV-I 0 W/m 3,3 C 4,6 C 29,0 km/h (5 Bft) 97,56 %
30.04.2017 20:58 11,3 C 11,7 C 58 % 1009,4 hPa 0,0 l/m 17,1 km/h (3 Bft) O-NO 67 0 min 0,000 mm 0,0 UV-I 0 W/m 3,3 C 5,9 C 29,0 km/h (5 Bft) 100,00 %
30.04.2017 21:00 11,2 C 11,1 C 58 % 1009,4 hPa 0,0 l/m 20,4 km/h (4 Bft) NO 46 0 min 0,127 mm 0,0 UV-I 0 W/m 3,2 C 4,7 C 25,7 km/h (4 Bft) 96,23 %
30.04.2017 21:02 11,2 C 11,7 C 58 % 1009,3 hPa 0,0 l/m 20,9 km/h (4 Bft) O 101 0 min 0,000 mm 0,0 UV-I 0 W/m 3,2 C 4,6 C 30,6 km/h (5 Bft) 92,68 %
30.04.2017 21:04 11,2 C 11,7 C 58 % 1009,4 hPa 0,0 l/m 21,9 km/h (4 Bft) NO 50 0 min 0,000 mm 0,0 UV-I 0 W/m 3,2 C 4,3 C 38,6 km/h (5 Bft) 93,33 %
30.04.2017 21:06 11,2 C 11,1 C 58 % 1009,4 hPa 0,0 l/m 23,9 km/h (4 Bft) NO 51 0 min 0,000 mm 0,0 UV-I 0 W/m 3,2 C 3,7 C 30,6 km/h (5 Bft) 94,34 %
30.04.2017 21:08 11,1 C 11,1 C 59 % 1009,3 hPa 0,0 l/m 22,6 km/h (4 Bft) NO 35 0 min 0,000 mm 0,0 UV-I 0 W/m 3,4 C 3,9 C 30,6 km/h (5 Bft) 94,29 %
30.04.2017 21:10 11,1 C 11,1 C 59 % 1009,3 hPa 0,0 l/m 22,2 km/h (4 Bft) O-NO 57 0 min 0,000 mm 0,0 UV-I 0 W/m 3,4 C 4,1 C 29,0 km/h (5 Bft) 96,23 %
30.04.2017 21:12 11,1 C 11,1 C 58 % 1009,3 hPa 0,0 l/m 24,0 km/h (4 Bft) O-NO 74 0 min 0,000 mm 0,0 UV-I 0 W/m 3,2 C 3,6 C 35,4 km/h (5 Bft) 94,34 %
30.04.2017 21:14 11,1 C 11,1 C 59 % 1009,3 hPa 0,0 l/m 21,8 km/h (4 Bft) NO 44 0 min 0,000 mm 0,0 UV-I 0 W/m 3,4 C 4,2 C 27,4 km/h (4 Bft) 89,47 %
30.04.2017 21:16 11,0 C 11,1 C 59 % 1009,3 hPa 0,0 l/m 21,2 km/h (4 Bft) O-NO 67 0 min 0,000 mm 0,0 UV-I 0 W/m 3,3 C 4,2 C 32,2 km/h (5 Bft) 94,64 %
30.04.2017 21:18 11,0 C 11,1 C 59 % 1009,3 hPa 0,0 l/m 22,0 km/h (4 Bft) NO 49 0 min 0,000 mm 0,0 UV-I 0 W/m 3,3 C 4,0 C 35,4 km/h (5 Bft) 94,74 %
30.04.2017 21:20 11,0 C 11,1 C 58 % 1009,2 hPa 0,0 l/m 21,9 km/h (4 Bft) NO 48 0 min 0,000 mm 0,0 UV-I 0 W/m 3,1 C 4,0 C 33,8 km/h (5 Bft) 92,68 %
30.04.2017 21:22 10,9 C 11,1 C 59 % 1009,2 hPa 0,0 l/m 22,7 km/h (4 Bft) O-NO 63 0 min 0,000 mm 0,0 UV-I 0 W/m 3,2 C 3,7 C 33,8 km/h (5 Bft) 94,64 %
30.04.2017 21:24 10,9 C 11,1 C 59 % 1009,2 hPa 0,0 l/m 22,4 km/h (4 Bft) NO 53 0 min 0,000 mm 0,0 UV-I 0 W/m 3,2 C 3,7 C 35,4 km/h (5 Bft) 93,62 %
30.04.2017 21:26 10,9 C 11,1 C 59 % 1009,2 hPa 0,0 l/m 19,1 km/h (3 Bft) NO 53 0 min 0,000 mm 0,0 UV-I 0 W/m 3,2 C 4,7 C 33,8 km/h (5 Bft) 93,62 %
30.04.2017 21:28 10,8 C 11,1 C 59 % 1009,1 hPa 0,0 l/m 22,2 km/h (4 Bft) O-NO 58 0 min 0,000 mm 0,0 UV-I 0 W/m 3,1 C 3,7 C 29,0 km/h (5 Bft) 92,00 %
30.04.2017 21:30 10,8 C 11,1 C 60 % 1009,1 hPa 0,0 l/m 18,2 km/h (3 Bft) NO 50 0 min 0,000 mm 0,0 UV-I 0 W/m 3,4 C 4,9 C 30,6 km/h (5 Bft) 96,00 %
30.04.2017 21:32 10,8 C 11,1 C 59 % 1009,1 hPa 0,0 l/m 21,8 km/h (4 Bft) O-NO 69 0 min 0,000 mm 0,0 UV-I 0 W/m 3,1 C 3,8 C 30,6 km/h (5 Bft) 92,68 %
30.04.2017 21:34 10,7 C 11,1 C 59 % 1009,1 hPa 0,0 l/m 25,0 km/h (4 Bft) O-NO 58 0 min 0,000 mm 0,0 UV-I 0 W/m 3,0 C 2,8 C 38,6 km/h (5 Bft) 100,00 %
30.04.2017 21:36 10,7 C 11,1 C 59 % 1009,1 hPa 0,0 l/m 21,6 km/h (4 Bft) O-NO 61 0 min 0,000 mm 0,0 UV-I 0 W/m 3,0 C 3,7 C 33,8 km/h (5 Bft) 98,11 %
30.04.2017 21:38 10,7 C 11,1 C 60 % 1009,1 hPa 0,0 l/m 23,7 km/h (4 Bft) O-NO 57 0 min 0,000 mm 0,0 UV-I 0 W/m 3,3 C 3,1 C 30,6 km/h (5 Bft) 97,22 %
30.04.2017 21:40 10,7 C 11,1 C 59 % 1009,1 hPa 0,0 l/m 21,2 km/h (4 Bft) O-NO 58 0 min 0,000 mm 0,0 UV-I 0 W/m 3,0 C 3,8 C 29,0 km/h (5 Bft) 94,55 %
30.04.2017 21:42 10,6 C 11,1 C 60 % 1009,2 hPa 0,0 l/m 19,0 km/h (3 Bft) O-NO 68 0 min 0,000 mm 0,0 UV-I 0 W/m 3,2 C 4,4 C 27,4 km/h (4 Bft) 100,00 %
30.04.2017 21:44 10,6 C 11,1 C 60 % 1009,2 hPa 0,0 l/m 18,7 km/h (3 Bft) O-NO 77 0 min 0,000 mm 0,0 UV-I 0 W/m 3,2 C 4,5 C 24,1 km/h (4 Bft) 91,23 %
30.04.2017 21:46 10,6 C 11,1 C 60 % 1009,1 hPa 0,0 l/m 18,2 km/h (3 Bft) O-NO 59 0 min 0,000 mm 0,0 UV-I 0 W/m 3,2 C 4,7 C 24,1 km/h (4 Bft) 100,00 %
30.04.2017 21:48 10,5 C 11,1 C 60 % 1009,1 hPa 0,0 l/m 16,7 km/h (3 Bft) O-NO 78 0 min 0,000 mm 0,0 UV-I 0 W/m 3,1 C 5,1 C 29,0 km/h (5 Bft) 100,00 %
30.04.2017 21:50 10,4 C 11,1 C 61 % 1009,1 hPa 0,0 l/m 14,4 km/h (3 Bft) O-NO 62 0 min 0,000 mm 0,0 UV-I 0 W/m 3,2 C 5,9 C 24,1 km/h (4 Bft) 98,21 %
30.04.2017 21:52 10,3 C 11,1 C 61 % 1009,1 hPa 0,0 l/m 17,0 km/h (3 Bft) O 79 0 min 0,000 mm 0,0 UV-I 0 W/m 3,1 C 4,7 C 27,4 km/h (4 Bft) 100,00 %
30.04.2017 21:54 10,3 C 11,1 C 61 % 1009,1 hPa 0,0 l/m 16,5 km/h (3 Bft) NO 53 0 min 0,000 mm 0,0 UV-I 0 W/m 3,1 C 4,9 C 22,5 km/h (4 Bft) 98,00 %
30.04.2017 21:56 10,2 C 11,1 C 61 % 1009,1 hPa 0,0 l/m 16,5 km/h (3 Bft) O-NO 74 0 min 0,000 mm 0,0 UV-I 0 W/m 3,0 C 4,8 C 25,7 km/h (4 Bft) 94,74 %
30.04.2017 21:58 10,2 C 11,1 C 61 % 1009,0 hPa 0,0 l/m 16,9 km/h (3 Bft) NO 44 0 min 0,000 mm 0,0 UV-I 0 W/m 3,0 C 4,6 C 27,4 km/h (4 Bft) 100,00 %
30.04.2017 22:00 10,2 C 11,1 C 61 % 1008,9 hPa 0,0 l/m 20,8 km/h (4 Bft) O-NO 58 0 min 0,000 mm 0,0 UV-I 0 W/m 3,0 C 3,3 C 35,4 km/h (5 Bft) 98,11 %
30.04.2017 22:02 10,2 C 11,1 C 61 % 1009,0 hPa 0,0 l/m 18,7 km/h (3 Bft) NO 49 0 min 0,102 mm 0,0 UV-I 0 W/m 3,0 C 4,0 C 25,7 km/h (4 Bft) 95,45 %
30.04.2017 22:04 10,2 C 11,1 C 61 % 1008,9 hPa 0,0 l/m 19,1 km/h (3 Bft) NO 55 0 min 0,000 mm 0,0 UV-I 0 W/m 3,0 C 3,8 C 27,4 km/h (4 Bft) 100,00 %
30.04.2017 22:06 10,2 C 11,1 C 61 % 1008,9 hPa 0,0 l/m 22,4 km/h (4 Bft) O-NO 76 0 min 0,000 mm 0,0 UV-I 0 W/m 3,0 C 2,8 C 30,6 km/h (5 Bft) 98,11 %
30.04.2017 22:08 10,2 C 11,1 C 61 % 1008,9 hPa 0,0 l/m 21,6 km/h (4 Bft) O-NO 59 0 min 0,000 mm 0,0 UV-I 0 W/m 3,0 C 3,0 C 29,0 km/h (5 Bft) 100,00 %
30.04.2017 22:10 10,1 C 11,1 C 62 % 1009,0 hPa 0,0 l/m 21,0 km/h (4 Bft) NO 53 0 min 0,000 mm 0,0 UV-I 0 W/m 3,2 C 3,1 C 25,7 km/h (4 Bft) 98,00 %
30.04.2017 22:12 10,1 C 11,1 C 62 % 1008,9 hPa 0,0 l/m 18,7 km/h (3 Bft) NO 56 0 min 0,000 mm 0,0 UV-I 0 W/m 3,2 C 3,9 C 25,7 km/h (4 Bft) 98,11 %
30.04.2017 22:14 10,0 C 11,1 C 62 % 1008,9 hPa 0,0 l/m 20,1 km/h (4 Bft) NO 47 0 min 0,000 mm 0,0 UV-I 0 W/m 3,1 C 3,3 C 27,4 km/h (4 Bft) 100,00 %
30.04.2017 22:16 10,0 C 11,1 C 62 % 1008,9 hPa 0,0 l/m 20,1 km/h (4 Bft) O-NO 59 0 min 0,000 mm 0,0 UV-I 0 W/m 3,1 C 3,3 C 27,4 km/h (4 Bft) 95,45 %
30.04.2017 22:18 10,0 C 11,1 C 62 % 1008,9 hPa 0,0 l/m 21,4 km/h (4 Bft) NO 52 0 min 0,000 mm 0,0 UV-I 0 W/m 3,1 C 2,8 C 27,4 km/h (4 Bft) 100,00 %
30.04.2017 22:20 9,9 C 11,1 C 62 % 1008,9 hPa 0,0 l/m 20,2 km/h (4 Bft) O-NO 70 0 min 0,000 mm 0,0 UV-I 0 W/m 3,0 C 3,1 C 27,4 km/h (4 Bft) 98,18 %
30.04.2017 22:22 9,9 C 11,1 C 62 % 1008,9 hPa 0,0 l/m 20,6 km/h (4 Bft) O-NO 63 0 min 0,000 mm 0,0 UV-I 0 W/m 3,0 C 3,0 C 30,6 km/h (5 Bft) 97,62 %
30.04.2017 22:24 9,9 C 11,1 C 62 % 1008,9 hPa 0,0 l/m 23,3 km/h (4 Bft) O-NO 65 0 min 0,000 mm 0,0 UV-I 0 W/m 3,0 C 2,2 C 32,2 km/h (5 Bft) 96,23 %
30.04.2017 22:26 9,9 C 11,1 C 62 % 1008,9 hPa 0,0 l/m 23,2 km/h (4 Bft) NO 48 0 min 0,000 mm 0,0 UV-I 0 W/m 3,0 C 2,2 C 30,6 km/h (5 Bft) 100,00 %
30.04.2017 22:28 9,9 C 11,1 C 62 % 1008,9 hPa 0,0 l/m 19,0 km/h (3 Bft) O-NO 61 0 min 0,000 mm 0,0 UV-I 0 W/m 3,0 C 3,5 C 29,0 km/h (5 Bft) 98,31 %
30.04.2017 22:30 9,9 C 11,1 C 62 % 1008,9 hPa 0,0 l/m 19,2 km/h (3 Bft) NO 51 0 min 0,000 mm 0,0 UV-I 0 W/m 3,0 C 3,4 C 29,0 km/h (5 Bft) 100,00 %
30.04.2017 22:32 9,8 C 11,1 C 62 % 1008,9 hPa 0,0 l/m 18,4 km/h (3 Bft) NO 48 0 min 0,000 mm 0,0 UV-I 0 W/m 2,9 C 3,6 C 27,4 km/h (4 Bft) 98,00 %
30.04.2017 22:34 9,8 C 11,1 C 62 % 1008,9 hPa 0,0 l/m 20,5 km/h (4 Bft) NO 53 0 min 0,000 mm 0,0 UV-I 0 W/m 2,9 C 2,9 C 30,6 km/h (5 Bft) 100,00 %
30.04.2017 22:36 9,8 C 11,1 C 62 % 1008,9 hPa 0,0 l/m 16,6 km/h (3 Bft) O-NO 67 0 min 0,000 mm 0,0 UV-I 0 W/m 2,9 C 4,2 C 22,5 km/h (4 Bft) 94,00 %
30.04.2017 22:38 9,7 C 11,1 C 62 % 1008,9 hPa 0,0 l/m 18,1 km/h (3 Bft) NO 46 0 min 0,000 mm 0,0 UV-I 0 W/m 2,8 C 3,6 C 24,1 km/h (4 Bft) 98,00 %
30.04.2017 22:40 9,7 C 11,1 C 63 % 1008,9 hPa 0,0 l/m 16,3 km/h (3 Bft) O-NO 57 0 min 0,000 mm 0,0 UV-I 0 W/m 3,0 C 4,2 C 20,9 km/h (4 Bft) 97,87 %
30.04.2017 22:42 9,7 C 11,1 C 63 % 1008,9 hPa 0,0 l/m 21,0 km/h (4 Bft) O 92 0 min 0,000 mm 0,0 UV-I 0 W/m 3,0 C 2,6 C 27,4 km/h (4 Bft) 100,00 %
30.04.2017 22:44 9,6 C 11,1 C 63 % 1008,9 hPa 0,0 l/m 18,2 km/h (3 Bft) NO 42 0 min 0,000 mm 0,0 UV-I 0 W/m 2,9 C 3,4 C 25,7 km/h (4 Bft) 92,11 %
30.04.2017 22:46 9,6 C 11,1 C 63 % 1008,8 hPa 0,0 l/m 19,8 km/h (3 Bft) NO 52 0 min 0,000 mm 0,0 UV-I 0 W/m 2,9 C 2,8 C 29,0 km/h (5 Bft) 98,00 %
30.04.2017 22:48 9,6 C 11,1 C 63 % 1008,8 hPa 0,0 l/m 18,6 km/h (3 Bft) O-NO 59 0 min 0,000 mm 0,0 UV-I 0 W/m 2,9 C 3,2 C 29,0 km/h (5 Bft) 97,73 %
30.04.2017 22:50 9,6 C 11,1 C 63 % 1008,8 hPa 0,0 l/m 19,6 km/h (3 Bft) NO 55 0 min 0,000 mm 0,0 UV-I 0 W/m 2,9 C 2,9 C 27,4 km/h (4 Bft) 98,00 %
30.04.2017 22:52 9,6 C 11,1 C 63 % 1008,8 hPa 0,0 l/m 18,8 km/h (3 Bft) NO 52 0 min 0,000 mm 0,0 UV-I 0 W/m 2,9 C 3,2 C 29,0 km/h (5 Bft) 100,00 %
30.04.2017 22:54 9,5 C 11,1 C 63 % 1008,8 hPa 0,0 l/m 21,3 km/h (4 Bft) O-NO 62 0 min 0,000 mm 0,0 UV-I 0 W/m 2,8 C 2,2 C 25,7 km/h (4 Bft) 97,87 %
30.04.2017 22:56 9,5 C 11,1 C 63 % 1008,8 hPa 0,0 l/m 18,2 km/h (3 Bft) O-NO 61 0 min 0,000 mm 0,0 UV-I 0 W/m 2,8 C 3,3 C 25,7 km/h (4 Bft) 100,00 %
30.04.2017 22:58 9,4 C 11,1 C 64 % 1008,8 hPa 0,0 l/m 16,1 km/h (3 Bft) NO 40 0 min 0,000 mm 0,0 UV-I 0 W/m 2,9 C 3,9 C 20,9 km/h (4 Bft) 100,00 %
30.04.2017 23:00 9,4 C 11,1 C 64 % 1008,8 hPa 0,0 l/m 16,9 km/h (3 Bft) O-NO 58 0 min 0,076 mm 0,0 UV-I 0 W/m 2,9 C 3,6 C 29,0 km/h (5 Bft) 96,43 %
30.04.2017 23:02 9,3 C 11,1 C 64 % 1008,8 hPa 0,0 l/m 17,1 km/h (3 Bft) NO 51 0 min 0,000 mm 0,0 UV-I 0 W/m 2,8 C 3,4 C 25,7 km/h (4 Bft) 94,23 %
30.04.2017 23:04 9,3 C 11,1 C 64 % 1008,8 hPa 0,0 l/m 18,6 km/h (3 Bft) NO 55 0 min 0,000 mm 0,0 UV-I 0 W/m 2,8 C 2,9 C 25,7 km/h (4 Bft) 94,87 %
30.04.2017 23:06 9,3 C 11,1 C 64 % 1008,8 hPa 0,0 l/m 17,7 km/h (3 Bft) NO 51 0 min 0,000 mm 0,0 UV-I 0 W/m 2,8 C 3,2 C 25,7 km/h (4 Bft) 96,23 %
30.04.2017 23:08 9,3 C 11,1 C 64 % 1008,8 hPa 0,0 l/m 15,0 km/h (3 Bft) NO 50 0 min 0,000 mm 0,0 UV-I 0 W/m 2,8 C 4,3 C 20,9 km/h (4 Bft) 95,74 %
30.04.2017 23:10 9,2 C 11,1 C 65 % 1008,8 hPa 0,0 l/m 17,3 km/h (3 Bft) O-NO 74 0 min 0,000 mm 0,0 UV-I 0 W/m 3,0 C 3,2 C 27,4 km/h (4 Bft) 95,12 %
30.04.2017 23:12 9,2 C 11,1 C 65 % 1008,8 hPa 0,0 l/m 16,9 km/h (3 Bft) NO 55 0 min 0,000 mm 0,0 UV-I 0 W/m 3,0 C 3,4 C 22,5 km/h (4 Bft) 92,45 %
30.04.2017 23:14 9,2 C 11,1 C 65 % 1008,8 hPa 0,0 l/m 15,9 km/h (3 Bft) NO 53 0 min 0,000 mm 0,0 UV-I 0 W/m 3,0 C 3,8 C 20,9 km/h (4 Bft) 93,18 %
30.04.2017 23:16 9,1 C 11,1 C 65 % 1008,8 hPa 0,0 l/m 19,7 km/h (3 Bft) O-NO 59 0 min 0,000 mm 0,0 UV-I 0 W/m 2,9 C 2,2 C 25,7 km/h (4 Bft) 95,12 %
30.04.2017 23:18 9,1 C 11,1 C 65 % 1008,8 hPa 0,0 l/m 19,6 km/h (3 Bft) O-NO 69 0 min 0,000 mm 0,0 UV-I 0 W/m 2,9 C 2,3 C 29,0 km/h (5 Bft) 96,23 %
30.04.2017 23:20 9,1 C 11,1 C 65 % 1008,8 hPa 0,0 l/m 17,7 km/h (3 Bft) O-NO 65 0 min 0,000 mm 0,0 UV-I 0 W/m 2,9 C 2,9 C 25,7 km/h (4 Bft) 92,68 %
30.04.2017 23:22 9,1 C 11,1 C 65 % 1008,7 hPa 0,0 l/m 18,7 km/h (3 Bft) O 90 0 min 0,000 mm 0,0 UV-I 0 W/m 2,9 C 2,6 C 24,1 km/h (4 Bft) 94,34 %
30.04.2017 23:24 9,0 C 11,1 C 65 % 1008,8 hPa 0,0 l/m 19,3 km/h (3 Bft) NO 52 0 min 0,000 mm 0,0 UV-I 0 W/m 2,8 C 2,2 C 27,4 km/h (4 Bft) 95,12 %
30.04.2017 23:26 9,0 C 11,1 C 65 % 1008,8 hPa 0,0 l/m 16,2 km/h (3 Bft) O-NO 63 0 min 0,000 mm 0,0 UV-I 0 W/m 2,8 C 3,4 C 22,5 km/h (4 Bft) 94,34 %
30.04.2017 23:28 8,9 C 11,1 C 66 % 1008,8 hPa 0,0 l/m 15,8 km/h (3 Bft) O-NO 62 0 min 0,000 mm 0,0 UV-I 0 W/m 2,9 C 3,5 C 27,4 km/h (4 Bft) 94,74 %
30.04.2017 23:30 8,9 C 11,1 C 66 % 1008,8 hPa 0,0 l/m 16,5 km/h (3 Bft) O-NO 60 0 min 0,000 mm 0,0 UV-I 0 W/m 2,9 C 3,2 C 25,7 km/h (4 Bft) 91,07 %
30.04.2017 23:32 8,9 C 11,1 C 66 % 1008,8 hPa 0,0 l/m 16,7 km/h (3 Bft) O-NO 69 0 min 0,000 mm 0,0 UV-I 0 W/m 2,9 C 3,1 C 24,1 km/h (4 Bft) 92,68 %
30.04.2017 23:34 8,9 C 11,1 C 66 % 1008,7 hPa 0,0 l/m 16,2 km/h (3 Bft) O-NO 62 0 min 0,000 mm 0,0 UV-I 0 W/m 2,9 C 3,3 C 22,5 km/h (4 Bft) 94,00 %
30.04.2017 23:36 8,8 C 11,1 C 66 % 1008,7 hPa 0,0 l/m 17,0 km/h (3 Bft) O-NO 65 0 min 0,000 mm 0,0 UV-I 0 W/m 2,8 C 2,8 C 27,4 km/h (4 Bft) 91,49 %
30.04.2017 23:38 8,8 C 11,1 C 66 % 1008,7 hPa 0,0 l/m 18,8 km/h (3 Bft) NO 39 0 min 0,000 mm 0,0 UV-I 0 W/m 2,8 C 2,2 C 25,7 km/h (4 Bft) 91,67 %
30.04.2017 23:40 8,8 C 11,1 C 66 % 1008,7 hPa 0,0 l/m 17,9 km/h (3 Bft) O-NO 59 0 min 0,000 mm 0,0 UV-I 0 W/m 2,8 C 2,5 C 24,1 km/h (4 Bft) 95,16 %
30.04.2017 23:42 8,8 C 11,1 C 66 % 1008,7 hPa 0,0 l/m 18,1 km/h (3 Bft) NO 53 0 min 0,000 mm 0,0 UV-I 0 W/m 2,8 C 2,4 C 27,4 km/h (4 Bft) 94,34 %
30.04.2017 23:44 8,8 C 11,1 C 67 % 1008,7 hPa 0,0 l/m 20,9 km/h (4 Bft) O-NO 66 0 min 0,000 mm 0,0 UV-I 0 W/m 3,0 C 1,4 C 29,0 km/h (5 Bft) 96,00 %
30.04.2017 23:46 8,7 C 11,1 C 67 % 1008,7 hPa 0,0 l/m 17,1 km/h (3 Bft) O-NO 61 0 min 0,000 mm 0,0 UV-I 0 W/m 2,9 C 2,7 C 22,5 km/h (4 Bft) 95,12 %
30.04.2017 23:48 8,7 C 11,1 C 67 % 1008,7 hPa 0,0 l/m 17,7 km/h (3 Bft) NO 52 0 min 0,000 mm 0,0 UV-I 0 W/m 2,9 C 2,4 C 25,7 km/h (4 Bft) 98,11 %
30.04.2017 23:50 8,7 C 11,1 C 67 % 1008,6 hPa 0,0 l/m 18,3 km/h (3 Bft) NO 51 0 min 0,000 mm 0,0 UV-I 0 W/m 2,9 C 2,2 C 27,4 km/h (4 Bft) 94,74 %
30.04.2017 23:52 8,7 C 11,1 C 67 % 1008,7 hPa 0,0 l/m 17,7 km/h (3 Bft) O-NO 71 0 min 0,000 mm 0,0 UV-I 0 W/m 2,9 C 2,4 C 27,4 km/h (4 Bft) 96,61 %
30.04.2017 23:54 8,7 C 11,1 C 67 % 1008,7 hPa 0,0 l/m 17,6 km/h (3 Bft) NO 55 0 min 0,000 mm 0,0 UV-I 0 W/m 2,9 C 2,5 C 22,5 km/h (4 Bft) 94,74 %
30.04.2017 23:56 8,7 C 11,1 C 67 % 1008,7 hPa 0,0 l/m 20,6 km/h (4 Bft) NO 50 0 min 0,000 mm 0,0 UV-I 0 W/m 2,9 C 1,4 C 27,4 km/h (4 Bft) 91,07 %
30.04.2017 23:58 8,6 C 11,1 C 67 % 1008,7 hPa 0,0 l/m 15,5 km/h (3 Bft) O-NO 63 0 min 0,000 mm 0,0 UV-I 0 W/m 2,8 C 3,2 C 22,5 km/h (4 Bft) 100,00 %
_ Min-Zeit 05:54 04:06 16:14 23:50 - 00:10 - - - - - - 05:54 08:40 00:10 00:02
Minimum _ 0,6 C 8,9 C 45 % 1008,6 hPa - 0,0 km/h (0 Bft) - - - - - - 0,2 C -3,0 C 0,0 km/h (0 Bft) 9,09 %
_ Max-Zeit 16:36 16:48 02:24 00:16 07:12 17:26 - - 14:36 14:00 12:52 13:04 14:28 16:34 17:16 00:26
Maximum _ 16,4 C 11,7 C 97 % 1017,7 hPa 0,2 l/m 33,7 km/h
O-NO (5 Bft)
- - 6 min 0,585 mm 4,4 UV-I 886 W/m 6,7 C 11,2 C 53,1 km/h
NO (7 Bft)
100,00 %
Durchschnitt _ 8,7 C 10,0 C 71 % 1013,9 hPa #0,2 l/m 16,1 km/h (3 Bft) O-NO - #13:48 h #5,334 mm 2,6 UV-I 493 W/m 3,1 C 4,4 C 23,1 km/h (4 Bft) 96,30 %